<?xml version='1.0' encoding='UTF-8'?><gpx version="1.1" creator="JPX - https://github.com/jenetics/jpx" xmlns="http://www.topografix.com/GPX/1/1"><trk><trkseg><trkpt lat="45.9728468" lon="12.6780435"><ele>31.0</ele><time>2026-04-03T16:17:04.982Z</time></trkpt><trkpt lat="45.9730598" lon="12.6779481"><ele>31.0</ele><time>2026-04-03T16:19:32.7Z</time></trkpt><trkpt lat="45.9731148" lon="12.6778611"><ele>31.0</ele><time>2026-04-03T16:19:33.699Z</time></trkpt><trkpt lat="45.9731654" lon="12.677799"><ele>31.0</ele><time>2026-04-03T16:19:34.7Z</time></trkpt><trkpt lat="45.9732306" lon="12.6777274"><ele>31.166666666666668</ele><time>2026-04-03T16:19:35.7Z</time></trkpt><trkpt lat="45.973302" lon="12.6776595"><ele>31.333333333333336</ele><time>2026-04-03T16:19:36.699Z</time></trkpt><trkpt lat="45.9733588" lon="12.6776074"><ele>31.5</ele><time>2026-04-03T16:19:37.7Z</time></trkpt><trkpt lat="45.9734043" lon="12.6775293"><ele>31.666666666666664</ele><time>2026-04-03T16:19:38.699Z</time></trkpt><trkpt lat="45.973491" lon="12.6775212"><ele>31.833333333333332</ele><time>2026-04-03T16:19:39.699Z</time></trkpt><trkpt lat="45.9735744" lon="12.6774993"><ele>32.0</ele><time>2026-04-03T16:19:40.701Z</time></trkpt><trkpt lat="45.9736523" lon="12.6774716"><ele>32.33333333333333</ele><time>2026-04-03T16:19:41.7Z</time></trkpt><trkpt lat="45.9737221" lon="12.6774376"><ele>32.666666666666664</ele><time>2026-04-03T16:19:42.699Z</time></trkpt><trkpt lat="45.9737837" lon="12.6773939"><ele>33.0</ele><time>2026-04-03T16:19:43.699Z</time></trkpt><trkpt lat="45.9738667" lon="12.6773087"><ele>33.333333333333336</ele><time>2026-04-03T16:19:45.7Z</time></trkpt><trkpt lat="45.9739324" lon="12.6772382"><ele>33.66666666666667</ele><time>2026-04-03T16:19:47.7Z</time></trkpt><trkpt lat="45.9740408" lon="12.6772421"><ele>34.0</ele><time>2026-04-03T16:19:49.701Z</time></trkpt><trkpt lat="45.9741243" lon="12.6772306"><ele>34.2</ele><time>2026-04-03T16:19:51.7Z</time></trkpt><trkpt lat="45.9742329" lon="12.6771499"><ele>34.4</ele><time>2026-04-03T16:19:53.699Z</time></trkpt><trkpt lat="45.9743168" lon="12.677083"><ele>34.6</ele><time>2026-04-03T16:19:54.7Z</time></trkpt><trkpt lat="45.9744078" lon="12.6769933"><ele>34.8</ele><time>2026-04-03T16:19:55.7Z</time></trkpt><trkpt lat="45.9744929" lon="12.6769033"><ele>35.0</ele><time>2026-04-03T16:19:56.7Z</time></trkpt><trkpt lat="45.9745819" lon="12.6768189"><ele>35.0</ele><time>2026-04-03T16:19:57.7Z</time></trkpt><trkpt lat="45.9746731" lon="12.6767343"><ele>35.0</ele><time>2026-04-03T16:19:58.7Z</time></trkpt><trkpt lat="45.9747567" lon="12.6766425"><ele>35.0</ele><time>2026-04-03T16:19:59.7Z</time></trkpt><trkpt lat="45.9748357" lon="12.6765572"><ele>35.0</ele><time>2026-04-03T16:20:00.701Z</time></trkpt><trkpt lat="45.9749093" lon="12.6764769"><ele>35.0</ele><time>2026-04-03T16:20:01.7Z</time></trkpt><trkpt lat="45.9749763" lon="12.6764036"><ele>35.0</ele><time>2026-04-03T16:20:02.7Z</time></trkpt><trkpt lat="45.9750436" lon="12.6763348"><ele>35.0</ele><time>2026-04-03T16:20:03.699Z</time></trkpt><trkpt lat="45.97509" lon="12.6762731"><ele>35.0</ele><time>2026-04-03T16:20:04.7Z</time></trkpt><trkpt lat="45.9751581" lon="12.6762173"><ele>35.0</ele><time>2026-04-03T16:20:06.699Z</time></trkpt><trkpt lat="45.9752406" lon="12.6762323"><ele>35.0</ele><time>2026-04-03T16:20:20.7Z</time></trkpt><trkpt lat="45.9753055" lon="12.6763413"><ele>35.0</ele><time>2026-04-03T16:20:22.699Z</time></trkpt><trkpt lat="45.9753799" lon="12.6764947"><ele>35.0</ele><time>2026-04-03T16:20:24.7Z</time></trkpt><trkpt lat="45.9754267" lon="12.6765974"><ele>35.0</ele><time>2026-04-03T16:20:25.7Z</time></trkpt><trkpt lat="45.9754707" lon="12.6767063"><ele>35.0</ele><time>2026-04-03T16:20:26.699Z</time></trkpt><trkpt lat="45.9755202" lon="12.6768254"><ele>35.0</ele><time>2026-04-03T16:20:27.7Z</time></trkpt><trkpt lat="45.9755751" lon="12.6769543"><ele>35.0</ele><time>2026-04-03T16:20:28.7Z</time></trkpt><trkpt lat="45.9756256" lon="12.6770814"><ele>35.2</ele><time>2026-04-03T16:20:29.699Z</time></trkpt><trkpt lat="45.9756794" lon="12.6772102"><ele>35.4</ele><time>2026-04-03T16:20:30.7Z</time></trkpt><trkpt lat="45.9757331" lon="12.6773475"><ele>35.6</ele><time>2026-04-03T16:20:31.699Z</time></trkpt><trkpt lat="45.9757945" lon="12.6774874"><ele>35.8</ele><time>2026-04-03T16:20:32.699Z</time></trkpt><trkpt lat="45.97585" lon="12.6776309"><ele>36.0</ele><time>2026-04-03T16:20:33.7Z</time></trkpt><trkpt lat="45.9759083" lon="12.6777724"><ele>36.0</ele><time>2026-04-03T16:20:34.699Z</time></trkpt><trkpt lat="45.9759696" lon="12.6779208"><ele>36.0</ele><time>2026-04-03T16:20:35.7Z</time></trkpt><trkpt lat="45.9760302" lon="12.6780714"><ele>36.0</ele><time>2026-04-03T16:20:36.701Z</time></trkpt><trkpt lat="45.9760948" lon="12.6782231"><ele>36.0</ele><time>2026-04-03T16:20:37.701Z</time></trkpt><trkpt lat="45.9761537" lon="12.6783676"><ele>36.0</ele><time>2026-04-03T16:20:38.699Z</time></trkpt><trkpt lat="45.9762111" lon="12.678511"><ele>36.0</ele><time>2026-04-03T16:20:39.699Z</time></trkpt><trkpt lat="45.9762667" lon="12.6786573"><ele>36.0</ele><time>2026-04-03T16:20:40.7Z</time></trkpt><trkpt lat="45.9763183" lon="12.6787977"><ele>36.0</ele><time>2026-04-03T16:20:41.7Z</time></trkpt><trkpt lat="45.9763586" lon="12.6789485"><ele>35.75</ele><time>2026-04-03T16:20:42.699Z</time></trkpt><trkpt lat="45.9763814" lon="12.6791066"><ele>35.5</ele><time>2026-04-03T16:20:43.699Z</time></trkpt><trkpt lat="45.976404" lon="12.679272"><ele>35.25</ele><time>2026-04-03T16:20:44.699Z</time></trkpt><trkpt lat="45.9764251" lon="12.6794406"><ele>35.0</ele><time>2026-04-03T16:20:45.699Z</time></trkpt><trkpt lat="45.9764417" lon="12.6796054"><ele>35.33333333333333</ele><time>2026-04-03T16:20:46.699Z</time></trkpt><trkpt lat="45.9764624" lon="12.6797538"><ele>35.666666666666664</ele><time>2026-04-03T16:20:47.7Z</time></trkpt><trkpt lat="45.9764916" lon="12.6798864"><ele>36.0</ele><time>2026-04-03T16:20:48.7Z</time></trkpt><trkpt lat="45.976536" lon="12.6799954"><ele>36.333333333333336</ele><time>2026-04-03T16:20:49.699Z</time></trkpt><trkpt lat="45.9765793" lon="12.6800863"><ele>36.66666666666667</ele><time>2026-04-03T16:20:50.7Z</time></trkpt><trkpt lat="45.9766205" lon="12.6801624"><ele>37.0</ele><time>2026-04-03T16:20:51.701Z</time></trkpt><trkpt lat="45.9766677" lon="12.6802268"><ele>37.0</ele><time>2026-04-03T16:20:52.7Z</time></trkpt><trkpt lat="45.9767262" lon="12.6803205"><ele>37.0</ele><time>2026-04-03T16:20:54.701Z</time></trkpt><trkpt lat="45.9767656" lon="12.6803936"><ele>37.0</ele><time>2026-04-03T16:20:56.7Z</time></trkpt><trkpt lat="45.9768159" lon="12.6804789"><ele>37.0</ele><time>2026-04-03T16:20:58.701Z</time></trkpt><trkpt lat="45.9768949" lon="12.6806151"><ele>37.0</ele><time>2026-04-03T16:21:00.7Z</time></trkpt><trkpt lat="45.9769349" lon="12.680691"><ele>37.0</ele><time>2026-04-03T16:21:01.7Z</time></trkpt><trkpt lat="45.976972" lon="12.6807741"><ele>37.0</ele><time>2026-04-03T16:21:02.7Z</time></trkpt><trkpt lat="45.9770215" lon="12.6808661"><ele>37.0</ele><time>2026-04-03T16:21:03.699Z</time></trkpt><trkpt lat="45.9770664" lon="12.6809667"><ele>37.0</ele><time>2026-04-03T16:21:04.7Z</time></trkpt><trkpt lat="45.9771186" lon="12.6810755"><ele>37.0</ele><time>2026-04-03T16:21:05.701Z</time></trkpt><trkpt lat="45.9771682" lon="12.6811823"><ele>37.0</ele><time>2026-04-03T16:21:06.7Z</time></trkpt><trkpt lat="45.9772257" lon="12.6812938"><ele>37.0</ele><time>2026-04-03T16:21:07.699Z</time></trkpt><trkpt lat="45.9772876" lon="12.6814191"><ele>37.2</ele><time>2026-04-03T16:21:08.7Z</time></trkpt><trkpt lat="45.9773564" lon="12.6815397"><ele>37.400000000000006</ele><time>2026-04-03T16:21:09.7Z</time></trkpt><trkpt lat="45.9774211" lon="12.6816651"><ele>37.599999999999994</ele><time>2026-04-03T16:21:10.7Z</time></trkpt><trkpt lat="45.9774839" lon="12.6817946"><ele>37.8</ele><time>2026-04-03T16:21:11.699Z</time></trkpt><trkpt lat="45.9775446" lon="12.681927"><ele>38.0</ele><time>2026-04-03T16:21:12.7Z</time></trkpt><trkpt lat="45.977608" lon="12.6820726"><ele>38.5</ele><time>2026-04-03T16:21:13.7Z</time></trkpt><trkpt lat="45.9776729" lon="12.6822282"><ele>39.0</ele><time>2026-04-03T16:21:14.7Z</time></trkpt><trkpt lat="45.9777412" lon="12.6823911"><ele>39.5</ele><time>2026-04-03T16:21:15.699Z</time></trkpt><trkpt lat="45.9778104" lon="12.6825521"><ele>40.0</ele><time>2026-04-03T16:21:16.7Z</time></trkpt><trkpt lat="45.9778792" lon="12.682704"><ele>39.75</ele><time>2026-04-03T16:21:17.701Z</time></trkpt><trkpt lat="45.9779471" lon="12.6828623"><ele>39.5</ele><time>2026-04-03T16:21:18.7Z</time></trkpt><trkpt lat="45.9780147" lon="12.6830207"><ele>39.25</ele><time>2026-04-03T16:21:19.699Z</time></trkpt><trkpt lat="45.9780775" lon="12.6831678"><ele>39.0</ele><time>2026-04-03T16:21:20.699Z</time></trkpt><trkpt lat="45.9781368" lon="12.6833086"><ele>39.0</ele><time>2026-04-03T16:21:21.7Z</time></trkpt><trkpt lat="45.9781988" lon="12.6834485"><ele>39.0</ele><time>2026-04-03T16:21:22.699Z</time></trkpt><trkpt lat="45.9782603" lon="12.6835896"><ele>39.0</ele><time>2026-04-03T16:21:23.699Z</time></trkpt><trkpt lat="45.9783223" lon="12.6837339"><ele>39.0</ele><time>2026-04-03T16:21:24.7Z</time></trkpt><trkpt lat="45.9783841" lon="12.6838797"><ele>38.75</ele><time>2026-04-03T16:21:25.7Z</time></trkpt><trkpt lat="45.978445" lon="12.6840319"><ele>38.5</ele><time>2026-04-03T16:21:26.699Z</time></trkpt><trkpt lat="45.9785085" lon="12.6841868"><ele>38.25</ele><time>2026-04-03T16:21:27.7Z</time></trkpt><trkpt lat="45.9785776" lon="12.6843459"><ele>38.0</ele><time>2026-04-03T16:21:28.699Z</time></trkpt><trkpt lat="45.978655" lon="12.6845107"><ele>38.5</ele><time>2026-04-03T16:21:29.7Z</time></trkpt><trkpt lat="45.9787345" lon="12.6846785"><ele>39.0</ele><time>2026-04-03T16:21:30.699Z</time></trkpt><trkpt lat="45.9788142" lon="12.6848405"><ele>39.5</ele><time>2026-04-03T16:21:31.699Z</time></trkpt><trkpt lat="45.9788911" lon="12.6849914"><ele>40.0</ele><time>2026-04-03T16:21:32.7Z</time></trkpt><trkpt lat="45.9789647" lon="12.6851376"><ele>39.75</ele><time>2026-04-03T16:21:33.701Z</time></trkpt><trkpt lat="45.9790356" lon="12.6852791"><ele>39.5</ele><time>2026-04-03T16:21:34.701Z</time></trkpt><trkpt lat="45.9791091" lon="12.6854226"><ele>39.25</ele><time>2026-04-03T16:21:35.7Z</time></trkpt><trkpt lat="45.9791839" lon="12.6855723"><ele>39.0</ele><time>2026-04-03T16:21:36.701Z</time></trkpt><trkpt lat="45.9792607" lon="12.685722"><ele>39.0</ele><time>2026-04-03T16:21:37.7Z</time></trkpt><trkpt lat="45.979341" lon="12.6858769"><ele>39.0</ele><time>2026-04-03T16:21:38.7Z</time></trkpt><trkpt lat="45.9794225" lon="12.6860334"><ele>39.0</ele><time>2026-04-03T16:21:39.7Z</time></trkpt><trkpt lat="45.9795117" lon="12.6861905"><ele>39.0</ele><time>2026-04-03T16:21:40.699Z</time></trkpt><trkpt lat="45.9796006" lon="12.6863447"><ele>39.0</ele><time>2026-04-03T16:21:41.699Z</time></trkpt><trkpt lat="45.9796865" lon="12.6864902"><ele>39.0</ele><time>2026-04-03T16:21:42.699Z</time></trkpt><trkpt lat="45.979773" lon="12.6866298"><ele>39.0</ele><time>2026-04-03T16:21:43.701Z</time></trkpt><trkpt lat="45.9798597" lon="12.6867766"><ele>39.0</ele><time>2026-04-03T16:21:44.701Z</time></trkpt><trkpt lat="45.9799456" lon="12.6869252"><ele>39.0</ele><time>2026-04-03T16:21:45.701Z</time></trkpt><trkpt lat="45.9800309" lon="12.6870739"><ele>39.0</ele><time>2026-04-03T16:21:46.7Z</time></trkpt><trkpt lat="45.9801193" lon="12.6872246"><ele>39.0</ele><time>2026-04-03T16:21:47.701Z</time></trkpt><trkpt lat="45.9802104" lon="12.6873752"><ele>39.0</ele><time>2026-04-03T16:21:48.699Z</time></trkpt><trkpt lat="45.9803055" lon="12.6875207"><ele>39.0</ele><time>2026-04-03T16:21:49.7Z</time></trkpt><trkpt lat="45.980403" lon="12.6876641"><ele>39.0</ele><time>2026-04-03T16:21:50.701Z</time></trkpt><trkpt lat="45.9805048" lon="12.6877982"><ele>39.0</ele><time>2026-04-03T16:21:51.7Z</time></trkpt><trkpt lat="45.9806082" lon="12.68791"><ele>39.0</ele><time>2026-04-03T16:21:52.7Z</time></trkpt><trkpt lat="45.9807178" lon="12.6880121"><ele>39.25</ele><time>2026-04-03T16:21:53.699Z</time></trkpt><trkpt lat="45.9808307" lon="12.6881024"><ele>39.5</ele><time>2026-04-03T16:21:54.699Z</time></trkpt><trkpt lat="45.9809402" lon="12.6881735"><ele>39.75</ele><time>2026-04-03T16:21:55.699Z</time></trkpt><trkpt lat="45.9810532" lon="12.6882376"><ele>40.0</ele><time>2026-04-03T16:21:56.699Z</time></trkpt><trkpt lat="45.981169" lon="12.6883081"><ele>40.0</ele><time>2026-04-03T16:21:57.7Z</time></trkpt><trkpt lat="45.9812773" lon="12.6883752"><ele>40.0</ele><time>2026-04-03T16:21:58.7Z</time></trkpt><trkpt lat="45.9813804" lon="12.688442"><ele>40.0</ele><time>2026-04-03T16:21:59.7Z</time></trkpt><trkpt lat="45.9814784" lon="12.6885163"><ele>40.0</ele><time>2026-04-03T16:22:00.7Z</time></trkpt><trkpt lat="45.9815703" lon="12.6886036"><ele>40.2</ele><time>2026-04-03T16:22:01.7Z</time></trkpt><trkpt lat="45.9816563" lon="12.6887042"><ele>40.4</ele><time>2026-04-03T16:22:02.699Z</time></trkpt><trkpt lat="45.9817374" lon="12.6888221"><ele>40.599999999999994</ele><time>2026-04-03T16:22:03.7Z</time></trkpt><trkpt lat="45.9818099" lon="12.6889491"><ele>40.8</ele><time>2026-04-03T16:22:04.699Z</time></trkpt><trkpt lat="45.9818641" lon="12.6890828"><ele>41.0</ele><time>2026-04-03T16:22:05.699Z</time></trkpt><trkpt lat="45.9819031" lon="12.6892281"><ele>41.25</ele><time>2026-04-03T16:22:06.699Z</time></trkpt><trkpt lat="45.9819392" lon="12.6893849"><ele>41.5</ele><time>2026-04-03T16:22:07.699Z</time></trkpt><trkpt lat="45.9819695" lon="12.6895573"><ele>41.75</ele><time>2026-04-03T16:22:08.7Z</time></trkpt><trkpt lat="45.9820003" lon="12.6897213"><ele>42.0</ele><time>2026-04-03T16:22:09.699Z</time></trkpt><trkpt lat="45.9820338" lon="12.6898749"><ele>42.0</ele><time>2026-04-03T16:22:10.7Z</time></trkpt><trkpt lat="45.982081" lon="12.6900258"><ele>42.0</ele><time>2026-04-03T16:22:11.699Z</time></trkpt><trkpt lat="45.9821428" lon="12.6901706"><ele>42.0</ele><time>2026-04-03T16:22:12.7Z</time></trkpt><trkpt lat="45.9822161" lon="12.6903084"><ele>42.0</ele><time>2026-04-03T16:22:13.699Z</time></trkpt><trkpt lat="45.9822981" lon="12.6904423"><ele>42.0</ele><time>2026-04-03T16:22:14.699Z</time></trkpt><trkpt lat="45.9823873" lon="12.690568"><ele>42.0</ele><time>2026-04-03T16:22:15.699Z</time></trkpt><trkpt lat="45.9824846" lon="12.6906836"><ele>42.0</ele><time>2026-04-03T16:22:16.699Z</time></trkpt><trkpt lat="45.9825881" lon="12.6907866"><ele>42.0</ele><time>2026-04-03T16:22:17.7Z</time></trkpt><trkpt lat="45.982686" lon="12.6908881"><ele>42.25</ele><time>2026-04-03T16:22:18.7Z</time></trkpt><trkpt lat="45.9827756" lon="12.6909961"><ele>42.5</ele><time>2026-04-03T16:22:19.701Z</time></trkpt><trkpt lat="45.9828549" lon="12.6911163"><ele>42.75</ele><time>2026-04-03T16:22:20.699Z</time></trkpt><trkpt lat="45.9829224" lon="12.6912504"><ele>43.0</ele><time>2026-04-03T16:22:21.701Z</time></trkpt><trkpt lat="45.9829911" lon="12.6913865"><ele>43.0</ele><time>2026-04-03T16:22:22.7Z</time></trkpt><trkpt lat="45.9830585" lon="12.6915185"><ele>43.0</ele><time>2026-04-03T16:22:23.699Z</time></trkpt><trkpt lat="45.9831213" lon="12.6916442"><ele>43.0</ele><time>2026-04-03T16:22:24.7Z</time></trkpt><trkpt lat="45.9831794" lon="12.6917676"><ele>43.0</ele><time>2026-04-03T16:22:25.7Z</time></trkpt><trkpt lat="45.9832369" lon="12.6918854"><ele>43.0</ele><time>2026-04-03T16:22:26.701Z</time></trkpt><trkpt lat="45.9832888" lon="12.6919983"><ele>43.0</ele><time>2026-04-03T16:22:27.701Z</time></trkpt><trkpt lat="45.9833381" lon="12.692107"><ele>43.0</ele><time>2026-04-03T16:22:28.699Z</time></trkpt><trkpt lat="45.9833792" lon="12.6921975"><ele>43.0</ele><time>2026-04-03T16:22:29.699Z</time></trkpt><trkpt lat="45.9834404" lon="12.6923375"><ele>43.0</ele><time>2026-04-03T16:22:31.699Z</time></trkpt><trkpt lat="45.9835011" lon="12.6924635"><ele>43.0</ele><time>2026-04-03T16:22:33.7Z</time></trkpt><trkpt lat="45.9835531" lon="12.6925194"><ele>43.0</ele><time>2026-04-03T16:22:34.701Z</time></trkpt><trkpt lat="45.9836205" lon="12.6925663"><ele>43.0</ele><time>2026-04-03T16:22:35.701Z</time></trkpt><trkpt lat="45.9836971" lon="12.6926235"><ele>43.0</ele><time>2026-04-03T16:22:36.699Z</time></trkpt><trkpt lat="45.9837691" lon="12.692696"><ele>43.0</ele><time>2026-04-03T16:22:37.7Z</time></trkpt><trkpt lat="45.9838405" lon="12.6927894"><ele>43.0</ele><time>2026-04-03T16:22:38.699Z</time></trkpt><trkpt lat="45.9839173" lon="12.6929089"><ele>42.75</ele><time>2026-04-03T16:22:39.7Z</time></trkpt><trkpt lat="45.9840002" lon="12.6930403"><ele>42.5</ele><time>2026-04-03T16:22:40.699Z</time></trkpt><trkpt lat="45.9840819" lon="12.6931705"><ele>42.25</ele><time>2026-04-03T16:22:41.7Z</time></trkpt><trkpt lat="45.9841542" lon="12.6932872"><ele>42.0</ele><time>2026-04-03T16:22:42.7Z</time></trkpt><trkpt lat="45.9842284" lon="12.6934016"><ele>42.0</ele><time>2026-04-03T16:22:43.7Z</time></trkpt><trkpt lat="45.9843052" lon="12.6935188"><ele>42.0</ele><time>2026-04-03T16:22:44.699Z</time></trkpt><trkpt lat="45.9843853" lon="12.6936438"><ele>42.0</ele><time>2026-04-03T16:22:45.701Z</time></trkpt><trkpt lat="45.984463" lon="12.6937778"><ele>42.0</ele><time>2026-04-03T16:22:46.701Z</time></trkpt><trkpt lat="45.9845441" lon="12.6939092"><ele>41.6</ele><time>2026-04-03T16:22:47.699Z</time></trkpt><trkpt lat="45.9846198" lon="12.6940312"><ele>41.2</ele><time>2026-04-03T16:22:48.699Z</time></trkpt><trkpt lat="45.9846907" lon="12.6941407"><ele>40.8</ele><time>2026-04-03T16:22:49.7Z</time></trkpt><trkpt lat="45.9847524" lon="12.6942371"><ele>40.4</ele><time>2026-04-03T16:22:50.7Z</time></trkpt><trkpt lat="45.9848063" lon="12.6943169"><ele>40.0</ele><time>2026-04-03T16:22:51.699Z</time></trkpt><trkpt lat="45.9848595" lon="12.6943838"><ele>40.2</ele><time>2026-04-03T16:22:52.7Z</time></trkpt><trkpt lat="45.9849104" lon="12.694461"><ele>40.4</ele><time>2026-04-03T16:22:53.699Z</time></trkpt><trkpt lat="45.9849536" lon="12.6945601"><ele>40.599999999999994</ele><time>2026-04-03T16:22:54.7Z</time></trkpt><trkpt lat="45.9850149" lon="12.6946535"><ele>40.8</ele><time>2026-04-03T16:22:55.699Z</time></trkpt><trkpt lat="45.9850959" lon="12.6947368"><ele>41.0</ele><time>2026-04-03T16:22:56.699Z</time></trkpt><trkpt lat="45.9851956" lon="12.6947955"><ele>41.199999999999996</ele><time>2026-04-03T16:22:57.7Z</time></trkpt><trkpt lat="45.985303" lon="12.6948242"><ele>41.4</ele><time>2026-04-03T16:22:58.701Z</time></trkpt><trkpt lat="45.9854069" lon="12.6948338"><ele>41.6</ele><time>2026-04-03T16:22:59.701Z</time></trkpt><trkpt lat="45.9855044" lon="12.6948325"><ele>41.8</ele><time>2026-04-03T16:23:00.7Z</time></trkpt><trkpt lat="45.9855998" lon="12.6948194"><ele>42.0</ele><time>2026-04-03T16:23:01.699Z</time></trkpt><trkpt lat="45.9856874" lon="12.694806"><ele>42.0</ele><time>2026-04-03T16:23:02.699Z</time></trkpt><trkpt lat="45.9857673" lon="12.6948075"><ele>42.0</ele><time>2026-04-03T16:23:03.701Z</time></trkpt><trkpt lat="45.9858371" lon="12.6948435"><ele>42.0</ele><time>2026-04-03T16:23:04.7Z</time></trkpt><trkpt lat="45.9858926" lon="12.6949251"><ele>42.0</ele><time>2026-04-03T16:23:05.7Z</time></trkpt><trkpt lat="45.9859512" lon="12.6950398"><ele>42.0</ele><time>2026-04-03T16:23:06.7Z</time></trkpt><trkpt lat="45.9860163" lon="12.6951645"><ele>42.0</ele><time>2026-04-03T16:23:07.701Z</time></trkpt><trkpt lat="45.986079" lon="12.6952859"><ele>42.2</ele><time>2026-04-03T16:23:08.7Z</time></trkpt><trkpt lat="45.9861443" lon="12.6954094"><ele>42.400000000000006</ele><time>2026-04-03T16:23:09.699Z</time></trkpt><trkpt lat="45.9862076" lon="12.6955319"><ele>42.599999999999994</ele><time>2026-04-03T16:23:10.7Z</time></trkpt><trkpt lat="45.9862681" lon="12.6956394"><ele>42.8</ele><time>2026-04-03T16:23:11.7Z</time></trkpt><trkpt lat="45.9863181" lon="12.6957315"><ele>43.0</ele><time>2026-04-03T16:23:12.7Z</time></trkpt><trkpt lat="45.9863818" lon="12.6958781"><ele>43.0</ele><time>2026-04-03T16:23:14.7Z</time></trkpt><trkpt lat="45.9864826" lon="12.6960011"><ele>43.0</ele><time>2026-04-03T16:23:16.699Z</time></trkpt><trkpt lat="45.9865714" lon="12.6960326"><ele>43.0</ele><time>2026-04-03T16:23:17.7Z</time></trkpt><trkpt lat="45.9866767" lon="12.6960564"><ele>43.0</ele><time>2026-04-03T16:23:18.7Z</time></trkpt><trkpt lat="45.9867989" lon="12.6960754"><ele>43.25</ele><time>2026-04-03T16:23:19.7Z</time></trkpt><trkpt lat="45.9869174" lon="12.6960888"><ele>43.5</ele><time>2026-04-03T16:23:20.7Z</time></trkpt><trkpt lat="45.987038" lon="12.6961012"><ele>43.75</ele><time>2026-04-03T16:23:21.699Z</time></trkpt><trkpt lat="45.9871601" lon="12.6961149"><ele>44.0</ele><time>2026-04-03T16:23:22.7Z</time></trkpt><trkpt lat="45.9872736" lon="12.6961258"><ele>44.0</ele><time>2026-04-03T16:23:23.699Z</time></trkpt><trkpt lat="45.9873865" lon="12.6961293"><ele>44.0</ele><time>2026-04-03T16:23:24.7Z</time></trkpt><trkpt lat="45.9874959" lon="12.6961541"><ele>44.0</ele><time>2026-04-03T16:23:25.7Z</time></trkpt><trkpt lat="45.9876001" lon="12.6962131"><ele>44.0</ele><time>2026-04-03T16:23:26.699Z</time></trkpt><trkpt lat="45.9876959" lon="12.6963028"><ele>44.25</ele><time>2026-04-03T16:23:27.7Z</time></trkpt><trkpt lat="45.987785" lon="12.6964162"><ele>44.5</ele><time>2026-04-03T16:23:28.699Z</time></trkpt><trkpt lat="45.9878689" lon="12.6965465"><ele>44.75</ele><time>2026-04-03T16:23:29.7Z</time></trkpt><trkpt lat="45.987944" lon="12.6966936"><ele>45.0</ele><time>2026-04-03T16:23:30.7Z</time></trkpt><trkpt lat="45.9880073" lon="12.6968552"><ele>44.5</ele><time>2026-04-03T16:23:31.699Z</time></trkpt><trkpt lat="45.9880615" lon="12.6970269"><ele>44.0</ele><time>2026-04-03T16:23:32.699Z</time></trkpt><trkpt lat="45.9881059" lon="12.6972083"><ele>43.5</ele><time>2026-04-03T16:23:33.7Z</time></trkpt><trkpt lat="45.9881511" lon="12.6973965"><ele>43.0</ele><time>2026-04-03T16:23:34.699Z</time></trkpt><trkpt lat="45.9881931" lon="12.697591"><ele>43.0</ele><time>2026-04-03T16:23:35.7Z</time></trkpt><trkpt lat="45.9882393" lon="12.6977797"><ele>43.0</ele><time>2026-04-03T16:23:36.7Z</time></trkpt><trkpt lat="45.9882813" lon="12.6979613"><ele>43.0</ele><time>2026-04-03T16:23:37.7Z</time></trkpt><trkpt lat="45.9883208" lon="12.698145"><ele>43.0</ele><time>2026-04-03T16:23:38.7Z</time></trkpt><trkpt lat="45.9883621" lon="12.6983291"><ele>43.0</ele><time>2026-04-03T16:23:39.701Z</time></trkpt><trkpt lat="45.9884013" lon="12.6984982"><ele>43.0</ele><time>2026-04-03T16:23:40.7Z</time></trkpt><trkpt lat="45.9884501" lon="12.6986546"><ele>43.0</ele><time>2026-04-03T16:23:41.701Z</time></trkpt><trkpt lat="45.9885093" lon="12.6987965"><ele>43.0</ele><time>2026-04-03T16:23:42.699Z</time></trkpt><trkpt lat="45.9885738" lon="12.6989186"><ele>43.0</ele><time>2026-04-03T16:23:43.701Z</time></trkpt><trkpt lat="45.9886505" lon="12.6990385"><ele>43.0</ele><time>2026-04-03T16:23:44.7Z</time></trkpt><trkpt lat="45.9887372" lon="12.6991684"><ele>43.0</ele><time>2026-04-03T16:23:45.699Z</time></trkpt><trkpt lat="45.9888272" lon="12.6993077"><ele>43.0</ele><time>2026-04-03T16:23:46.699Z</time></trkpt><trkpt lat="45.9889191" lon="12.6994558"><ele>42.75</ele><time>2026-04-03T16:23:47.7Z</time></trkpt><trkpt lat="45.9890142" lon="12.6996061"><ele>42.5</ele><time>2026-04-03T16:23:48.701Z</time></trkpt><trkpt lat="45.989111" lon="12.6997637"><ele>42.25</ele><time>2026-04-03T16:23:49.7Z</time></trkpt><trkpt lat="45.9892033" lon="12.6999107"><ele>42.0</ele><time>2026-04-03T16:23:50.699Z</time></trkpt><trkpt lat="45.9892875" lon="12.7000491"><ele>42.25</ele><time>2026-04-03T16:23:51.699Z</time></trkpt><trkpt lat="45.9893697" lon="12.7001853"><ele>42.5</ele><time>2026-04-03T16:23:52.699Z</time></trkpt><trkpt lat="45.9894534" lon="12.7003244"><ele>42.75</ele><time>2026-04-03T16:23:53.7Z</time></trkpt><trkpt lat="45.9895388" lon="12.7004637"><ele>43.0</ele><time>2026-04-03T16:23:54.699Z</time></trkpt><trkpt lat="45.989627" lon="12.7006033"><ele>43.0</ele><time>2026-04-03T16:23:55.7Z</time></trkpt><trkpt lat="45.9897112" lon="12.7007469"><ele>43.0</ele><time>2026-04-03T16:23:56.7Z</time></trkpt><trkpt lat="45.9897971" lon="12.7008923"><ele>43.0</ele><time>2026-04-03T16:23:57.7Z</time></trkpt><trkpt lat="45.9898847" lon="12.7010334"><ele>43.0</ele><time>2026-04-03T16:23:58.699Z</time></trkpt><trkpt lat="45.9899698" lon="12.7011748"><ele>43.0</ele><time>2026-04-03T16:23:59.699Z</time></trkpt><trkpt lat="45.9900476" lon="12.7013066"><ele>43.0</ele><time>2026-04-03T16:24:00.7Z</time></trkpt><trkpt lat="45.9901154" lon="12.7014275"><ele>43.0</ele><time>2026-04-03T16:24:01.701Z</time></trkpt><trkpt lat="45.9901831" lon="12.701535"><ele>43.0</ele><time>2026-04-03T16:24:02.701Z</time></trkpt><trkpt lat="45.9902375" lon="12.7016232"><ele>43.0</ele><time>2026-04-03T16:24:03.7Z</time></trkpt><trkpt lat="45.9903016" lon="12.7017331"><ele>43.0</ele><time>2026-04-03T16:24:05.7Z</time></trkpt><trkpt lat="45.9903401" lon="12.7018238"><ele>43.0</ele><time>2026-04-03T16:24:08.701Z</time></trkpt><trkpt lat="45.9904626" lon="12.7018517"><ele>43.0</ele><time>2026-04-03T16:24:22.7Z</time></trkpt><trkpt lat="45.9905275" lon="12.7018335"><ele>43.0</ele><time>2026-04-03T16:24:23.699Z</time></trkpt><trkpt lat="45.9906046" lon="12.7018057"><ele>43.0</ele><time>2026-04-03T16:24:24.7Z</time></trkpt><trkpt lat="45.9906856" lon="12.7017757"><ele>43.0</ele><time>2026-04-03T16:24:25.7Z</time></trkpt><trkpt lat="45.990761" lon="12.7017427"><ele>43.0</ele><time>2026-04-03T16:24:26.7Z</time></trkpt><trkpt lat="45.9908285" lon="12.7017165"><ele>43.0</ele><time>2026-04-03T16:24:27.7Z</time></trkpt><trkpt lat="45.9909554" lon="12.7016892"><ele>43.0</ele><time>2026-04-03T16:24:29.7Z</time></trkpt><trkpt lat="45.9910244" lon="12.701691"><ele>43.0</ele><time>2026-04-03T16:24:30.699Z</time></trkpt><trkpt lat="45.9911277" lon="12.7018057"><ele>43.0</ele><time>2026-04-03T16:24:32.7Z</time></trkpt><trkpt lat="45.9911703" lon="12.7019202"><ele>43.75</ele><time>2026-04-03T16:24:33.699Z</time></trkpt><trkpt lat="45.9912248" lon="12.7020524"><ele>44.5</ele><time>2026-04-03T16:24:34.7Z</time></trkpt><trkpt lat="45.9912815" lon="12.7021859"><ele>45.25</ele><time>2026-04-03T16:24:35.699Z</time></trkpt><trkpt lat="45.9913404" lon="12.7023307"><ele>46.0</ele><time>2026-04-03T16:24:36.7Z</time></trkpt><trkpt lat="45.9913999" lon="12.7024782"><ele>46.0</ele><time>2026-04-03T16:24:37.699Z</time></trkpt><trkpt lat="45.9914608" lon="12.702631"><ele>46.0</ele><time>2026-04-03T16:24:38.701Z</time></trkpt><trkpt lat="45.9915254" lon="12.702792"><ele>46.0</ele><time>2026-04-03T16:24:39.7Z</time></trkpt><trkpt lat="45.991584" lon="12.7029543"><ele>46.0</ele><time>2026-04-03T16:24:40.699Z</time></trkpt><trkpt lat="45.9916475" lon="12.7031221"><ele>45.75</ele><time>2026-04-03T16:24:41.699Z</time></trkpt><trkpt lat="45.9917161" lon="12.7032942"><ele>45.5</ele><time>2026-04-03T16:24:42.699Z</time></trkpt><trkpt lat="45.9917926" lon="12.7034717"><ele>45.25</ele><time>2026-04-03T16:24:43.701Z</time></trkpt><trkpt lat="45.9918776" lon="12.7036458"><ele>45.0</ele><time>2026-04-03T16:24:44.7Z</time></trkpt><trkpt lat="45.9919713" lon="12.7038172"><ele>45.0</ele><time>2026-04-03T16:24:45.701Z</time></trkpt><trkpt lat="45.9920702" lon="12.7039831"><ele>45.0</ele><time>2026-04-03T16:24:46.7Z</time></trkpt><trkpt lat="45.9921784" lon="12.7041457"><ele>45.0</ele><time>2026-04-03T16:24:47.701Z</time></trkpt><trkpt lat="45.9922946" lon="12.704303"><ele>45.333333333333336</ele><time>2026-04-03T16:24:48.7Z</time></trkpt><trkpt lat="45.9924124" lon="12.7044573"><ele>45.66666666666667</ele><time>2026-04-03T16:24:49.699Z</time></trkpt><trkpt lat="45.9925317" lon="12.704594"><ele>46.0</ele><time>2026-04-03T16:24:50.7Z</time></trkpt><trkpt lat="45.9926477" lon="12.7047213"><ele>46.0</ele><time>2026-04-03T16:24:51.7Z</time></trkpt><trkpt lat="45.9927676" lon="12.7048494"><ele>46.0</ele><time>2026-04-03T16:24:52.7Z</time></trkpt><trkpt lat="45.9928885" lon="12.7049756"><ele>46.0</ele><time>2026-04-03T16:24:53.7Z</time></trkpt><trkpt lat="45.9930114" lon="12.705102"><ele>46.0</ele><time>2026-04-03T16:24:54.7Z</time></trkpt><trkpt lat="45.9931326" lon="12.7052272"><ele>46.0</ele><time>2026-04-03T16:24:55.701Z</time></trkpt><trkpt lat="45.9932512" lon="12.7053594"><ele>46.0</ele><time>2026-04-03T16:24:56.7Z</time></trkpt><trkpt lat="45.993364" lon="12.7054836"><ele>46.0</ele><time>2026-04-03T16:24:57.7Z</time></trkpt><trkpt lat="45.9934686" lon="12.7055994"><ele>46.0</ele><time>2026-04-03T16:24:58.699Z</time></trkpt><trkpt lat="45.9935671" lon="12.7057119"><ele>46.0</ele><time>2026-04-03T16:24:59.7Z</time></trkpt><trkpt lat="45.993657" lon="12.7058264"><ele>46.0</ele><time>2026-04-03T16:25:00.7Z</time></trkpt><trkpt lat="45.9937385" lon="12.7059578"><ele>46.0</ele><time>2026-04-03T16:25:01.699Z</time></trkpt><trkpt lat="45.9938074" lon="12.7061106"><ele>46.0</ele><time>2026-04-03T16:25:02.701Z</time></trkpt><trkpt lat="45.9938673" lon="12.7062894"><ele>46.0</ele><time>2026-04-03T16:25:03.7Z</time></trkpt><trkpt lat="45.9939302" lon="12.7064782"><ele>46.0</ele><time>2026-04-03T16:25:04.7Z</time></trkpt><trkpt lat="45.9939973" lon="12.7066756"><ele>46.0</ele><time>2026-04-03T16:25:05.699Z</time></trkpt><trkpt lat="45.9940637" lon="12.706875"><ele>46.25</ele><time>2026-04-03T16:25:06.699Z</time></trkpt><trkpt lat="45.9941248" lon="12.7070601"><ele>46.5</ele><time>2026-04-03T16:25:07.7Z</time></trkpt><trkpt lat="45.9941769" lon="12.7072344"><ele>46.75</ele><time>2026-04-03T16:25:08.699Z</time></trkpt><trkpt lat="45.9942231" lon="12.7073997"><ele>47.0</ele><time>2026-04-03T16:25:09.7Z</time></trkpt><trkpt lat="45.9942659" lon="12.7075571"><ele>47.2</ele><time>2026-04-03T16:25:10.7Z</time></trkpt><trkpt lat="45.9943062" lon="12.7077106"><ele>47.400000000000006</ele><time>2026-04-03T16:25:11.699Z</time></trkpt><trkpt lat="45.9943428" lon="12.7078589"><ele>47.599999999999994</ele><time>2026-04-03T16:25:12.7Z</time></trkpt><trkpt lat="45.9943762" lon="12.7079995"><ele>47.8</ele><time>2026-04-03T16:25:13.7Z</time></trkpt><trkpt lat="45.9944043" lon="12.7081236"><ele>48.0</ele><time>2026-04-03T16:25:14.7Z</time></trkpt><trkpt lat="45.9944277" lon="12.7082345"><ele>48.0</ele><time>2026-04-03T16:25:15.7Z</time></trkpt><trkpt lat="45.9944437" lon="12.7083223"><ele>48.0</ele><time>2026-04-03T16:25:16.699Z</time></trkpt><trkpt lat="45.9944544" lon="12.7084648"><ele>48.0</ele><time>2026-04-03T16:25:18.7Z</time></trkpt><trkpt lat="45.9944641" lon="12.7085553"><ele>48.0</ele><time>2026-04-03T16:25:19.7Z</time></trkpt><trkpt lat="45.9944898" lon="12.7086735"><ele>48.0</ele><time>2026-04-03T16:25:20.7Z</time></trkpt><trkpt lat="45.9945218" lon="12.7088078"><ele>48.0</ele><time>2026-04-03T16:25:21.7Z</time></trkpt><trkpt lat="45.9945564" lon="12.708956"><ele>48.25</ele><time>2026-04-03T16:25:22.699Z</time></trkpt><trkpt lat="45.9945913" lon="12.709103"><ele>48.5</ele><time>2026-04-03T16:25:23.699Z</time></trkpt><trkpt lat="45.9946302" lon="12.7092551"><ele>48.75</ele><time>2026-04-03T16:25:24.7Z</time></trkpt><trkpt lat="45.9946724" lon="12.7094142"><ele>49.0</ele><time>2026-04-03T16:25:25.7Z</time></trkpt><trkpt lat="45.9947149" lon="12.7095805"><ele>48.5</ele><time>2026-04-03T16:25:26.699Z</time></trkpt><trkpt lat="45.994756" lon="12.7097488"><ele>48.0</ele><time>2026-04-03T16:25:27.7Z</time></trkpt><trkpt lat="45.9947915" lon="12.7099122"><ele>47.5</ele><time>2026-04-03T16:25:28.699Z</time></trkpt><trkpt lat="45.9948251" lon="12.7100737"><ele>47.0</ele><time>2026-04-03T16:25:29.699Z</time></trkpt><trkpt lat="45.9948552" lon="12.7102263"><ele>47.0</ele><time>2026-04-03T16:25:30.7Z</time></trkpt><trkpt lat="45.9948856" lon="12.7103724"><ele>47.0</ele><time>2026-04-03T16:25:31.701Z</time></trkpt><trkpt lat="45.9949131" lon="12.7105056"><ele>47.0</ele><time>2026-04-03T16:25:32.699Z</time></trkpt><trkpt lat="45.9949376" lon="12.7106144"><ele>47.0</ele><time>2026-04-03T16:25:33.7Z</time></trkpt><trkpt lat="45.9949476" lon="12.7107045"><ele>47.0</ele><time>2026-04-03T16:25:34.7Z</time></trkpt><trkpt lat="45.9949161" lon="12.7108511"><ele>47.0</ele><time>2026-04-03T16:25:36.699Z</time></trkpt><trkpt lat="45.9949747" lon="12.7109862"><ele>47.0</ele><time>2026-04-03T16:25:38.7Z</time></trkpt><trkpt lat="45.9950426" lon="12.711048"><ele>47.0</ele><time>2026-04-03T16:25:39.699Z</time></trkpt><trkpt lat="45.9951175" lon="12.7111395"><ele>47.0</ele><time>2026-04-03T16:25:40.699Z</time></trkpt><trkpt lat="45.9951994" lon="12.7112505"><ele>47.0</ele><time>2026-04-03T16:25:41.701Z</time></trkpt><trkpt lat="45.9952912" lon="12.7113617"><ele>47.75</ele><time>2026-04-03T16:25:42.7Z</time></trkpt><trkpt lat="45.9953933" lon="12.7114756"><ele>48.5</ele><time>2026-04-03T16:25:43.7Z</time></trkpt><trkpt lat="45.9954938" lon="12.7115806"><ele>49.25</ele><time>2026-04-03T16:25:44.699Z</time></trkpt><trkpt lat="45.9956044" lon="12.7116883"><ele>50.0</ele><time>2026-04-03T16:25:45.699Z</time></trkpt><trkpt lat="45.9957184" lon="12.7118033"><ele>50.66666666666667</ele><time>2026-04-03T16:25:46.7Z</time></trkpt><trkpt lat="45.995839" lon="12.7119241"><ele>51.33333333333333</ele><time>2026-04-03T16:25:47.7Z</time></trkpt><trkpt lat="45.9959654" lon="12.7120452"><ele>52.0</ele><time>2026-04-03T16:25:48.699Z</time></trkpt><trkpt lat="45.9960959" lon="12.7121705"><ele>52.0</ele><time>2026-04-03T16:25:49.7Z</time></trkpt><trkpt lat="45.996225" lon="12.7122877"><ele>52.0</ele><time>2026-04-03T16:25:50.699Z</time></trkpt><trkpt lat="45.99635" lon="12.7123978"><ele>52.0</ele><time>2026-04-03T16:25:51.7Z</time></trkpt><trkpt lat="45.996456" lon="12.7124964"><ele>52.0</ele><time>2026-04-03T16:25:52.7Z</time></trkpt><trkpt lat="45.9965575" lon="12.7125889"><ele>52.0</ele><time>2026-04-03T16:25:53.699Z</time></trkpt><trkpt lat="45.9966523" lon="12.7126723"><ele>52.0</ele><time>2026-04-03T16:25:54.699Z</time></trkpt><trkpt lat="45.9967301" lon="12.7127362"><ele>52.0</ele><time>2026-04-03T16:25:55.7Z</time></trkpt><trkpt lat="45.996793" lon="12.712797"><ele>52.0</ele><time>2026-04-03T16:25:56.699Z</time></trkpt><trkpt lat="45.9968144" lon="12.7129418"><ele>52.0</ele><time>2026-04-03T16:25:58.7Z</time></trkpt><trkpt lat="45.9967045" lon="12.7130466"><ele>51.5</ele><time>2026-04-03T16:26:00.7Z</time></trkpt><trkpt lat="45.9966183" lon="12.7131125"><ele>51.0</ele><time>2026-04-03T16:26:01.699Z</time></trkpt><trkpt lat="45.9965176" lon="12.7131848"><ele>50.5</ele><time>2026-04-03T16:26:02.7Z</time></trkpt><trkpt lat="45.9964092" lon="12.7132685"><ele>50.0</ele><time>2026-04-03T16:26:03.699Z</time></trkpt><trkpt lat="45.9963013" lon="12.7133498"><ele>50.0</ele><time>2026-04-03T16:26:04.7Z</time></trkpt><trkpt lat="45.9961873" lon="12.7134391"><ele>50.0</ele><time>2026-04-03T16:26:05.7Z</time></trkpt><trkpt lat="45.9960671" lon="12.7135341"><ele>50.0</ele><time>2026-04-03T16:26:06.699Z</time></trkpt><trkpt lat="45.9959427" lon="12.7136304"><ele>50.0</ele><time>2026-04-03T16:26:07.699Z</time></trkpt><trkpt lat="45.9958213" lon="12.7137249"><ele>50.0</ele><time>2026-04-03T16:26:08.699Z</time></trkpt><trkpt lat="45.9956991" lon="12.7138226"><ele>50.0</ele><time>2026-04-03T16:26:09.699Z</time></trkpt><trkpt lat="45.9955743" lon="12.7139227"><ele>50.0</ele><time>2026-04-03T16:26:10.7Z</time></trkpt><trkpt lat="45.9954468" lon="12.7140229"><ele>50.0</ele><time>2026-04-03T16:26:11.7Z</time></trkpt><trkpt lat="45.9953131" lon="12.7141226"><ele>50.0</ele><time>2026-04-03T16:26:12.7Z</time></trkpt><trkpt lat="45.9951784" lon="12.7142226"><ele>50.0</ele><time>2026-04-03T16:26:13.699Z</time></trkpt><trkpt lat="45.9950426" lon="12.7143231"><ele>50.0</ele><time>2026-04-03T16:26:14.7Z</time></trkpt><trkpt lat="45.994912" lon="12.7144248"><ele>49.75</ele><time>2026-04-03T16:26:15.701Z</time></trkpt><trkpt lat="45.9947928" lon="12.7145207"><ele>49.5</ele><time>2026-04-03T16:26:16.7Z</time></trkpt><trkpt lat="45.9946761" lon="12.7146135"><ele>49.25</ele><time>2026-04-03T16:26:17.7Z</time></trkpt><trkpt lat="45.9945533" lon="12.7147119"><ele>49.0</ele><time>2026-04-03T16:26:18.701Z</time></trkpt><trkpt lat="45.9944256" lon="12.7148132"><ele>49.0</ele><time>2026-04-03T16:26:19.7Z</time></trkpt><trkpt lat="45.9942923" lon="12.7149129"><ele>49.0</ele><time>2026-04-03T16:26:20.7Z</time></trkpt><trkpt lat="45.994155" lon="12.7150144"><ele>49.0</ele><time>2026-04-03T16:26:21.699Z</time></trkpt><trkpt lat="45.9940146" lon="12.7151185"><ele>48.666666666666664</ele><time>2026-04-03T16:26:22.699Z</time></trkpt><trkpt lat="45.9938704" lon="12.7152189"><ele>48.33333333333333</ele><time>2026-04-03T16:26:23.7Z</time></trkpt><trkpt lat="45.9937241" lon="12.7153163"><ele>48.0</ele><time>2026-04-03T16:26:24.699Z</time></trkpt><trkpt lat="45.9935738" lon="12.7154091"><ele>47.0</ele><time>2026-04-03T16:26:25.7Z</time></trkpt><trkpt lat="45.993426" lon="12.7154966"><ele>46.0</ele><time>2026-04-03T16:26:26.699Z</time></trkpt><trkpt lat="45.9932832" lon="12.7155842"><ele>45.0</ele><time>2026-04-03T16:26:27.7Z</time></trkpt><trkpt lat="45.993145" lon="12.7156657"><ele>45.0</ele><time>2026-04-03T16:26:28.699Z</time></trkpt><trkpt lat="45.9930131" lon="12.7157402"><ele>45.0</ele><time>2026-04-03T16:26:29.7Z</time></trkpt><trkpt lat="45.9928877" lon="12.7158091"><ele>45.0</ele><time>2026-04-03T16:26:30.7Z</time></trkpt><trkpt lat="45.9927819" lon="12.7158672"><ele>45.0</ele><time>2026-04-03T16:26:31.7Z</time></trkpt><trkpt lat="45.9926823" lon="12.715914"><ele>45.0</ele><time>2026-04-03T16:26:32.701Z</time></trkpt><trkpt lat="45.9925897" lon="12.715953"><ele>45.0</ele><time>2026-04-03T16:26:33.7Z</time></trkpt><trkpt lat="45.9925029" lon="12.7159948"><ele>45.0</ele><time>2026-04-03T16:26:34.701Z</time></trkpt><trkpt lat="45.992424" lon="12.7160358"><ele>45.0</ele><time>2026-04-03T16:26:35.7Z</time></trkpt><trkpt lat="45.9923521" lon="12.7160747"><ele>45.0</ele><time>2026-04-03T16:26:36.7Z</time></trkpt><trkpt lat="45.9922863" lon="12.7161071"><ele>45.0</ele><time>2026-04-03T16:26:37.699Z</time></trkpt><trkpt lat="45.9921822" lon="12.7161606"><ele>44.833333333333336</ele><time>2026-04-03T16:26:39.701Z</time></trkpt><trkpt lat="45.9921197" lon="12.7162031"><ele>44.666666666666664</ele><time>2026-04-03T16:26:41.701Z</time></trkpt><trkpt lat="45.9920943" lon="12.7163132"><ele>44.5</ele><time>2026-04-03T16:27:05.699Z</time></trkpt><trkpt lat="45.992129" lon="12.7164632"><ele>44.33333333333333</ele><time>2026-04-03T16:27:07.7Z</time></trkpt><trkpt lat="45.9921568" lon="12.7165583"><ele>44.166666666666664</ele><time>2026-04-03T16:27:08.699Z</time></trkpt><trkpt lat="45.9921826" lon="12.7166553"><ele>44.0</ele><time>2026-04-03T16:27:09.7Z</time></trkpt><trkpt lat="45.9922145" lon="12.7167631"><ele>44.0</ele><time>2026-04-03T16:27:10.7Z</time></trkpt><trkpt lat="45.9922488" lon="12.7168818"><ele>44.0</ele><time>2026-04-03T16:27:11.699Z</time></trkpt><trkpt lat="45.9922895" lon="12.7170135"><ele>44.0</ele><time>2026-04-03T16:27:12.699Z</time></trkpt><trkpt lat="45.9923262" lon="12.7171454"><ele>44.0</ele><time>2026-04-03T16:27:13.7Z</time></trkpt><trkpt lat="45.9923666" lon="12.7172846"><ele>44.0</ele><time>2026-04-03T16:27:14.7Z</time></trkpt><trkpt lat="45.99241" lon="12.7174367"><ele>44.0</ele><time>2026-04-03T16:27:15.7Z</time></trkpt><trkpt lat="45.9924546" lon="12.7175946"><ele>44.0</ele><time>2026-04-03T16:27:16.7Z</time></trkpt><trkpt lat="45.9925004" lon="12.7177586"><ele>44.0</ele><time>2026-04-03T16:27:17.699Z</time></trkpt><trkpt lat="45.9925466" lon="12.7179239"><ele>44.0</ele><time>2026-04-03T16:27:18.701Z</time></trkpt><trkpt lat="45.9925878" lon="12.7180842"><ele>44.25</ele><time>2026-04-03T16:27:19.7Z</time></trkpt><trkpt lat="45.9926334" lon="12.718253"><ele>44.5</ele><time>2026-04-03T16:27:20.699Z</time></trkpt><trkpt lat="45.9926814" lon="12.7184212"><ele>44.75</ele><time>2026-04-03T16:27:21.7Z</time></trkpt><trkpt lat="45.9927311" lon="12.7185947"><ele>45.0</ele><time>2026-04-03T16:27:22.701Z</time></trkpt><trkpt lat="45.9927819" lon="12.7187738"><ele>45.0</ele><time>2026-04-03T16:27:23.7Z</time></trkpt><trkpt lat="45.9928329" lon="12.7189604"><ele>45.0</ele><time>2026-04-03T16:27:24.7Z</time></trkpt><trkpt lat="45.9928853" lon="12.7191548"><ele>45.0</ele><time>2026-04-03T16:27:25.7Z</time></trkpt><trkpt lat="45.992941" lon="12.7193565"><ele>45.0</ele><time>2026-04-03T16:27:26.699Z</time></trkpt><trkpt lat="45.9929971" lon="12.7195671"><ele>44.666666666666664</ele><time>2026-04-03T16:27:27.701Z</time></trkpt><trkpt lat="45.993056" lon="12.7197819"><ele>44.33333333333333</ele><time>2026-04-03T16:27:28.7Z</time></trkpt><trkpt lat="45.9931168" lon="12.7199999"><ele>44.0</ele><time>2026-04-03T16:27:29.701Z</time></trkpt><trkpt lat="45.9931786" lon="12.7202212"><ele>44.0</ele><time>2026-04-03T16:27:30.701Z</time></trkpt><trkpt lat="45.9932413" lon="12.7204361"><ele>44.0</ele><time>2026-04-03T16:27:31.7Z</time></trkpt><trkpt lat="45.9933003" lon="12.7206456"><ele>44.0</ele><time>2026-04-03T16:27:32.7Z</time></trkpt><trkpt lat="45.9933567" lon="12.7208553"><ele>44.0</ele><time>2026-04-03T16:27:33.699Z</time></trkpt><trkpt lat="45.9934117" lon="12.7210645"><ele>44.0</ele><time>2026-04-03T16:27:34.701Z</time></trkpt><trkpt lat="45.9934703" lon="12.7212734"><ele>44.0</ele><time>2026-04-03T16:27:35.7Z</time></trkpt><trkpt lat="45.9935281" lon="12.7214803"><ele>44.0</ele><time>2026-04-03T16:27:36.7Z</time></trkpt><trkpt lat="45.9935866" lon="12.7216879"><ele>44.0</ele><time>2026-04-03T16:27:37.7Z</time></trkpt><trkpt lat="45.9936433" lon="12.7218945"><ele>44.0</ele><time>2026-04-03T16:27:38.7Z</time></trkpt><trkpt lat="45.9937" lon="12.722104"><ele>44.0</ele><time>2026-04-03T16:27:39.7Z</time></trkpt><trkpt lat="45.9937547" lon="12.7223129"><ele>44.0</ele><time>2026-04-03T16:27:40.699Z</time></trkpt><trkpt lat="45.9938087" lon="12.7225255"><ele>44.0</ele><time>2026-04-03T16:27:41.7Z</time></trkpt><trkpt lat="45.9938585" lon="12.7227363"><ele>43.666666666666664</ele><time>2026-04-03T16:27:42.7Z</time></trkpt><trkpt lat="45.9939035" lon="12.7229517"><ele>43.333333333333336</ele><time>2026-04-03T16:27:43.699Z</time></trkpt><trkpt lat="45.9939451" lon="12.7231675"><ele>43.0</ele><time>2026-04-03T16:27:44.7Z</time></trkpt><trkpt lat="45.993986" lon="12.7233734"><ele>42.75</ele><time>2026-04-03T16:27:45.7Z</time></trkpt><trkpt lat="45.9940276" lon="12.7235653"><ele>42.5</ele><time>2026-04-03T16:27:46.7Z</time></trkpt><trkpt lat="45.9940706" lon="12.7237448"><ele>42.25</ele><time>2026-04-03T16:27:47.7Z</time></trkpt><trkpt lat="45.994115" lon="12.7239156"><ele>42.0</ele><time>2026-04-03T16:27:48.7Z</time></trkpt><trkpt lat="45.9941569" lon="12.7240786"><ele>41.8</ele><time>2026-04-03T16:27:49.7Z</time></trkpt><trkpt lat="45.9941915" lon="12.7242157"><ele>41.6</ele><time>2026-04-03T16:27:50.699Z</time></trkpt><trkpt lat="45.9942171" lon="12.724332"><ele>41.4</ele><time>2026-04-03T16:27:51.699Z</time></trkpt><trkpt lat="45.9942334" lon="12.7244407"><ele>41.199999999999996</ele><time>2026-04-03T16:27:52.699Z</time></trkpt><trkpt lat="45.9942461" lon="12.7245728"><ele>41.0</ele><time>2026-04-03T16:27:53.7Z</time></trkpt><trkpt lat="45.99426" lon="12.724722"><ele>41.0</ele><time>2026-04-03T16:27:54.699Z</time></trkpt><trkpt lat="45.9942752" lon="12.7248601"><ele>41.0</ele><time>2026-04-03T16:27:55.701Z</time></trkpt><trkpt lat="45.9942922" lon="12.7250133"><ele>41.0</ele><time>2026-04-03T16:27:56.699Z</time></trkpt><trkpt lat="45.9943148" lon="12.7251802"><ele>41.0</ele><time>2026-04-03T16:27:57.699Z</time></trkpt><trkpt lat="45.9943414" lon="12.7253543"><ele>41.0</ele><time>2026-04-03T16:27:58.7Z</time></trkpt><trkpt lat="45.9943699" lon="12.7255296"><ele>41.75</ele><time>2026-04-03T16:27:59.7Z</time></trkpt><trkpt lat="45.9943982" lon="12.7257127"><ele>42.5</ele><time>2026-04-03T16:28:00.699Z</time></trkpt><trkpt lat="45.9944273" lon="12.725891"><ele>43.25</ele><time>2026-04-03T16:28:01.698Z</time></trkpt><trkpt lat="45.9944533" lon="12.7260707"><ele>44.0</ele><time>2026-04-03T16:28:02.698Z</time></trkpt><trkpt lat="45.9944767" lon="12.7262477"><ele>44.0</ele><time>2026-04-03T16:28:03.699Z</time></trkpt><trkpt lat="45.9944946" lon="12.7264119"><ele>44.0</ele><time>2026-04-03T16:28:04.699Z</time></trkpt><trkpt lat="45.99451" lon="12.7265644"><ele>44.0</ele><time>2026-04-03T16:28:05.698Z</time></trkpt><trkpt lat="45.9945145" lon="12.7267296"><ele>44.0</ele><time>2026-04-03T16:28:06.699Z</time></trkpt><trkpt lat="45.9945024" lon="12.7268944"><ele>43.6</ele><time>2026-04-03T16:28:07.698Z</time></trkpt><trkpt lat="45.9944787" lon="12.7270488"><ele>43.2</ele><time>2026-04-03T16:28:08.698Z</time></trkpt><trkpt lat="45.9944405" lon="12.7271922"><ele>42.800000000000004</ele><time>2026-04-03T16:28:09.7Z</time></trkpt><trkpt lat="45.9943944" lon="12.7273401"><ele>42.400000000000006</ele><time>2026-04-03T16:28:10.7Z</time></trkpt><trkpt lat="45.994351" lon="12.7274966"><ele>42.0</ele><time>2026-04-03T16:28:11.699Z</time></trkpt><trkpt lat="45.9943158" lon="12.7276625"><ele>42.25</ele><time>2026-04-03T16:28:12.699Z</time></trkpt><trkpt lat="45.9942883" lon="12.727835"><ele>42.5</ele><time>2026-04-03T16:28:13.699Z</time></trkpt><trkpt lat="45.9942669" lon="12.7280051"><ele>42.75</ele><time>2026-04-03T16:28:14.698Z</time></trkpt><trkpt lat="45.9942551" lon="12.7281647"><ele>43.0</ele><time>2026-04-03T16:28:15.698Z</time></trkpt><trkpt lat="45.9942583" lon="12.7283211"><ele>43.0</ele><time>2026-04-03T16:28:16.698Z</time></trkpt><trkpt lat="45.9942808" lon="12.7284833"><ele>43.0</ele><time>2026-04-03T16:28:17.699Z</time></trkpt><trkpt lat="45.9943095" lon="12.7286562"><ele>43.0</ele><time>2026-04-03T16:28:18.698Z</time></trkpt><trkpt lat="45.9943411" lon="12.7288394"><ele>43.0</ele><time>2026-04-03T16:28:19.699Z</time></trkpt><trkpt lat="45.9943766" lon="12.7290301"><ele>43.25</ele><time>2026-04-03T16:28:20.699Z</time></trkpt><trkpt lat="45.9944138" lon="12.7292152"><ele>43.5</ele><time>2026-04-03T16:28:21.698Z</time></trkpt><trkpt lat="45.9944513" lon="12.729406"><ele>43.75</ele><time>2026-04-03T16:28:22.698Z</time></trkpt><trkpt lat="45.9944874" lon="12.7296058"><ele>44.0</ele><time>2026-04-03T16:28:23.699Z</time></trkpt><trkpt lat="45.9945207" lon="12.729803"><ele>44.25</ele><time>2026-04-03T16:28:24.698Z</time></trkpt><trkpt lat="45.9945546" lon="12.7300015"><ele>44.5</ele><time>2026-04-03T16:28:25.699Z</time></trkpt><trkpt lat="45.9945868" lon="12.7301951"><ele>44.75</ele><time>2026-04-03T16:28:26.698Z</time></trkpt><trkpt lat="45.9946197" lon="12.7303799"><ele>45.0</ele><time>2026-04-03T16:28:27.7Z</time></trkpt><trkpt lat="45.9946483" lon="12.7305348"><ele>45.0</ele><time>2026-04-03T16:28:28.7Z</time></trkpt><trkpt lat="45.9946768" lon="12.7306996"><ele>45.0</ele><time>2026-04-03T16:28:29.698Z</time></trkpt><trkpt lat="45.9947077" lon="12.7308764"><ele>45.0</ele><time>2026-04-03T16:28:30.698Z</time></trkpt><trkpt lat="45.9947366" lon="12.7310635"><ele>45.0</ele><time>2026-04-03T16:28:31.698Z</time></trkpt><trkpt lat="45.9947614" lon="12.731255"><ele>45.0</ele><time>2026-04-03T16:28:32.698Z</time></trkpt><trkpt lat="45.9947816" lon="12.7314593"><ele>45.0</ele><time>2026-04-03T16:28:33.698Z</time></trkpt><trkpt lat="45.9947908" lon="12.7316692"><ele>45.0</ele><time>2026-04-03T16:28:34.698Z</time></trkpt><trkpt lat="45.9947963" lon="12.7318829"><ele>45.0</ele><time>2026-04-03T16:28:35.699Z</time></trkpt><trkpt lat="45.9948001" lon="12.7320883"><ele>44.75</ele><time>2026-04-03T16:28:36.699Z</time></trkpt><trkpt lat="45.9948021" lon="12.7322776"><ele>44.5</ele><time>2026-04-03T16:28:37.699Z</time></trkpt><trkpt lat="45.9947999" lon="12.7324635"><ele>44.25</ele><time>2026-04-03T16:28:38.699Z</time></trkpt><trkpt lat="45.9947965" lon="12.7326567"><ele>44.0</ele><time>2026-04-03T16:28:39.698Z</time></trkpt><trkpt lat="45.9947942" lon="12.7328519"><ele>44.0</ele><time>2026-04-03T16:28:40.698Z</time></trkpt><trkpt lat="45.9947896" lon="12.7330497"><ele>44.0</ele><time>2026-04-03T16:28:41.698Z</time></trkpt><trkpt lat="45.9947753" lon="12.7332394"><ele>44.0</ele><time>2026-04-03T16:28:42.698Z</time></trkpt><trkpt lat="45.9947582" lon="12.7334216"><ele>44.0</ele><time>2026-04-03T16:28:43.699Z</time></trkpt><trkpt lat="45.9947282" lon="12.7336022"><ele>43.75</ele><time>2026-04-03T16:28:44.699Z</time></trkpt><trkpt lat="45.9946831" lon="12.7337774"><ele>43.5</ele><time>2026-04-03T16:28:45.699Z</time></trkpt><trkpt lat="45.9946304" lon="12.7339567"><ele>43.25</ele><time>2026-04-03T16:28:46.7Z</time></trkpt><trkpt lat="45.9945721" lon="12.7341419"><ele>43.0</ele><time>2026-04-03T16:28:47.698Z</time></trkpt><trkpt lat="45.9945113" lon="12.7343329"><ele>42.5</ele><time>2026-04-03T16:28:48.698Z</time></trkpt><trkpt lat="45.9944544" lon="12.7345202"><ele>42.0</ele><time>2026-04-03T16:28:49.699Z</time></trkpt><trkpt lat="45.9944128" lon="12.7347012"><ele>41.5</ele><time>2026-04-03T16:28:50.698Z</time></trkpt><trkpt lat="45.994373" lon="12.7348921"><ele>41.0</ele><time>2026-04-03T16:28:51.699Z</time></trkpt><trkpt lat="45.9943397" lon="12.7350825"><ele>41.0</ele><time>2026-04-03T16:28:52.698Z</time></trkpt><trkpt lat="45.9943094" lon="12.7352761"><ele>41.0</ele><time>2026-04-03T16:28:53.699Z</time></trkpt><trkpt lat="45.9942806" lon="12.7354734"><ele>41.0</ele><time>2026-04-03T16:28:54.699Z</time></trkpt><trkpt lat="45.9942545" lon="12.7356694"><ele>41.0</ele><time>2026-04-03T16:28:55.698Z</time></trkpt><trkpt lat="45.9942277" lon="12.7358717"><ele>41.25</ele><time>2026-04-03T16:28:56.698Z</time></trkpt><trkpt lat="45.9942007" lon="12.7360656"><ele>41.5</ele><time>2026-04-03T16:28:57.698Z</time></trkpt><trkpt lat="45.9941729" lon="12.7362521"><ele>41.75</ele><time>2026-04-03T16:28:58.698Z</time></trkpt><trkpt lat="45.994145" lon="12.736424"><ele>42.0</ele><time>2026-04-03T16:28:59.698Z</time></trkpt><trkpt lat="45.9941192" lon="12.7365794"><ele>42.0</ele><time>2026-04-03T16:29:00.698Z</time></trkpt><trkpt lat="45.9941038" lon="12.7367423"><ele>42.0</ele><time>2026-04-03T16:29:01.7Z</time></trkpt><trkpt lat="45.994098" lon="12.7369054"><ele>42.0</ele><time>2026-04-03T16:29:02.699Z</time></trkpt><trkpt lat="45.9941096" lon="12.737063"><ele>42.0</ele><time>2026-04-03T16:29:03.699Z</time></trkpt><trkpt lat="45.994134" lon="12.7372233"><ele>42.0</ele><time>2026-04-03T16:29:04.699Z</time></trkpt><trkpt lat="45.9941737" lon="12.7373902"><ele>42.0</ele><time>2026-04-03T16:29:05.698Z</time></trkpt><trkpt lat="45.9942248" lon="12.7375645"><ele>42.0</ele><time>2026-04-03T16:29:06.699Z</time></trkpt><trkpt lat="45.9942815" lon="12.7377487"><ele>42.0</ele><time>2026-04-03T16:29:07.698Z</time></trkpt><trkpt lat="45.9943425" lon="12.7379415"><ele>41.75</ele><time>2026-04-03T16:29:08.698Z</time></trkpt><trkpt lat="45.9944008" lon="12.7381424"><ele>41.5</ele><time>2026-04-03T16:29:09.698Z</time></trkpt><trkpt lat="45.9944522" lon="12.738331"><ele>41.25</ele><time>2026-04-03T16:29:10.7Z</time></trkpt><trkpt lat="45.9944951" lon="12.7385089"><ele>41.0</ele><time>2026-04-03T16:29:11.699Z</time></trkpt><trkpt lat="45.994525" lon="12.7386712"><ele>41.0</ele><time>2026-04-03T16:29:12.699Z</time></trkpt><trkpt lat="45.9945423" lon="12.7388341"><ele>41.0</ele><time>2026-04-03T16:29:13.698Z</time></trkpt><trkpt lat="45.9945383" lon="12.7390024"><ele>41.0</ele><time>2026-04-03T16:29:14.698Z</time></trkpt><trkpt lat="45.9945203" lon="12.7391817"><ele>41.0</ele><time>2026-04-03T16:29:15.699Z</time></trkpt><trkpt lat="45.9945013" lon="12.739373"><ele>41.0</ele><time>2026-04-03T16:29:16.698Z</time></trkpt><trkpt lat="45.9944814" lon="12.7395713"><ele>41.0</ele><time>2026-04-03T16:29:17.698Z</time></trkpt><trkpt lat="45.9944624" lon="12.7397796"><ele>41.0</ele><time>2026-04-03T16:29:18.698Z</time></trkpt><trkpt lat="45.9944446" lon="12.7399775"><ele>41.0</ele><time>2026-04-03T16:29:19.698Z</time></trkpt><trkpt lat="45.9944279" lon="12.7401579"><ele>41.0</ele><time>2026-04-03T16:29:20.698Z</time></trkpt><trkpt lat="45.9944095" lon="12.7403211"><ele>41.0</ele><time>2026-04-03T16:29:21.699Z</time></trkpt><trkpt lat="45.9943966" lon="12.7404628"><ele>41.0</ele><time>2026-04-03T16:29:22.699Z</time></trkpt><trkpt lat="45.9943829" lon="12.7405915"><ele>41.0</ele><time>2026-04-03T16:29:23.699Z</time></trkpt><trkpt lat="45.9943696" lon="12.7407126"><ele>41.0</ele><time>2026-04-03T16:29:24.699Z</time></trkpt><trkpt lat="45.9943634" lon="12.7408283"><ele>41.0</ele><time>2026-04-03T16:29:25.699Z</time></trkpt><trkpt lat="45.9943493" lon="12.7409394"><ele>41.0</ele><time>2026-04-03T16:29:26.698Z</time></trkpt><trkpt lat="45.9943324" lon="12.7410667"><ele>41.0</ele><time>2026-04-03T16:29:27.699Z</time></trkpt><trkpt lat="45.9943167" lon="12.7412205"><ele>41.0</ele><time>2026-04-03T16:29:28.698Z</time></trkpt><trkpt lat="45.9943024" lon="12.7413892"><ele>41.0</ele><time>2026-04-03T16:29:29.698Z</time></trkpt><trkpt lat="45.9942892" lon="12.7415714"><ele>41.25</ele><time>2026-04-03T16:29:30.698Z</time></trkpt><trkpt lat="45.9942774" lon="12.7417682"><ele>41.5</ele><time>2026-04-03T16:29:31.698Z</time></trkpt><trkpt lat="45.9942612" lon="12.7419766"><ele>41.75</ele><time>2026-04-03T16:29:32.698Z</time></trkpt><trkpt lat="45.9942415" lon="12.7421885"><ele>42.0</ele><time>2026-04-03T16:29:33.698Z</time></trkpt><trkpt lat="45.9942259" lon="12.7423867"><ele>42.25</ele><time>2026-04-03T16:29:34.7Z</time></trkpt><trkpt lat="45.9942116" lon="12.7425711"><ele>42.5</ele><time>2026-04-03T16:29:35.699Z</time></trkpt><trkpt lat="45.9941974" lon="12.7427529"><ele>42.75</ele><time>2026-04-03T16:29:36.698Z</time></trkpt><trkpt lat="45.9941862" lon="12.7429346"><ele>43.0</ele><time>2026-04-03T16:29:37.699Z</time></trkpt><trkpt lat="45.9941748" lon="12.7431143"><ele>43.25</ele><time>2026-04-03T16:29:38.698Z</time></trkpt><trkpt lat="45.994163" lon="12.7432944"><ele>43.5</ele><time>2026-04-03T16:29:39.699Z</time></trkpt><trkpt lat="45.994153" lon="12.743477"><ele>43.75</ele><time>2026-04-03T16:29:40.698Z</time></trkpt><trkpt lat="45.9941404" lon="12.7436605"><ele>44.0</ele><time>2026-04-03T16:29:41.699Z</time></trkpt><trkpt lat="45.9941352" lon="12.7438382"><ele>43.6</ele><time>2026-04-03T16:29:42.699Z</time></trkpt><trkpt lat="45.9941352" lon="12.743999"><ele>43.2</ele><time>2026-04-03T16:29:43.698Z</time></trkpt><trkpt lat="45.9941351" lon="12.7441599"><ele>42.800000000000004</ele><time>2026-04-03T16:29:44.699Z</time></trkpt><trkpt lat="45.9941366" lon="12.7443119"><ele>42.400000000000006</ele><time>2026-04-03T16:29:45.698Z</time></trkpt><trkpt lat="45.9941422" lon="12.7444544"><ele>42.0</ele><time>2026-04-03T16:29:46.698Z</time></trkpt><trkpt lat="45.994152" lon="12.7445842"><ele>42.0</ele><time>2026-04-03T16:29:47.698Z</time></trkpt><trkpt lat="45.9941597" lon="12.7447052"><ele>42.0</ele><time>2026-04-03T16:29:48.699Z</time></trkpt><trkpt lat="45.994164" lon="12.7448203"><ele>42.0</ele><time>2026-04-03T16:29:49.7Z</time></trkpt><trkpt lat="45.9941628" lon="12.7449237"><ele>42.0</ele><time>2026-04-03T16:29:50.699Z</time></trkpt><trkpt lat="45.9941348" lon="12.7450936"><ele>42.0</ele><time>2026-04-03T16:29:52.699Z</time></trkpt><trkpt lat="45.9940672" lon="12.7452139"><ele>42.0</ele><time>2026-04-03T16:29:54.698Z</time></trkpt><trkpt lat="45.9939709" lon="12.7452647"><ele>42.0</ele><time>2026-04-03T16:29:56.7Z</time></trkpt><trkpt lat="45.9938948" lon="12.7452734"><ele>42.0</ele><time>2026-04-03T16:29:57.7Z</time></trkpt><trkpt lat="45.9938018" lon="12.7452874"><ele>42.0</ele><time>2026-04-03T16:29:58.7Z</time></trkpt><trkpt lat="45.9936966" lon="12.7453084"><ele>42.0</ele><time>2026-04-03T16:29:59.7Z</time></trkpt><trkpt lat="45.9935857" lon="12.7453358"><ele>42.0</ele><time>2026-04-03T16:30:00.7Z</time></trkpt><trkpt lat="45.9934708" lon="12.745368"><ele>42.0</ele><time>2026-04-03T16:30:01.698Z</time></trkpt><trkpt lat="45.9933467" lon="12.7454025"><ele>42.0</ele><time>2026-04-03T16:30:02.699Z</time></trkpt><trkpt lat="45.9932232" lon="12.7454355"><ele>42.0</ele><time>2026-04-03T16:30:03.699Z</time></trkpt><trkpt lat="45.9930949" lon="12.7454684"><ele>41.25</ele><time>2026-04-03T16:30:04.698Z</time></trkpt><trkpt lat="45.9929696" lon="12.7455025"><ele>40.5</ele><time>2026-04-03T16:30:05.699Z</time></trkpt><trkpt lat="45.9928463" lon="12.7455322"><ele>39.75</ele><time>2026-04-03T16:30:06.698Z</time></trkpt><trkpt lat="45.9927232" lon="12.7455625"><ele>39.0</ele><time>2026-04-03T16:30:07.699Z</time></trkpt><trkpt lat="45.9925993" lon="12.7455964"><ele>39.0</ele><time>2026-04-03T16:30:08.699Z</time></trkpt><trkpt lat="45.9924753" lon="12.7456264"><ele>39.0</ele><time>2026-04-03T16:30:09.698Z</time></trkpt><trkpt lat="45.9923517" lon="12.7456574"><ele>39.0</ele><time>2026-04-03T16:30:10.699Z</time></trkpt><trkpt lat="45.992223" lon="12.7456896"><ele>39.0</ele><time>2026-04-03T16:30:11.699Z</time></trkpt><trkpt lat="45.9920884" lon="12.7457237"><ele>39.0</ele><time>2026-04-03T16:30:12.698Z</time></trkpt><trkpt lat="45.9919484" lon="12.7457565"><ele>39.0</ele><time>2026-04-03T16:30:13.698Z</time></trkpt><trkpt lat="45.9918059" lon="12.7457924"><ele>39.0</ele><time>2026-04-03T16:30:14.699Z</time></trkpt><trkpt lat="45.9916631" lon="12.7458252"><ele>39.0</ele><time>2026-04-03T16:30:15.699Z</time></trkpt><trkpt lat="45.9915198" lon="12.745859"><ele>39.25</ele><time>2026-04-03T16:30:16.698Z</time></trkpt><trkpt lat="45.9913814" lon="12.7458904"><ele>39.5</ele><time>2026-04-03T16:30:17.699Z</time></trkpt><trkpt lat="45.991244" lon="12.7459231"><ele>39.75</ele><time>2026-04-03T16:30:18.699Z</time></trkpt><trkpt lat="45.9911074" lon="12.7459611"><ele>40.0</ele><time>2026-04-03T16:30:19.698Z</time></trkpt><trkpt lat="45.9909701" lon="12.7459963"><ele>39.75</ele><time>2026-04-03T16:30:20.698Z</time></trkpt><trkpt lat="45.9908307" lon="12.746033"><ele>39.5</ele><time>2026-04-03T16:30:21.699Z</time></trkpt><trkpt lat="45.9906933" lon="12.7460722"><ele>39.25</ele><time>2026-04-03T16:30:22.7Z</time></trkpt><trkpt lat="45.9905546" lon="12.7461074"><ele>39.0</ele><time>2026-04-03T16:30:23.699Z</time></trkpt><trkpt lat="45.9904159" lon="12.7461464"><ele>39.25</ele><time>2026-04-03T16:30:24.7Z</time></trkpt><trkpt lat="45.9902802" lon="12.7461789"><ele>39.5</ele><time>2026-04-03T16:30:25.699Z</time></trkpt><trkpt lat="45.9901419" lon="12.7462124"><ele>39.75</ele><time>2026-04-03T16:30:26.7Z</time></trkpt><trkpt lat="45.9900044" lon="12.7462512"><ele>40.0</ele><time>2026-04-03T16:30:27.698Z</time></trkpt><trkpt lat="45.989864" lon="12.7462849"><ele>40.0</ele><time>2026-04-03T16:30:28.698Z</time></trkpt><trkpt lat="45.9897233" lon="12.746323"><ele>40.0</ele><time>2026-04-03T16:30:29.699Z</time></trkpt><trkpt lat="45.9895809" lon="12.7463593"><ele>40.0</ele><time>2026-04-03T16:30:30.7Z</time></trkpt><trkpt lat="45.9894395" lon="12.746394"><ele>40.0</ele><time>2026-04-03T16:30:31.7Z</time></trkpt><trkpt lat="45.9892956" lon="12.7464304"><ele>39.0</ele><time>2026-04-03T16:30:32.699Z</time></trkpt><trkpt lat="45.9891545" lon="12.7464673"><ele>38.0</ele><time>2026-04-03T16:30:33.698Z</time></trkpt><trkpt lat="45.9890127" lon="12.7465024"><ele>37.0</ele><time>2026-04-03T16:30:34.7Z</time></trkpt><trkpt lat="45.9888699" lon="12.7465409"><ele>36.0</ele><time>2026-04-03T16:30:35.699Z</time></trkpt><trkpt lat="45.9887278" lon="12.7465791"><ele>36.0</ele><time>2026-04-03T16:30:36.7Z</time></trkpt><trkpt lat="45.9885852" lon="12.746619"><ele>36.0</ele><time>2026-04-03T16:30:37.699Z</time></trkpt><trkpt lat="45.9884429" lon="12.7466565"><ele>36.0</ele><time>2026-04-03T16:30:38.699Z</time></trkpt><trkpt lat="45.9882973" lon="12.7466981"><ele>36.0</ele><time>2026-04-03T16:30:39.698Z</time></trkpt><trkpt lat="45.9881527" lon="12.7467421"><ele>36.0</ele><time>2026-04-03T16:30:40.698Z</time></trkpt><trkpt lat="45.9880044" lon="12.7467808"><ele>36.0</ele><time>2026-04-03T16:30:41.699Z</time></trkpt><trkpt lat="45.987867" lon="12.7468169"><ele>36.0</ele><time>2026-04-03T16:30:42.699Z</time></trkpt><trkpt lat="45.9877378" lon="12.7468537"><ele>36.0</ele><time>2026-04-03T16:30:43.7Z</time></trkpt><trkpt lat="45.9876099" lon="12.7468884"><ele>36.0</ele><time>2026-04-03T16:30:44.698Z</time></trkpt><trkpt lat="45.9874797" lon="12.746919"><ele>36.0</ele><time>2026-04-03T16:30:45.699Z</time></trkpt><trkpt lat="45.9873493" lon="12.7469466"><ele>36.0</ele><time>2026-04-03T16:30:46.699Z</time></trkpt><trkpt lat="45.987219" lon="12.7469738"><ele>36.0</ele><time>2026-04-03T16:30:47.699Z</time></trkpt><trkpt lat="45.9870885" lon="12.7470021"><ele>36.0</ele><time>2026-04-03T16:30:48.699Z</time></trkpt><trkpt lat="45.9869603" lon="12.7470342"><ele>36.0</ele><time>2026-04-03T16:30:49.699Z</time></trkpt><trkpt lat="45.9868429" lon="12.7470667"><ele>36.0</ele><time>2026-04-03T16:30:50.698Z</time></trkpt><trkpt lat="45.9867358" lon="12.7471122"><ele>36.0</ele><time>2026-04-03T16:30:51.7Z</time></trkpt><trkpt lat="45.9866291" lon="12.7471758"><ele>36.25</ele><time>2026-04-03T16:30:52.698Z</time></trkpt><trkpt lat="45.9865251" lon="12.7472592"><ele>36.5</ele><time>2026-04-03T16:30:53.699Z</time></trkpt><trkpt lat="45.9864252" lon="12.7473631"><ele>36.75</ele><time>2026-04-03T16:30:54.698Z</time></trkpt><trkpt lat="45.9863299" lon="12.7474824"><ele>37.0</ele><time>2026-04-03T16:30:55.699Z</time></trkpt><trkpt lat="45.9862354" lon="12.7476061"><ele>37.0</ele><time>2026-04-03T16:30:56.699Z</time></trkpt><trkpt lat="45.986145" lon="12.7477284"><ele>37.0</ele><time>2026-04-03T16:30:57.699Z</time></trkpt><trkpt lat="45.9860524" lon="12.7478359"><ele>37.0</ele><time>2026-04-03T16:30:58.698Z</time></trkpt><trkpt lat="45.9859527" lon="12.7479313"><ele>37.0</ele><time>2026-04-03T16:30:59.699Z</time></trkpt><trkpt lat="45.9858492" lon="12.7480244"><ele>36.25</ele><time>2026-04-03T16:31:00.7Z</time></trkpt><trkpt lat="45.9857424" lon="12.748116"><ele>35.5</ele><time>2026-04-03T16:31:01.699Z</time></trkpt><trkpt lat="45.9856387" lon="12.7481973"><ele>34.75</ele><time>2026-04-03T16:31:02.699Z</time></trkpt><trkpt lat="45.9855277" lon="12.7482566"><ele>34.0</ele><time>2026-04-03T16:31:03.698Z</time></trkpt><trkpt lat="45.9854112" lon="12.7483051"><ele>34.0</ele><time>2026-04-03T16:31:04.698Z</time></trkpt><trkpt lat="45.9852903" lon="12.748358"><ele>34.0</ele><time>2026-04-03T16:31:05.699Z</time></trkpt><trkpt lat="45.985164" lon="12.7484103"><ele>34.0</ele><time>2026-04-03T16:31:06.698Z</time></trkpt><trkpt lat="45.9850355" lon="12.7484652"><ele>34.0</ele><time>2026-04-03T16:31:07.699Z</time></trkpt><trkpt lat="45.9849118" lon="12.7485224"><ele>33.75</ele><time>2026-04-03T16:31:08.699Z</time></trkpt><trkpt lat="45.9847965" lon="12.7485735"><ele>33.5</ele><time>2026-04-03T16:31:09.698Z</time></trkpt><trkpt lat="45.9846795" lon="12.7486246"><ele>33.25</ele><time>2026-04-03T16:31:10.698Z</time></trkpt><trkpt lat="45.9845608" lon="12.7486626"><ele>33.0</ele><time>2026-04-03T16:31:11.698Z</time></trkpt><trkpt lat="45.9844425" lon="12.7486937"><ele>33.0</ele><time>2026-04-03T16:31:12.699Z</time></trkpt><trkpt lat="45.9843276" lon="12.7487008"><ele>33.0</ele><time>2026-04-03T16:31:13.699Z</time></trkpt><trkpt lat="45.9842076" lon="12.7486961"><ele>33.0</ele><time>2026-04-03T16:31:14.698Z</time></trkpt><trkpt lat="45.984084" lon="12.7486912"><ele>33.0</ele><time>2026-04-03T16:31:15.699Z</time></trkpt><trkpt lat="45.9839589" lon="12.7486832"><ele>33.25</ele><time>2026-04-03T16:31:16.699Z</time></trkpt><trkpt lat="45.9838315" lon="12.7486753"><ele>33.5</ele><time>2026-04-03T16:31:17.698Z</time></trkpt><trkpt lat="45.9837062" lon="12.7486742"><ele>33.75</ele><time>2026-04-03T16:31:18.699Z</time></trkpt><trkpt lat="45.9835804" lon="12.748675"><ele>34.0</ele><time>2026-04-03T16:31:19.698Z</time></trkpt><trkpt lat="45.9834517" lon="12.7486789"><ele>34.2</ele><time>2026-04-03T16:31:20.699Z</time></trkpt><trkpt lat="45.9833255" lon="12.7486778"><ele>34.4</ele><time>2026-04-03T16:31:21.699Z</time></trkpt><trkpt lat="45.9832085" lon="12.7486786"><ele>34.6</ele><time>2026-04-03T16:31:22.699Z</time></trkpt><trkpt lat="45.983102" lon="12.7486684"><ele>34.8</ele><time>2026-04-03T16:31:23.699Z</time></trkpt><trkpt lat="45.9830039" lon="12.7486498"><ele>35.0</ele><time>2026-04-03T16:31:24.699Z</time></trkpt><trkpt lat="45.9829147" lon="12.7486153"><ele>35.0</ele><time>2026-04-03T16:31:25.699Z</time></trkpt><trkpt lat="45.982831" lon="12.748575"><ele>35.0</ele><time>2026-04-03T16:31:26.699Z</time></trkpt><trkpt lat="45.9827588" lon="12.7485417"><ele>35.0</ele><time>2026-04-03T16:31:27.698Z</time></trkpt><trkpt lat="45.9826944" lon="12.7485276"><ele>35.0</ele><time>2026-04-03T16:31:28.699Z</time></trkpt><trkpt lat="45.9825796" lon="12.748568"><ele>35.0</ele><time>2026-04-03T16:31:30.698Z</time></trkpt><trkpt lat="45.9824943" lon="12.7486341"><ele>35.0</ele><time>2026-04-03T16:31:32.698Z</time></trkpt><trkpt lat="45.9824191" lon="12.7486055"><ele>34.6</ele><time>2026-04-03T16:31:34.698Z</time></trkpt><trkpt lat="45.9823573" lon="12.7484813"><ele>34.2</ele><time>2026-04-03T16:31:36.7Z</time></trkpt><trkpt lat="45.9823334" lon="12.7483672"><ele>33.8</ele><time>2026-04-03T16:31:37.699Z</time></trkpt><trkpt lat="45.9822955" lon="12.7482383"><ele>33.4</ele><time>2026-04-03T16:31:38.699Z</time></trkpt><trkpt lat="45.9822555" lon="12.7481157"><ele>33.0</ele><time>2026-04-03T16:31:39.698Z</time></trkpt><trkpt lat="45.982202" lon="12.7479783"><ele>33.0</ele><time>2026-04-03T16:31:40.699Z</time></trkpt><trkpt lat="45.9821434" lon="12.7478372"><ele>33.0</ele><time>2026-04-03T16:31:41.699Z</time></trkpt><trkpt lat="45.9820894" lon="12.7477031"><ele>33.0</ele><time>2026-04-03T16:31:42.698Z</time></trkpt><trkpt lat="45.9820342" lon="12.7475684"><ele>33.0</ele><time>2026-04-03T16:31:43.698Z</time></trkpt><trkpt lat="45.9819773" lon="12.7474248"><ele>33.0</ele><time>2026-04-03T16:31:44.698Z</time></trkpt><trkpt lat="45.981918" lon="12.7472778"><ele>32.75</ele><time>2026-04-03T16:31:45.699Z</time></trkpt><trkpt lat="45.9818566" lon="12.7471279"><ele>32.5</ele><time>2026-04-03T16:31:46.698Z</time></trkpt><trkpt lat="45.9818026" lon="12.7469801"><ele>32.25</ele><time>2026-04-03T16:31:47.699Z</time></trkpt><trkpt lat="45.9817461" lon="12.7468381"><ele>32.0</ele><time>2026-04-03T16:31:48.698Z</time></trkpt><trkpt lat="45.9816869" lon="12.7466979"><ele>31.75</ele><time>2026-04-03T16:31:49.699Z</time></trkpt><trkpt lat="45.9816286" lon="12.7465571"><ele>31.5</ele><time>2026-04-03T16:31:50.699Z</time></trkpt><trkpt lat="45.9815729" lon="12.7464093"><ele>31.25</ele><time>2026-04-03T16:31:51.699Z</time></trkpt><trkpt lat="45.9815184" lon="12.7462651"><ele>31.0</ele><time>2026-04-03T16:31:52.699Z</time></trkpt><trkpt lat="45.9814668" lon="12.7461198"><ele>31.4</ele><time>2026-04-03T16:31:53.698Z</time></trkpt><trkpt lat="45.9814129" lon="12.7459761"><ele>31.8</ele><time>2026-04-03T16:31:54.698Z</time></trkpt><trkpt lat="45.9813605" lon="12.7458375"><ele>32.199999999999996</ele><time>2026-04-03T16:31:55.698Z</time></trkpt><trkpt lat="45.9813165" lon="12.7457055"><ele>32.6</ele><time>2026-04-03T16:31:56.699Z</time></trkpt><trkpt lat="45.9812737" lon="12.7455765"><ele>33.0</ele><time>2026-04-03T16:31:57.7Z</time></trkpt><trkpt lat="45.9812325" lon="12.7454466"><ele>33.0</ele><time>2026-04-03T16:31:58.698Z</time></trkpt><trkpt lat="45.9811946" lon="12.7453268"><ele>33.0</ele><time>2026-04-03T16:31:59.698Z</time></trkpt><trkpt lat="45.9811509" lon="12.7452244"><ele>33.0</ele><time>2026-04-03T16:32:00.699Z</time></trkpt><trkpt lat="45.9810962" lon="12.7451348"><ele>33.0</ele><time>2026-04-03T16:32:01.699Z</time></trkpt><trkpt lat="45.9810323" lon="12.745069"><ele>33.0</ele><time>2026-04-03T16:32:02.699Z</time></trkpt><trkpt lat="45.9809641" lon="12.7450182"><ele>33.0</ele><time>2026-04-03T16:32:03.698Z</time></trkpt><trkpt lat="45.980902" lon="12.7449738"><ele>32.6</ele><time>2026-04-03T16:32:04.698Z</time></trkpt><trkpt lat="45.9808107" lon="12.744891"><ele>32.199999999999996</ele><time>2026-04-03T16:32:06.698Z</time></trkpt><trkpt lat="45.9807246" lon="12.744879"><ele>31.8</ele><time>2026-04-03T16:32:09.698Z</time></trkpt><trkpt lat="45.9806773" lon="12.7449641"><ele>31.4</ele><time>2026-04-03T16:32:11.699Z</time></trkpt><trkpt lat="45.9806572" lon="12.7451332"><ele>31.0</ele><time>2026-04-03T16:32:13.699Z</time></trkpt><trkpt lat="45.9806586" lon="12.7452384"><ele>31.0</ele><time>2026-04-03T16:32:14.7Z</time></trkpt><trkpt lat="45.9806638" lon="12.7453435"><ele>31.000000000000004</ele><time>2026-04-03T16:32:15.698Z</time></trkpt><trkpt lat="45.9806598" lon="12.7454401"><ele>31.0</ele><time>2026-04-03T16:32:16.699Z</time></trkpt><trkpt lat="45.9806392" lon="12.745531"><ele>31.0</ele><time>2026-04-03T16:32:17.699Z</time></trkpt><trkpt lat="45.9806049" lon="12.7456196"><ele>31.000000000000004</ele><time>2026-04-03T16:32:18.699Z</time></trkpt><trkpt lat="45.9805602" lon="12.7457071"><ele>31.0</ele><time>2026-04-03T16:32:19.698Z</time></trkpt><trkpt lat="45.9805118" lon="12.7457861"><ele>31.0</ele><time>2026-04-03T16:32:20.699Z</time></trkpt><trkpt lat="45.9804688" lon="12.7458644"><ele>31.0</ele><time>2026-04-03T16:32:21.699Z</time></trkpt><trkpt lat="45.9804229" lon="12.7459383"><ele>31.000000000000004</ele><time>2026-04-03T16:32:22.698Z</time></trkpt><trkpt lat="45.9803784" lon="12.7460109"><ele>31.0</ele><time>2026-04-03T16:32:23.698Z</time></trkpt><trkpt lat="45.9803318" lon="12.7460877"><ele>31.0</ele><time>2026-04-03T16:32:24.698Z</time></trkpt><trkpt lat="45.9802863" lon="12.74617"><ele>31.000000000000004</ele><time>2026-04-03T16:32:25.698Z</time></trkpt><trkpt lat="45.9802319" lon="12.7462578"><ele>31.0</ele><time>2026-04-03T16:32:26.698Z</time></trkpt><trkpt lat="45.9801754" lon="12.7463373"><ele>31.0</ele><time>2026-04-03T16:32:27.699Z</time></trkpt><trkpt lat="45.9801186" lon="12.7464243"><ele>31.166666666666668</ele><time>2026-04-03T16:32:28.698Z</time></trkpt><trkpt lat="45.9800662" lon="12.7465144"><ele>31.333333333333336</ele><time>2026-04-03T16:32:29.698Z</time></trkpt><trkpt lat="45.9800186" lon="12.746606"><ele>31.5</ele><time>2026-04-03T16:32:30.698Z</time></trkpt><trkpt lat="45.979982" lon="12.7466893"><ele>31.666666666666664</ele><time>2026-04-03T16:32:31.698Z</time></trkpt><trkpt lat="45.9799439" lon="12.7468429"><ele>31.833333333333332</ele><time>2026-04-03T16:32:33.698Z</time></trkpt><trkpt lat="45.9799426" lon="12.7469347"><ele>32.0</ele><time>2026-04-03T16:32:34.699Z</time></trkpt><trkpt lat="45.9799735" lon="12.7471112"><ele>31.999999999999996</ele><time>2026-04-03T16:32:36.699Z</time></trkpt><trkpt lat="45.9800015" lon="12.7472117"><ele>32.0</ele><time>2026-04-03T16:32:37.7Z</time></trkpt><trkpt lat="45.9800223" lon="12.7473034"><ele>32.0</ele><time>2026-04-03T16:32:38.698Z</time></trkpt><trkpt lat="45.9800418" lon="12.7473934"><ele>32.0</ele><time>2026-04-03T16:32:39.699Z</time></trkpt><trkpt lat="45.9800449" lon="12.747565"><ele>31.999999999999996</ele><time>2026-04-03T16:32:41.699Z</time></trkpt><trkpt lat="45.9800346" lon="12.7477197"><ele>32.0</ele><time>2026-04-03T16:32:43.699Z</time></trkpt><trkpt lat="45.9799899" lon="12.7478379"><ele>32.166666666666664</ele><time>2026-04-03T16:32:45.698Z</time></trkpt><trkpt lat="45.9798912" lon="12.7479062"><ele>32.33333333333333</ele><time>2026-04-03T16:32:47.698Z</time></trkpt><trkpt lat="45.9798191" lon="12.7479241"><ele>32.5</ele><time>2026-04-03T16:32:48.699Z</time></trkpt><trkpt lat="45.9797428" lon="12.7479354"><ele>32.666666666666664</ele><time>2026-04-03T16:32:49.698Z</time></trkpt><trkpt lat="45.9796768" lon="12.7479472"><ele>32.833333333333336</ele><time>2026-04-03T16:32:50.698Z</time></trkpt><trkpt lat="45.9795806" lon="12.7479556"><ele>33.0</ele><time>2026-04-03T16:32:52.698Z</time></trkpt><trkpt lat="45.9795088" lon="12.7479508"><ele>33.0</ele><time>2026-04-03T16:32:54.699Z</time></trkpt><trkpt lat="45.9794378" lon="12.7478854"><ele>33.0</ele><time>2026-04-03T16:32:57.699Z</time></trkpt><trkpt lat="45.9794236" lon="12.7477635"><ele>33.0</ele><time>2026-04-03T16:33:00.698Z</time></trkpt><trkpt lat="45.9794325" lon="12.7476426"><ele>33.0</ele><time>2026-04-03T16:33:56.698Z</time></trkpt><trkpt lat="45.9794433" lon="12.7475465"><ele>33.0</ele><time>2026-04-03T16:33:58.698Z</time></trkpt><trkpt lat="45.9793618" lon="12.7474515"><ele>33.0</ele><time>2026-04-03T16:34:01.699Z</time></trkpt><trkpt lat="45.97932" lon="12.7473529"><ele>32.8</ele><time>2026-04-03T16:34:03.698Z</time></trkpt><trkpt lat="45.97932" lon="12.7472254"><ele>32.599999999999994</ele><time>2026-04-03T16:34:05.698Z</time></trkpt><trkpt lat="45.9793409" lon="12.7470811"><ele>32.400000000000006</ele><time>2026-04-03T16:34:07.7Z</time></trkpt><trkpt lat="45.9793643" lon="12.7469202"><ele>32.2</ele><time>2026-04-03T16:34:09.7Z</time></trkpt><trkpt lat="45.9793978" lon="12.7467649"><ele>32.0</ele><time>2026-04-03T16:34:11.7Z</time></trkpt><trkpt lat="45.9794165" lon="12.7466"><ele>31.666666666666664</ele><time>2026-04-03T16:34:13.699Z</time></trkpt><trkpt lat="45.9794144" lon="12.7465007"><ele>31.333333333333332</ele><time>2026-04-03T16:34:14.698Z</time></trkpt><trkpt lat="45.9794125" lon="12.7463976"><ele>31.0</ele><time>2026-04-03T16:34:15.699Z</time></trkpt><trkpt lat="45.9794058" lon="12.7463066"><ele>30.666666666666664</ele><time>2026-04-03T16:34:16.698Z</time></trkpt><trkpt lat="45.9793933" lon="12.7461918"><ele>30.333333333333332</ele><time>2026-04-03T16:34:17.699Z</time></trkpt><trkpt lat="45.9793793" lon="12.7460799"><ele>30.0</ele><time>2026-04-03T16:34:18.698Z</time></trkpt><trkpt lat="45.9793734" lon="12.7459534"><ele>29.833333333333332</ele><time>2026-04-03T16:34:19.698Z</time></trkpt><trkpt lat="45.9793732" lon="12.745824"><ele>29.666666666666664</ele><time>2026-04-03T16:34:20.698Z</time></trkpt><trkpt lat="45.979377" lon="12.7456832"><ele>29.5</ele><time>2026-04-03T16:34:21.699Z</time></trkpt><trkpt lat="45.9793803" lon="12.745562"><ele>29.333333333333332</ele><time>2026-04-03T16:34:22.699Z</time></trkpt><trkpt lat="45.9793752" lon="12.7454605"><ele>29.166666666666664</ele><time>2026-04-03T16:34:23.698Z</time></trkpt><trkpt lat="45.979364" lon="12.7453669"><ele>29.0</ele><time>2026-04-03T16:34:24.698Z</time></trkpt><trkpt lat="45.9793438" lon="12.7452757"><ele>28.999999999999996</ele><time>2026-04-03T16:34:25.699Z</time></trkpt><trkpt lat="45.9793214" lon="12.7451884"><ele>29.0</ele><time>2026-04-03T16:34:26.698Z</time></trkpt><trkpt lat="45.9792872" lon="12.7450743"><ele>29.0</ele><time>2026-04-03T16:34:28.698Z</time></trkpt><trkpt lat="45.9792013" lon="12.7450664"><ele>29.0</ele><time>2026-04-03T16:34:30.698Z</time></trkpt><trkpt lat="45.9791312" lon="12.7451258"><ele>28.999999999999996</ele><time>2026-04-03T16:34:32.698Z</time></trkpt><trkpt lat="45.9791684" lon="12.7452376"><ele>29.0</ele><time>2026-04-03T16:34:33.698Z</time></trkpt><trkpt lat="45.9791752" lon="12.7454075"><ele>28.999999999999996</ele><time>2026-04-03T16:34:35.698Z</time></trkpt><trkpt lat="45.9791819" lon="12.7455291"><ele>29.0</ele><time>2026-04-03T16:34:37.698Z</time></trkpt><trkpt lat="45.9791555" lon="12.7456205"><ele>29.0</ele><time>2026-04-03T16:34:39.7Z</time></trkpt><trkpt lat="45.9790912" lon="12.7456736"><ele>29.0</ele><time>2026-04-03T16:34:41.699Z</time></trkpt><trkpt lat="45.9790074" lon="12.7457167"><ele>28.999999999999996</ele><time>2026-04-03T16:34:43.699Z</time></trkpt><trkpt lat="45.978956" lon="12.7457929"><ele>29.0</ele><time>2026-04-03T16:34:45.699Z</time></trkpt><trkpt lat="45.9789244" lon="12.7459171"><ele>28.999999999999996</ele><time>2026-04-03T16:34:47.698Z</time></trkpt><trkpt lat="45.9788827" lon="12.7460565"><ele>29.0</ele><time>2026-04-03T16:34:49.699Z</time></trkpt><trkpt lat="45.9787934" lon="12.7460987"><ele>29.0</ele><time>2026-04-03T16:34:52.698Z</time></trkpt><trkpt lat="45.9787964" lon="12.7459905"><ele>29.0</ele><time>2026-04-03T16:34:54.699Z</time></trkpt><trkpt lat="45.9788215" lon="12.7458782"><ele>28.999999999999996</ele><time>2026-04-03T16:34:56.699Z</time></trkpt><trkpt lat="45.9788559" lon="12.7457549"><ele>29.0</ele><time>2026-04-03T16:34:58.699Z</time></trkpt><trkpt lat="45.9789125" lon="12.7456573"><ele>29.0</ele><time>2026-04-03T16:35:00.698Z</time></trkpt><trkpt lat="45.9789665" lon="12.7455301"><ele>29.0</ele><time>2026-04-03T16:35:02.698Z</time></trkpt><trkpt lat="45.9790115" lon="12.7454363"><ele>29.0</ele><time>2026-04-03T16:35:04.698Z</time></trkpt><trkpt lat="45.9789336" lon="12.7453828"><ele>29.0</ele><time>2026-04-03T16:35:07.699Z</time></trkpt><trkpt lat="45.9788722" lon="12.7454833"><ele>29.0</ele><time>2026-04-03T16:35:09.699Z</time></trkpt><trkpt lat="45.9788009" lon="12.7455607"><ele>28.999999999999996</ele><time>2026-04-03T16:35:11.699Z</time></trkpt><trkpt lat="45.978714" lon="12.7455863"><ele>29.0</ele><time>2026-04-03T16:35:13.698Z</time></trkpt><trkpt lat="45.9786229" lon="12.7455777"><ele>29.0</ele><time>2026-04-03T16:35:15.698Z</time></trkpt><trkpt lat="45.9785525" lon="12.745569"><ele>29.0</ele><time>2026-04-03T16:35:17.698Z</time></trkpt><trkpt lat="45.9784755" lon="12.745558"><ele>28.999999999999996</ele><time>2026-04-03T16:35:19.699Z</time></trkpt><trkpt lat="45.978403" lon="12.7455051"><ele>29.0</ele><time>2026-04-03T16:35:21.698Z</time></trkpt><trkpt lat="45.9783859" lon="12.745412"><ele>28.999999999999996</ele><time>2026-04-03T16:35:23.699Z</time></trkpt><trkpt lat="45.9784324" lon="12.7453462"><ele>29.0</ele><time>2026-04-03T16:35:39.698Z</time></trkpt><trkpt lat="45.9785204" lon="12.7453309"><ele>29.0</ele><time>2026-04-03T16:35:44.698Z</time></trkpt><trkpt lat="45.978601" lon="12.7453213"><ele>29.0</ele><time>2026-04-03T16:35:46.7Z</time></trkpt><trkpt lat="45.9787098" lon="12.745293"><ele>28.999999999999996</ele><time>2026-04-03T16:35:48.7Z</time></trkpt><trkpt lat="45.9787977" lon="12.7452629"><ele>29.0</ele><time>2026-04-03T16:35:50.699Z</time></trkpt><trkpt lat="45.9788832" lon="12.7452486"><ele>29.499999999999996</ele><time>2026-04-03T16:35:52.698Z</time></trkpt><trkpt lat="45.9789693" lon="12.7452088"><ele>30.0</ele><time>2026-04-03T16:35:54.698Z</time></trkpt><trkpt lat="45.9790336" lon="12.7451262"><ele>30.5</ele><time>2026-04-03T16:35:56.698Z</time></trkpt><trkpt lat="45.9790529" lon="12.7450302"><ele>31.0</ele><time>2026-04-03T16:35:58.699Z</time></trkpt><trkpt lat="45.9790021" lon="12.7448931"><ele>31.499999999999996</ele><time>2026-04-03T16:36:00.698Z</time></trkpt><trkpt lat="45.9790299" lon="12.7447757"><ele>32.0</ele><time>2026-04-03T16:36:02.698Z</time></trkpt><trkpt lat="45.9790938" lon="12.7447272"><ele>32.0</ele><time>2026-04-03T16:36:04.698Z</time></trkpt><trkpt lat="45.9791716" lon="12.74473"><ele>32.0</ele><time>2026-04-03T16:36:06.699Z</time></trkpt><trkpt lat="45.9792495" lon="12.7446914"><ele>32.0</ele><time>2026-04-03T16:36:08.699Z</time></trkpt><trkpt lat="45.9792827" lon="12.7445766"><ele>32.0</ele><time>2026-04-03T16:36:10.699Z</time></trkpt><trkpt lat="45.9792169" lon="12.7444661"><ele>32.0</ele><time>2026-04-03T16:36:12.698Z</time></trkpt><trkpt lat="45.979116" lon="12.7444344"><ele>32.0</ele><time>2026-04-03T16:36:14.698Z</time></trkpt><trkpt lat="45.9790331" lon="12.744493"><ele>32.0</ele><time>2026-04-03T16:36:16.7Z</time></trkpt><trkpt lat="45.9789557" lon="12.744609"><ele>32.0</ele><time>2026-04-03T16:36:18.698Z</time></trkpt><trkpt lat="45.978911" lon="12.7447088"><ele>32.0</ele><time>2026-04-03T16:36:20.698Z</time></trkpt><trkpt lat="45.9788863" lon="12.7448262"><ele>32.0</ele><time>2026-04-03T16:36:22.698Z</time></trkpt><trkpt lat="45.9788411" lon="12.7449497"><ele>32.0</ele><time>2026-04-03T16:36:24.698Z</time></trkpt><trkpt lat="45.9787759" lon="12.7450603"><ele>32.0</ele><time>2026-04-03T16:36:26.699Z</time></trkpt><trkpt lat="45.9786974" lon="12.7451185"><ele>32.0</ele><time>2026-04-03T16:36:28.7Z</time></trkpt><trkpt lat="45.9785918" lon="12.7451615"><ele>32.0</ele><time>2026-04-03T16:36:30.699Z</time></trkpt><trkpt lat="45.9784764" lon="12.7452082"><ele>32.0</ele><time>2026-04-03T16:36:32.699Z</time></trkpt><trkpt lat="45.9783787" lon="12.7452553"><ele>32.2</ele><time>2026-04-03T16:36:34.698Z</time></trkpt><trkpt lat="45.9782809" lon="12.7453169"><ele>32.400000000000006</ele><time>2026-04-03T16:36:36.699Z</time></trkpt><trkpt lat="45.9782299" lon="12.7454214"><ele>32.599999999999994</ele><time>2026-04-03T16:36:38.699Z</time></trkpt><trkpt lat="45.9782213" lon="12.7455376"><ele>32.8</ele><time>2026-04-03T16:36:40.7Z</time></trkpt><trkpt lat="45.9782266" lon="12.7456815"><ele>33.0</ele><time>2026-04-03T16:36:42.698Z</time></trkpt><trkpt lat="45.9782357" lon="12.7458176"><ele>33.0</ele><time>2026-04-03T16:36:44.699Z</time></trkpt><trkpt lat="45.9782565" lon="12.7459567"><ele>33.0</ele><time>2026-04-03T16:36:46.698Z</time></trkpt><trkpt lat="45.9782624" lon="12.746099"><ele>33.0</ele><time>2026-04-03T16:36:48.699Z</time></trkpt><trkpt lat="45.9782826" lon="12.7462681"><ele>33.0</ele><time>2026-04-03T16:36:50.699Z</time></trkpt><trkpt lat="45.9782976" lon="12.7464079"><ele>33.0</ele><time>2026-04-03T16:36:52.699Z</time></trkpt><trkpt lat="45.9783225" lon="12.7465013"><ele>32.199999999999996</ele><time>2026-04-03T16:36:54.699Z</time></trkpt><trkpt lat="45.9783695" lon="12.7465828"><ele>31.4</ele><time>2026-04-03T16:36:56.698Z</time></trkpt><trkpt lat="45.9784262" lon="12.7466786"><ele>30.599999999999998</ele><time>2026-04-03T16:36:58.698Z</time></trkpt><trkpt lat="45.9785086" lon="12.7467733"><ele>29.799999999999997</ele><time>2026-04-03T16:37:00.699Z</time></trkpt><trkpt lat="45.9785771" lon="12.7468977"><ele>29.0</ele><time>2026-04-03T16:37:02.698Z</time></trkpt><trkpt lat="45.9786421" lon="12.7470145"><ele>28.999999999999996</ele><time>2026-04-03T16:37:04.699Z</time></trkpt><trkpt lat="45.9787295" lon="12.7471043"><ele>29.0</ele><time>2026-04-03T16:37:06.698Z</time></trkpt><trkpt lat="45.9788095" lon="12.7471528"><ele>29.0</ele><time>2026-04-03T16:37:08.699Z</time></trkpt><trkpt lat="45.9788846" lon="12.7471483"><ele>29.0</ele><time>2026-04-03T16:37:11.698Z</time></trkpt><trkpt lat="45.9789421" lon="12.7471033"><ele>28.999999999999996</ele><time>2026-04-03T16:37:14.698Z</time></trkpt><trkpt lat="45.9790094" lon="12.7470666"><ele>29.0</ele><time>2026-04-03T16:37:16.7Z</time></trkpt><trkpt lat="45.9790842" lon="12.7470843"><ele>28.999999999999996</ele><time>2026-04-03T16:37:18.699Z</time></trkpt><trkpt lat="45.9791159" lon="12.7471951"><ele>29.0</ele><time>2026-04-03T16:37:20.698Z</time></trkpt><trkpt lat="45.9791105" lon="12.7472949"><ele>29.0</ele><time>2026-04-03T16:37:21.698Z</time></trkpt><trkpt lat="45.9791113" lon="12.7474454"><ele>29.0</ele><time>2026-04-03T16:37:23.7Z</time></trkpt><trkpt lat="45.979159" lon="12.7475298"><ele>28.999999999999996</ele><time>2026-04-03T16:37:25.699Z</time></trkpt><trkpt lat="45.979219" lon="12.7476182"><ele>29.0</ele><time>2026-04-03T16:37:27.699Z</time></trkpt><trkpt lat="45.9792937" lon="12.7476705"><ele>29.499999999999996</ele><time>2026-04-03T16:37:29.698Z</time></trkpt><trkpt lat="45.9793861" lon="12.7476993"><ele>30.0</ele><time>2026-04-03T16:37:31.699Z</time></trkpt><trkpt lat="45.9794413" lon="12.747639"><ele>30.5</ele><time>2026-04-03T16:37:33.699Z</time></trkpt><trkpt lat="45.9794392" lon="12.7475386"><ele>31.0</ele><time>2026-04-03T16:37:35.699Z</time></trkpt><trkpt lat="45.9793809" lon="12.7474731"><ele>31.499999999999996</ele><time>2026-04-03T16:37:37.698Z</time></trkpt><trkpt lat="45.9793204" lon="12.7473594"><ele>32.0</ele><time>2026-04-03T16:37:39.699Z</time></trkpt><trkpt lat="45.9793222" lon="12.7471894"><ele>32.0</ele><time>2026-04-03T16:37:41.699Z</time></trkpt><trkpt lat="45.9793341" lon="12.7470962"><ele>32.0</ele><time>2026-04-03T16:37:42.699Z</time></trkpt><trkpt lat="45.9793585" lon="12.7469406"><ele>32.0</ele><time>2026-04-03T16:37:44.698Z</time></trkpt><trkpt lat="45.9793986" lon="12.7467821"><ele>32.0</ele><time>2026-04-03T16:37:46.699Z</time></trkpt><trkpt lat="45.979418" lon="12.7466104"><ele>32.0</ele><time>2026-04-03T16:37:48.699Z</time></trkpt><trkpt lat="45.9794147" lon="12.7465144"><ele>31.666666666666664</ele><time>2026-04-03T16:37:49.699Z</time></trkpt><trkpt lat="45.979411" lon="12.7464134"><ele>31.333333333333332</ele><time>2026-04-03T16:37:50.699Z</time></trkpt><trkpt lat="45.9794071" lon="12.7463062"><ele>31.0</ele><time>2026-04-03T16:37:51.698Z</time></trkpt><trkpt lat="45.9793986" lon="12.7461774"><ele>30.666666666666664</ele><time>2026-04-03T16:37:52.698Z</time></trkpt><trkpt lat="45.9793882" lon="12.7460348"><ele>30.333333333333332</ele><time>2026-04-03T16:37:53.699Z</time></trkpt><trkpt lat="45.9793808" lon="12.7458947"><ele>30.0</ele><time>2026-04-03T16:37:54.699Z</time></trkpt><trkpt lat="45.9793796" lon="12.7457385"><ele>29.833333333333332</ele><time>2026-04-03T16:37:55.699Z</time></trkpt><trkpt lat="45.9793817" lon="12.7456042"><ele>29.666666666666664</ele><time>2026-04-03T16:37:56.699Z</time></trkpt><trkpt lat="45.9793796" lon="12.7454963"><ele>29.5</ele><time>2026-04-03T16:37:57.7Z</time></trkpt><trkpt lat="45.9793699" lon="12.7454045"><ele>29.333333333333332</ele><time>2026-04-03T16:37:58.699Z</time></trkpt><trkpt lat="45.979353" lon="12.7453116"><ele>29.166666666666664</ele><time>2026-04-03T16:37:59.699Z</time></trkpt><trkpt lat="45.9793202" lon="12.7451594"><ele>29.0</ele><time>2026-04-03T16:38:01.699Z</time></trkpt><trkpt lat="45.9792632" lon="12.745061"><ele>29.0</ele><time>2026-04-03T16:38:03.7Z</time></trkpt><trkpt lat="45.9791889" lon="12.7450557"><ele>29.0</ele><time>2026-04-03T16:38:05.699Z</time></trkpt><trkpt lat="45.9791582" lon="12.7451625"><ele>29.0</ele><time>2026-04-03T16:38:07.698Z</time></trkpt><trkpt lat="45.9791731" lon="12.7453204"><ele>29.0</ele><time>2026-04-03T16:38:09.698Z</time></trkpt><trkpt lat="45.9791801" lon="12.7454815"><ele>29.0</ele><time>2026-04-03T16:38:11.7Z</time></trkpt><trkpt lat="45.9791744" lon="12.7455865"><ele>28.999999999999996</ele><time>2026-04-03T16:38:13.698Z</time></trkpt><trkpt lat="45.9791025" lon="12.7456697"><ele>29.0</ele><time>2026-04-03T16:38:16.699Z</time></trkpt><trkpt lat="45.9790192" lon="12.7457031"><ele>29.0</ele><time>2026-04-03T16:38:18.699Z</time></trkpt><trkpt lat="45.9789697" lon="12.7457684"><ele>29.0</ele><time>2026-04-03T16:38:20.699Z</time></trkpt><trkpt lat="45.9789399" lon="12.7458777"><ele>28.999999999999996</ele><time>2026-04-03T16:38:22.7Z</time></trkpt><trkpt lat="45.9788993" lon="12.7460047"><ele>29.0</ele><time>2026-04-03T16:38:24.699Z</time></trkpt><trkpt lat="45.9788447" lon="12.7460945"><ele>28.999999999999996</ele><time>2026-04-03T16:38:26.699Z</time></trkpt><trkpt lat="45.9787855" lon="12.7460626"><ele>29.0</ele><time>2026-04-03T16:38:28.699Z</time></trkpt><trkpt lat="45.978778" lon="12.7459589"><ele>29.0</ele><time>2026-04-03T16:38:30.698Z</time></trkpt><trkpt lat="45.9788069" lon="12.745813"><ele>29.0</ele><time>2026-04-03T16:38:32.699Z</time></trkpt><trkpt lat="45.9788471" lon="12.7456908"><ele>28.999999999999996</ele><time>2026-04-03T16:38:34.698Z</time></trkpt><trkpt lat="45.9789119" lon="12.7455642"><ele>29.0</ele><time>2026-04-03T16:38:36.699Z</time></trkpt><trkpt lat="45.9789833" lon="12.7454732"><ele>28.999999999999996</ele><time>2026-04-03T16:38:38.698Z</time></trkpt><trkpt lat="45.9789981" lon="12.7453817"><ele>29.0</ele><time>2026-04-03T16:38:40.698Z</time></trkpt><trkpt lat="45.9789314" lon="12.745373"><ele>29.0</ele><time>2026-04-03T16:38:42.699Z</time></trkpt><trkpt lat="45.9788845" lon="12.7454794"><ele>29.0</ele><time>2026-04-03T16:38:44.699Z</time></trkpt><trkpt lat="45.9788078" lon="12.7455682"><ele>28.999999999999996</ele><time>2026-04-03T16:38:46.699Z</time></trkpt><trkpt lat="45.9787174" lon="12.7456031"><ele>29.0</ele><time>2026-04-03T16:38:48.698Z</time></trkpt><trkpt lat="45.9786285" lon="12.7455866"><ele>29.000000000000004</ele><time>2026-04-03T16:38:50.698Z</time></trkpt><trkpt lat="45.9785564" lon="12.745576"><ele>29.0</ele><time>2026-04-03T16:38:52.7Z</time></trkpt><trkpt lat="45.978492" lon="12.74556"><ele>29.000000000000004</ele><time>2026-04-03T16:38:54.699Z</time></trkpt><trkpt lat="45.9784274" lon="12.7455289"><ele>29.000000000000004</ele><time>2026-04-03T16:38:56.699Z</time></trkpt><trkpt lat="45.9783805" lon="12.7454321"><ele>29.0</ele><time>2026-04-03T16:38:59.699Z</time></trkpt><trkpt lat="45.9784243" lon="12.7453562"><ele>29.000000000000004</ele><time>2026-04-03T16:39:03.7Z</time></trkpt><trkpt lat="45.9784912" lon="12.7453171"><ele>29.000000000000004</ele><time>2026-04-03T16:39:08.699Z</time></trkpt><trkpt lat="45.9785908" lon="12.7453169"><ele>28.999999999999996</ele><time>2026-04-03T16:39:11.698Z</time></trkpt><trkpt lat="45.9786623" lon="12.7453031"><ele>29.0</ele><time>2026-04-03T16:39:12.698Z</time></trkpt><trkpt lat="45.9787603" lon="12.7452835"><ele>29.0</ele><time>2026-04-03T16:39:14.699Z</time></trkpt><trkpt lat="45.9788387" lon="12.7452656"><ele>29.0</ele><time>2026-04-03T16:39:16.699Z</time></trkpt><trkpt lat="45.9789155" lon="12.7452262"><ele>28.999999999999996</ele><time>2026-04-03T16:39:18.699Z</time></trkpt><trkpt lat="45.9790023" lon="12.7451663"><ele>29.0</ele><time>2026-04-03T16:39:20.699Z</time></trkpt><trkpt lat="45.9790434" lon="12.7450711"><ele>28.833333333333332</ele><time>2026-04-03T16:39:22.698Z</time></trkpt><trkpt lat="45.9790226" lon="12.7449482"><ele>28.666666666666664</ele><time>2026-04-03T16:39:24.698Z</time></trkpt><trkpt lat="45.9790115" lon="12.7448273"><ele>28.5</ele><time>2026-04-03T16:39:26.699Z</time></trkpt><trkpt lat="45.9790491" lon="12.744731"><ele>28.333333333333336</ele><time>2026-04-03T16:39:28.698Z</time></trkpt><trkpt lat="45.9791216" lon="12.7447073"><ele>28.166666666666668</ele><time>2026-04-03T16:39:30.699Z</time></trkpt><trkpt lat="45.9792015" lon="12.7447344"><ele>28.0</ele><time>2026-04-03T16:39:32.698Z</time></trkpt><trkpt lat="45.9792592" lon="12.744666"><ele>28.0</ele><time>2026-04-03T16:39:34.699Z</time></trkpt><trkpt lat="45.9792615" lon="12.7445271"><ele>27.999999999999996</ele><time>2026-04-03T16:39:36.699Z</time></trkpt><trkpt lat="45.9791753" lon="12.7444319"><ele>27.999999999999996</ele><time>2026-04-03T16:39:38.699Z</time></trkpt><trkpt lat="45.9790718" lon="12.7444511"><ele>28.0</ele><time>2026-04-03T16:39:40.699Z</time></trkpt><trkpt lat="45.9789977" lon="12.7445463"><ele>28.0</ele><time>2026-04-03T16:39:42.699Z</time></trkpt><trkpt lat="45.9789346" lon="12.7446365"><ele>28.799999999999997</ele><time>2026-04-03T16:39:44.7Z</time></trkpt><trkpt lat="45.9788986" lon="12.7447437"><ele>29.599999999999998</ele><time>2026-04-03T16:39:46.699Z</time></trkpt><trkpt lat="45.9788764" lon="12.7448635"><ele>30.400000000000002</ele><time>2026-04-03T16:39:48.698Z</time></trkpt><trkpt lat="45.9788243" lon="12.7449867"><ele>31.200000000000003</ele><time>2026-04-03T16:39:50.7Z</time></trkpt><trkpt lat="45.9787617" lon="12.7450882"><ele>32.0</ele><time>2026-04-03T16:39:52.698Z</time></trkpt><trkpt lat="45.9786767" lon="12.7451391"><ele>32.0</ele><time>2026-04-03T16:39:54.698Z</time></trkpt><trkpt lat="45.9785587" lon="12.7451853"><ele>32.0</ele><time>2026-04-03T16:39:56.699Z</time></trkpt><trkpt lat="45.978457" lon="12.7452282"><ele>32.0</ele><time>2026-04-03T16:39:58.7Z</time></trkpt><trkpt lat="45.9783553" lon="12.745278"><ele>32.0</ele><time>2026-04-03T16:40:00.698Z</time></trkpt><trkpt lat="45.9782602" lon="12.745343"><ele>32.0</ele><time>2026-04-03T16:40:02.698Z</time></trkpt><trkpt lat="45.9782258" lon="12.7454457"><ele>32.2</ele><time>2026-04-03T16:40:04.699Z</time></trkpt><trkpt lat="45.9782188" lon="12.7455786"><ele>32.400000000000006</ele><time>2026-04-03T16:40:06.699Z</time></trkpt><trkpt lat="45.9782241" lon="12.7457031"><ele>32.599999999999994</ele><time>2026-04-03T16:40:08.7Z</time></trkpt><trkpt lat="45.9782435" lon="12.745826"><ele>32.8</ele><time>2026-04-03T16:40:10.7Z</time></trkpt><trkpt lat="45.9782562" lon="12.745967"><ele>33.0</ele><time>2026-04-03T16:40:12.699Z</time></trkpt><trkpt lat="45.9782639" lon="12.7461146"><ele>32.6</ele><time>2026-04-03T16:40:14.699Z</time></trkpt><trkpt lat="45.9782862" lon="12.7462815"><ele>32.199999999999996</ele><time>2026-04-03T16:40:16.699Z</time></trkpt><trkpt lat="45.9783023" lon="12.7464101"><ele>31.8</ele><time>2026-04-03T16:40:18.7Z</time></trkpt><trkpt lat="45.978336" lon="12.7465019"><ele>31.4</ele><time>2026-04-03T16:40:20.7Z</time></trkpt><trkpt lat="45.9783891" lon="12.746601"><ele>31.0</ele><time>2026-04-03T16:40:22.7Z</time></trkpt><trkpt lat="45.9784617" lon="12.7467031"><ele>30.6</ele><time>2026-04-03T16:40:24.698Z</time></trkpt><trkpt lat="45.9785406" lon="12.7468175"><ele>30.200000000000003</ele><time>2026-04-03T16:40:26.699Z</time></trkpt><trkpt lat="45.9786141" lon="12.7469562"><ele>29.799999999999997</ele><time>2026-04-03T16:40:28.699Z</time></trkpt><trkpt lat="45.9786891" lon="12.7470522"><ele>29.4</ele><time>2026-04-03T16:40:30.699Z</time></trkpt><trkpt lat="45.9787848" lon="12.7471283"><ele>29.0</ele><time>2026-04-03T16:40:32.7Z</time></trkpt><trkpt lat="45.9788469" lon="12.7471614"><ele>28.999999999999996</ele><time>2026-04-03T16:40:34.698Z</time></trkpt><trkpt lat="45.9789125" lon="12.7471362"><ele>29.0</ele><time>2026-04-03T16:40:37.698Z</time></trkpt><trkpt lat="45.9789822" lon="12.747084"><ele>29.0</ele><time>2026-04-03T16:40:40.699Z</time></trkpt><trkpt lat="45.9790636" lon="12.7470799"><ele>29.0</ele><time>2026-04-03T16:40:42.7Z</time></trkpt><trkpt lat="45.9791136" lon="12.7471723"><ele>28.999999999999996</ele><time>2026-04-03T16:40:44.698Z</time></trkpt><trkpt lat="45.9791104" lon="12.7473295"><ele>29.0</ele><time>2026-04-03T16:40:46.699Z</time></trkpt><trkpt lat="45.9791219" lon="12.7474631"><ele>29.499999999999996</ele><time>2026-04-03T16:40:48.698Z</time></trkpt><trkpt lat="45.9791938" lon="12.747586"><ele>30.0</ele><time>2026-04-03T16:40:51.7Z</time></trkpt><trkpt lat="45.9792557" lon="12.7476675"><ele>30.5</ele><time>2026-04-03T16:40:53.699Z</time></trkpt><trkpt lat="45.9793517" lon="12.7476949"><ele>31.0</ele><time>2026-04-03T16:40:55.698Z</time></trkpt><trkpt lat="45.9794251" lon="12.747672"><ele>31.499999999999996</ele><time>2026-04-03T16:40:57.699Z</time></trkpt><trkpt lat="45.9794441" lon="12.7475716"><ele>32.0</ele><time>2026-04-03T16:40:59.7Z</time></trkpt><trkpt lat="45.9794076" lon="12.7474823"><ele>32.0</ele><time>2026-04-03T16:41:01.698Z</time></trkpt><trkpt lat="45.9793324" lon="12.7473996"><ele>32.0</ele><time>2026-04-03T16:41:03.699Z</time></trkpt><trkpt lat="45.9793084" lon="12.7472807"><ele>32.0</ele><time>2026-04-03T16:41:05.698Z</time></trkpt><trkpt lat="45.9793365" lon="12.7471841"><ele>32.0</ele><time>2026-04-03T16:41:06.699Z</time></trkpt><trkpt lat="45.9793554" lon="12.7470238"><ele>32.0</ele><time>2026-04-03T16:41:08.699Z</time></trkpt><trkpt lat="45.9793815" lon="12.7468745"><ele>31.666666666666664</ele><time>2026-04-03T16:41:10.698Z</time></trkpt><trkpt lat="45.9794109" lon="12.7467241"><ele>31.333333333333332</ele><time>2026-04-03T16:41:12.699Z</time></trkpt><trkpt lat="45.9794176" lon="12.7465521"><ele>31.0</ele><time>2026-04-03T16:41:14.699Z</time></trkpt><trkpt lat="45.9794145" lon="12.7464563"><ele>30.666666666666664</ele><time>2026-04-03T16:41:15.698Z</time></trkpt><trkpt lat="45.9794162" lon="12.7463576"><ele>30.333333333333332</ele><time>2026-04-03T16:41:16.699Z</time></trkpt><trkpt lat="45.9794073" lon="12.7462449"><ele>30.0</ele><time>2026-04-03T16:41:17.698Z</time></trkpt><trkpt lat="45.9793955" lon="12.7461297"><ele>29.833333333333332</ele><time>2026-04-03T16:41:18.698Z</time></trkpt><trkpt lat="45.9793842" lon="12.7459958"><ele>29.666666666666664</ele><time>2026-04-03T16:41:19.7Z</time></trkpt><trkpt lat="45.9793793" lon="12.7458578"><ele>29.5</ele><time>2026-04-03T16:41:20.7Z</time></trkpt><trkpt lat="45.9793824" lon="12.7457183"><ele>29.333333333333332</ele><time>2026-04-03T16:41:21.699Z</time></trkpt><trkpt lat="45.979384" lon="12.7455965"><ele>29.166666666666664</ele><time>2026-04-03T16:41:22.699Z</time></trkpt><trkpt lat="45.9793782" lon="12.7454884"><ele>29.0</ele><time>2026-04-03T16:41:23.698Z</time></trkpt><trkpt lat="45.9793669" lon="12.7453944"><ele>28.999999999999996</ele><time>2026-04-03T16:41:24.7Z</time></trkpt><trkpt lat="45.9793528" lon="12.745303"><ele>29.0</ele><time>2026-04-03T16:41:25.699Z</time></trkpt><trkpt lat="45.9793099" lon="12.7451561"><ele>29.0</ele><time>2026-04-03T16:41:27.7Z</time></trkpt><trkpt lat="45.9792546" lon="12.7450563"><ele>29.0</ele><time>2026-04-03T16:41:29.698Z</time></trkpt><trkpt lat="45.9791808" lon="12.745076"><ele>28.999999999999996</ele><time>2026-04-03T16:41:31.699Z</time></trkpt><trkpt lat="45.9791678" lon="12.7451963"><ele>29.0</ele><time>2026-04-03T16:41:33.699Z</time></trkpt><trkpt lat="45.9791775" lon="12.7453857"><ele>28.999999999999996</ele><time>2026-04-03T16:41:35.698Z</time></trkpt><trkpt lat="45.9791832" lon="12.7455329"><ele>29.0</ele><time>2026-04-03T16:41:37.699Z</time></trkpt><trkpt lat="45.9791501" lon="12.7456304"><ele>29.0</ele><time>2026-04-03T16:41:39.699Z</time></trkpt><trkpt lat="45.9790684" lon="12.7456809"><ele>29.0</ele><time>2026-04-03T16:41:41.698Z</time></trkpt><trkpt lat="45.9789914" lon="12.7457298"><ele>28.999999999999996</ele><time>2026-04-03T16:41:43.699Z</time></trkpt><trkpt lat="45.9789499" lon="12.7458164"><ele>29.0</ele><time>2026-04-03T16:41:45.699Z</time></trkpt><trkpt lat="45.9789368" lon="12.745952"><ele>29.0</ele><time>2026-04-03T16:41:47.698Z</time></trkpt><trkpt lat="45.9788853" lon="12.7460776"><ele>29.0</ele><time>2026-04-03T16:41:49.699Z</time></trkpt><trkpt lat="45.9788173" lon="12.7461161"><ele>29.0</ele><time>2026-04-03T16:41:51.698Z</time></trkpt><trkpt lat="45.978766" lon="12.7460383"><ele>29.0</ele><time>2026-04-03T16:41:53.697Z</time></trkpt><trkpt lat="45.9788066" lon="12.7458854"><ele>29.0</ele><time>2026-04-03T16:41:55.698Z</time></trkpt><trkpt lat="45.9788314" lon="12.7457335"><ele>28.999999999999996</ele><time>2026-04-03T16:41:57.698Z</time></trkpt><trkpt lat="45.978882" lon="12.7456243"><ele>29.0</ele><time>2026-04-03T16:41:59.697Z</time></trkpt><trkpt lat="45.9789562" lon="12.745531"><ele>29.0</ele><time>2026-04-03T16:42:01.697Z</time></trkpt><trkpt lat="45.9790097" lon="12.7454486"><ele>29.0</ele><time>2026-04-03T16:42:03.697Z</time></trkpt><trkpt lat="45.9789779" lon="12.7453614"><ele>28.999999999999996</ele><time>2026-04-03T16:42:05.697Z</time></trkpt><trkpt lat="45.978908" lon="12.7453885"><ele>29.0</ele><time>2026-04-03T16:42:07.698Z</time></trkpt><trkpt lat="45.9788513" lon="12.745522"><ele>29.0</ele><time>2026-04-03T16:42:09.698Z</time></trkpt><trkpt lat="45.9787645" lon="12.7455891"><ele>29.0</ele><time>2026-04-03T16:42:11.698Z</time></trkpt><trkpt lat="45.9786645" lon="12.7455901"><ele>29.0</ele><time>2026-04-03T16:42:13.698Z</time></trkpt><trkpt lat="45.9785746" lon="12.745572"><ele>29.0</ele><time>2026-04-03T16:42:15.697Z</time></trkpt><trkpt lat="45.9784898" lon="12.7455604"><ele>29.0</ele><time>2026-04-03T16:42:17.697Z</time></trkpt><trkpt lat="45.9784173" lon="12.7455212"><ele>28.999999999999996</ele><time>2026-04-03T16:42:19.698Z</time></trkpt><trkpt lat="45.9783931" lon="12.7454049"><ele>29.0</ele><time>2026-04-03T16:42:22.699Z</time></trkpt><trkpt lat="45.9784337" lon="12.7453324"><ele>29.0</ele><time>2026-04-03T16:42:25.698Z</time></trkpt><trkpt lat="45.9785186" lon="12.7453088"><ele>29.0</ele><time>2026-04-03T16:42:28.699Z</time></trkpt><trkpt lat="45.9786161" lon="12.7453052"><ele>28.999999999999996</ele><time>2026-04-03T16:42:30.697Z</time></trkpt><trkpt lat="45.9787204" lon="12.7452881"><ele>29.0</ele><time>2026-04-03T16:42:32.698Z</time></trkpt><trkpt lat="45.9788166" lon="12.7452748"><ele>28.999999999999996</ele><time>2026-04-03T16:42:34.698Z</time></trkpt><trkpt lat="45.9789048" lon="12.7452397"><ele>29.0</ele><time>2026-04-03T16:42:36.699Z</time></trkpt><trkpt lat="45.9789847" lon="12.745192"><ele>29.0</ele><time>2026-04-03T16:42:38.698Z</time></trkpt><trkpt lat="45.9790363" lon="12.7450971"><ele>29.0</ele><time>2026-04-03T16:42:40.698Z</time></trkpt><trkpt lat="45.9790441" lon="12.7449988"><ele>28.999999999999996</ele><time>2026-04-03T16:42:42.697Z</time></trkpt><trkpt lat="45.9790134" lon="12.7449196"><ele>29.0</ele><time>2026-04-03T16:42:43.697Z</time></trkpt><trkpt lat="45.9790098" lon="12.7448082"><ele>28.799999999999997</ele><time>2026-04-03T16:42:45.697Z</time></trkpt><trkpt lat="45.9790641" lon="12.7447149"><ele>28.599999999999998</ele><time>2026-04-03T16:42:47.698Z</time></trkpt><trkpt lat="45.9791498" lon="12.7447371"><ele>28.4</ele><time>2026-04-03T16:42:49.698Z</time></trkpt><trkpt lat="45.979253" lon="12.7447284"><ele>28.2</ele><time>2026-04-03T16:42:51.699Z</time></trkpt><trkpt lat="45.9792854" lon="12.7446064"><ele>28.0</ele><time>2026-04-03T16:42:53.699Z</time></trkpt><trkpt lat="45.9792425" lon="12.7444982"><ele>28.799999999999997</ele><time>2026-04-03T16:42:55.698Z</time></trkpt><trkpt lat="45.9791585" lon="12.7444345"><ele>29.599999999999998</ele><time>2026-04-03T16:42:57.698Z</time></trkpt><trkpt lat="45.9790705" lon="12.7444656"><ele>30.400000000000002</ele><time>2026-04-03T16:42:59.698Z</time></trkpt><trkpt lat="45.9789952" lon="12.7445541"><ele>31.200000000000003</ele><time>2026-04-03T16:43:01.697Z</time></trkpt><trkpt lat="45.9789305" lon="12.7446535"><ele>32.0</ele><time>2026-04-03T16:43:03.698Z</time></trkpt><trkpt lat="45.9788925" lon="12.7447635"><ele>31.999999999999996</ele><time>2026-04-03T16:43:05.698Z</time></trkpt><trkpt lat="45.9788654" lon="12.7448882"><ele>32.0</ele><time>2026-04-03T16:43:07.698Z</time></trkpt><trkpt lat="45.9788187" lon="12.7449962"><ele>32.0</ele><time>2026-04-03T16:43:09.699Z</time></trkpt><trkpt lat="45.9787573" lon="12.7450822"><ele>32.0</ele><time>2026-04-03T16:43:11.698Z</time></trkpt><trkpt lat="45.9786587" lon="12.7451341"><ele>31.999999999999996</ele><time>2026-04-03T16:43:13.699Z</time></trkpt><trkpt lat="45.9785949" lon="12.7451608"><ele>32.0</ele><time>2026-04-03T16:43:14.697Z</time></trkpt><trkpt lat="45.9784871" lon="12.74521"><ele>32.2</ele><time>2026-04-03T16:43:16.697Z</time></trkpt><trkpt lat="45.9783855" lon="12.7452655"><ele>32.400000000000006</ele><time>2026-04-03T16:43:18.697Z</time></trkpt><trkpt lat="45.978277" lon="12.7453322"><ele>32.599999999999994</ele><time>2026-04-03T16:43:20.698Z</time></trkpt><trkpt lat="45.978223" lon="12.745437"><ele>32.8</ele><time>2026-04-03T16:43:22.697Z</time></trkpt><trkpt lat="45.9782175" lon="12.7455672"><ele>33.0</ele><time>2026-04-03T16:43:24.698Z</time></trkpt><trkpt lat="45.9782236" lon="12.7457037"><ele>33.0</ele><time>2026-04-03T16:43:26.699Z</time></trkpt><trkpt lat="45.9782441" lon="12.7458337"><ele>33.0</ele><time>2026-04-03T16:43:28.698Z</time></trkpt><trkpt lat="45.9782596" lon="12.7459841"><ele>33.0</ele><time>2026-04-03T16:43:30.697Z</time></trkpt><trkpt lat="45.9782629" lon="12.7461317"><ele>33.0</ele><time>2026-04-03T16:43:32.698Z</time></trkpt><trkpt lat="45.9782884" lon="12.7462934"><ele>33.0</ele><time>2026-04-03T16:43:34.698Z</time></trkpt><trkpt lat="45.9782982" lon="12.7464342"><ele>32.6</ele><time>2026-04-03T16:43:36.698Z</time></trkpt><trkpt lat="45.9783346" lon="12.7465212"><ele>32.199999999999996</ele><time>2026-04-03T16:43:38.697Z</time></trkpt><trkpt lat="45.9783952" lon="12.7466237"><ele>31.8</ele><time>2026-04-03T16:43:40.698Z</time></trkpt><trkpt lat="45.9784766" lon="12.7467193"><ele>31.4</ele><time>2026-04-03T16:43:42.698Z</time></trkpt><trkpt lat="45.9785549" lon="12.7468286"><ele>31.0</ele><time>2026-04-03T16:43:44.697Z</time></trkpt><trkpt lat="45.978625" lon="12.7469761"><ele>30.666666666666668</ele><time>2026-04-03T16:43:46.698Z</time></trkpt><trkpt lat="45.9787044" lon="12.7470752"><ele>30.333333333333336</ele><time>2026-04-03T16:43:48.697Z</time></trkpt><trkpt lat="45.9787845" lon="12.7471444"><ele>30.0</ele><time>2026-04-03T16:43:50.697Z</time></trkpt><trkpt lat="45.9788526" lon="12.747165"><ele>29.666666666666664</ele><time>2026-04-03T16:43:52.698Z</time></trkpt><trkpt lat="45.9789264" lon="12.7471182"><ele>29.333333333333332</ele><time>2026-04-03T16:43:56.698Z</time></trkpt><trkpt lat="45.9789881" lon="12.7470785"><ele>29.0</ele><time>2026-04-03T16:43:58.698Z</time></trkpt><trkpt lat="45.9790626" lon="12.7470851"><ele>28.999999999999996</ele><time>2026-04-03T16:44:00.698Z</time></trkpt><trkpt lat="45.9791116" lon="12.7471865"><ele>29.0</ele><time>2026-04-03T16:44:02.697Z</time></trkpt><trkpt lat="45.9791057" lon="12.7473342"><ele>29.0</ele><time>2026-04-03T16:44:04.698Z</time></trkpt><trkpt lat="45.9791147" lon="12.7474366"><ele>29.0</ele><time>2026-04-03T16:44:06.697Z</time></trkpt><trkpt lat="45.9791664" lon="12.7475532"><ele>28.999999999999996</ele><time>2026-04-03T16:44:09.698Z</time></trkpt><trkpt lat="45.9792219" lon="12.7476352"><ele>29.0</ele><time>2026-04-03T16:44:11.699Z</time></trkpt><trkpt lat="45.9793019" lon="12.7476815"><ele>29.499999999999996</ele><time>2026-04-03T16:44:13.698Z</time></trkpt><trkpt lat="45.979383" lon="12.7476946"><ele>30.0</ele><time>2026-04-03T16:44:15.699Z</time></trkpt><trkpt lat="45.9794415" lon="12.7476194"><ele>30.5</ele><time>2026-04-03T16:44:17.697Z</time></trkpt><trkpt lat="45.9794269" lon="12.7475136"><ele>31.0</ele><time>2026-04-03T16:44:19.698Z</time></trkpt><trkpt lat="45.9793606" lon="12.7474368"><ele>31.499999999999996</ele><time>2026-04-03T16:44:21.697Z</time></trkpt><trkpt lat="45.9793222" lon="12.7473092"><ele>32.0</ele><time>2026-04-03T16:44:23.698Z</time></trkpt><trkpt lat="45.979339" lon="12.7471505"><ele>32.0</ele><time>2026-04-03T16:44:25.697Z</time></trkpt><trkpt lat="45.9793548" lon="12.7469881"><ele>32.0</ele><time>2026-04-03T16:44:27.697Z</time></trkpt><trkpt lat="45.9793879" lon="12.7468229"><ele>32.0</ele><time>2026-04-03T16:44:29.699Z</time></trkpt><trkpt lat="45.9794091" lon="12.7466842"><ele>32.0</ele><time>2026-04-03T16:44:31.698Z</time></trkpt><trkpt lat="45.9794116" lon="12.7464961"><ele>31.666666666666664</ele><time>2026-04-03T16:44:33.698Z</time></trkpt><trkpt lat="45.9794121" lon="12.7463903"><ele>31.333333333333332</ele><time>2026-04-03T16:44:34.698Z</time></trkpt><trkpt lat="45.9794035" lon="12.7462797"><ele>31.0</ele><time>2026-04-03T16:44:35.697Z</time></trkpt><trkpt lat="45.9793912" lon="12.7461523"><ele>30.666666666666664</ele><time>2026-04-03T16:44:36.698Z</time></trkpt><trkpt lat="45.9793788" lon="12.7460244"><ele>30.333333333333332</ele><time>2026-04-03T16:44:37.698Z</time></trkpt><trkpt lat="45.9793741" lon="12.7458916"><ele>30.0</ele><time>2026-04-03T16:44:38.697Z</time></trkpt><trkpt lat="45.9793762" lon="12.7457499"><ele>29.833333333333332</ele><time>2026-04-03T16:44:39.698Z</time></trkpt><trkpt lat="45.9793805" lon="12.7456095"><ele>29.666666666666664</ele><time>2026-04-03T16:44:40.699Z</time></trkpt><trkpt lat="45.9793784" lon="12.7454906"><ele>29.5</ele><time>2026-04-03T16:44:41.698Z</time></trkpt><trkpt lat="45.9793659" lon="12.7453925"><ele>29.333333333333332</ele><time>2026-04-03T16:44:42.697Z</time></trkpt><trkpt lat="45.9793469" lon="12.7452934"><ele>29.166666666666664</ele><time>2026-04-03T16:44:43.698Z</time></trkpt><trkpt lat="45.9793129" lon="12.7451426"><ele>29.0</ele><time>2026-04-03T16:44:45.698Z</time></trkpt><trkpt lat="45.9792402" lon="12.7450542"><ele>29.0</ele><time>2026-04-03T16:44:47.698Z</time></trkpt><trkpt lat="45.9791674" lon="12.7450843"><ele>29.0</ele><time>2026-04-03T16:44:49.699Z</time></trkpt><trkpt lat="45.9791605" lon="12.7452385"><ele>29.0</ele><time>2026-04-03T16:44:51.699Z</time></trkpt><trkpt lat="45.979174" lon="12.7454004"><ele>29.0</ele><time>2026-04-03T16:44:53.698Z</time></trkpt><trkpt lat="45.9791824" lon="12.7455447"><ele>29.0</ele><time>2026-04-03T16:44:55.697Z</time></trkpt><trkpt lat="45.9791466" lon="12.7456366"><ele>29.0</ele><time>2026-04-03T16:44:57.698Z</time></trkpt><trkpt lat="45.979056" lon="12.7456859"><ele>29.0</ele><time>2026-04-03T16:44:59.697Z</time></trkpt><trkpt lat="45.9789743" lon="12.7457515"><ele>29.0</ele><time>2026-04-03T16:45:01.698Z</time></trkpt><trkpt lat="45.9789416" lon="12.7458658"><ele>29.0</ele><time>2026-04-03T16:45:03.699Z</time></trkpt><trkpt lat="45.9789029" lon="12.7460168"><ele>29.0</ele><time>2026-04-03T16:45:05.697Z</time></trkpt><trkpt lat="45.9788521" lon="12.7461098"><ele>29.0</ele><time>2026-04-03T16:45:07.698Z</time></trkpt><trkpt lat="45.9787845" lon="12.7460701"><ele>29.0</ele><time>2026-04-03T16:45:09.699Z</time></trkpt><trkpt lat="45.9787911" lon="12.7459501"><ele>29.0</ele><time>2026-04-03T16:45:11.698Z</time></trkpt><trkpt lat="45.978824" lon="12.7457824"><ele>29.0</ele><time>2026-04-03T16:45:13.698Z</time></trkpt><trkpt lat="45.9788723" lon="12.7456651"><ele>29.0</ele><time>2026-04-03T16:45:15.698Z</time></trkpt><trkpt lat="45.9789422" lon="12.7455595"><ele>29.0</ele><time>2026-04-03T16:45:17.697Z</time></trkpt><trkpt lat="45.9790109" lon="12.7454608"><ele>29.0</ele><time>2026-04-03T16:45:19.697Z</time></trkpt><trkpt lat="45.9789467" lon="12.745371"><ele>29.0</ele><time>2026-04-03T16:45:22.697Z</time></trkpt><trkpt lat="45.9788807" lon="12.7454595"><ele>29.0</ele><time>2026-04-03T16:45:24.698Z</time></trkpt><trkpt lat="45.9788072" lon="12.7455595"><ele>29.0</ele><time>2026-04-03T16:45:26.698Z</time></trkpt><trkpt lat="45.9787134" lon="12.7455877"><ele>28.999999999999996</ele><time>2026-04-03T16:45:28.698Z</time></trkpt><trkpt lat="45.9786173" lon="12.7455757"><ele>29.0</ele><time>2026-04-03T16:45:30.698Z</time></trkpt><trkpt lat="45.9785289" lon="12.7455652"><ele>29.0</ele><time>2026-04-03T16:45:32.697Z</time></trkpt><trkpt lat="45.978453" lon="12.7455485"><ele>29.0</ele><time>2026-04-03T16:45:34.697Z</time></trkpt><trkpt lat="45.978402" lon="12.7454859"><ele>28.999999999999996</ele><time>2026-04-03T16:45:36.697Z</time></trkpt><trkpt lat="45.9784054" lon="12.7453779"><ele>29.0</ele><time>2026-04-03T16:45:39.697Z</time></trkpt><trkpt lat="45.9784592" lon="12.7453142"><ele>28.999999999999996</ele><time>2026-04-03T16:45:51.698Z</time></trkpt><trkpt lat="45.9785602" lon="12.7453045"><ele>29.0</ele><time>2026-04-03T16:45:54.698Z</time></trkpt><trkpt lat="45.978642" lon="12.745302"><ele>29.0</ele><time>2026-04-03T16:45:56.698Z</time></trkpt><trkpt lat="45.9787259" lon="12.7452859"><ele>29.0</ele><time>2026-04-03T16:45:58.698Z</time></trkpt><trkpt lat="45.9788131" lon="12.7452851"><ele>28.999999999999996</ele><time>2026-04-03T16:46:00.697Z</time></trkpt><trkpt lat="45.9789004" lon="12.7452414"><ele>29.0</ele><time>2026-04-03T16:46:02.697Z</time></trkpt><trkpt lat="45.9789907" lon="12.745173"><ele>29.499999999999996</ele><time>2026-04-03T16:46:04.698Z</time></trkpt><trkpt lat="45.979052" lon="12.7450897"><ele>30.0</ele><time>2026-04-03T16:46:06.698Z</time></trkpt><trkpt lat="45.9790355" lon="12.7449739"><ele>30.5</ele><time>2026-04-03T16:46:08.698Z</time></trkpt><trkpt lat="45.979016" lon="12.7448694"><ele>31.0</ele><time>2026-04-03T16:46:10.698Z</time></trkpt><trkpt lat="45.9790496" lon="12.7447612"><ele>31.499999999999996</ele><time>2026-04-03T16:46:12.699Z</time></trkpt><trkpt lat="45.9791106" lon="12.7446934"><ele>32.0</ele><time>2026-04-03T16:46:14.698Z</time></trkpt><trkpt lat="45.9791684" lon="12.7447392"><ele>32.0</ele><time>2026-04-03T16:46:15.698Z</time></trkpt><trkpt lat="45.979255" lon="12.7447217"><ele>32.0</ele><time>2026-04-03T16:46:17.699Z</time></trkpt><trkpt lat="45.9792893" lon="12.7446209"><ele>32.0</ele><time>2026-04-03T16:46:19.698Z</time></trkpt><trkpt lat="45.9792437" lon="12.7445046"><ele>32.0</ele><time>2026-04-03T16:46:21.698Z</time></trkpt><trkpt lat="45.979154" lon="12.7444421"><ele>32.0</ele><time>2026-04-03T16:46:23.698Z</time></trkpt><trkpt lat="45.9790626" lon="12.7444756"><ele>32.0</ele><time>2026-04-03T16:46:25.698Z</time></trkpt><trkpt lat="45.9789864" lon="12.7445706"><ele>32.0</ele><time>2026-04-03T16:46:27.698Z</time></trkpt><trkpt lat="45.9789293" lon="12.7446556"><ele>32.0</ele><time>2026-04-03T16:46:29.699Z</time></trkpt><trkpt lat="45.9788916" lon="12.7447845"><ele>32.0</ele><time>2026-04-03T16:46:31.697Z</time></trkpt><trkpt lat="45.9788587" lon="12.7449075"><ele>32.0</ele><time>2026-04-03T16:46:33.697Z</time></trkpt><trkpt lat="45.9788155" lon="12.7450245"><ele>32.0</ele><time>2026-04-03T16:46:35.697Z</time></trkpt><trkpt lat="45.9787413" lon="12.7451011"><ele>32.0</ele><time>2026-04-03T16:46:37.698Z</time></trkpt><trkpt lat="45.9786371" lon="12.7451537"><ele>32.0</ele><time>2026-04-03T16:46:39.698Z</time></trkpt><trkpt lat="45.9785209" lon="12.745202"><ele>32.0</ele><time>2026-04-03T16:46:41.698Z</time></trkpt><trkpt lat="45.9784136" lon="12.745248"><ele>32.0</ele><time>2026-04-03T16:46:43.697Z</time></trkpt><trkpt lat="45.9783158" lon="12.7453026"><ele>32.2</ele><time>2026-04-03T16:46:45.699Z</time></trkpt><trkpt lat="45.9782415" lon="12.7453841"><ele>32.400000000000006</ele><time>2026-04-03T16:46:47.698Z</time></trkpt><trkpt lat="45.9782221" lon="12.745503"><ele>32.599999999999994</ele><time>2026-04-03T16:46:49.697Z</time></trkpt><trkpt lat="45.9782237" lon="12.7456549"><ele>32.8</ele><time>2026-04-03T16:46:51.697Z</time></trkpt><trkpt lat="45.9782444" lon="12.7457929"><ele>33.0</ele><time>2026-04-03T16:46:53.698Z</time></trkpt><trkpt lat="45.9782599" lon="12.7459234"><ele>32.6</ele><time>2026-04-03T16:46:55.698Z</time></trkpt><trkpt lat="45.9782658" lon="12.7460825"><ele>32.199999999999996</ele><time>2026-04-03T16:46:57.698Z</time></trkpt><trkpt lat="45.9782792" lon="12.7462433"><ele>31.8</ele><time>2026-04-03T16:46:59.698Z</time></trkpt><trkpt lat="45.978297" lon="12.7463946"><ele>31.4</ele><time>2026-04-03T16:47:01.699Z</time></trkpt><trkpt lat="45.9783258" lon="12.7464985"><ele>31.0</ele><time>2026-04-03T16:47:03.698Z</time></trkpt><trkpt lat="45.9783807" lon="12.7465926"><ele>30.6</ele><time>2026-04-03T16:47:05.698Z</time></trkpt><trkpt lat="45.9784497" lon="12.7467032"><ele>30.200000000000003</ele><time>2026-04-03T16:47:07.697Z</time></trkpt><trkpt lat="45.9785324" lon="12.7468063"><ele>29.799999999999997</ele><time>2026-04-03T16:47:09.698Z</time></trkpt><trkpt lat="45.9785997" lon="12.7469283"><ele>29.4</ele><time>2026-04-03T16:47:11.697Z</time></trkpt><trkpt lat="45.9786745" lon="12.7470368"><ele>29.0</ele><time>2026-04-03T16:47:13.698Z</time></trkpt><trkpt lat="45.9787595" lon="12.7471078"><ele>28.999999999999996</ele><time>2026-04-03T16:47:15.697Z</time></trkpt><trkpt lat="45.978835" lon="12.7471502"><ele>29.0</ele><time>2026-04-03T16:47:17.698Z</time></trkpt><trkpt lat="45.978902" lon="12.7471358"><ele>29.0</ele><time>2026-04-03T16:47:20.697Z</time></trkpt><trkpt lat="45.9789733" lon="12.7470775"><ele>29.0</ele><time>2026-04-03T16:47:23.698Z</time></trkpt><trkpt lat="45.9790493" lon="12.7470643"><ele>28.999999999999996</ele><time>2026-04-03T16:47:25.698Z</time></trkpt><trkpt lat="45.979107" lon="12.7471365"><ele>29.0</ele><time>2026-04-03T16:47:27.697Z</time></trkpt><trkpt lat="45.9791129" lon="12.7472875"><ele>28.999999999999996</ele><time>2026-04-03T16:47:29.697Z</time></trkpt><trkpt lat="45.9791217" lon="12.7474004"><ele>29.0</ele><time>2026-04-03T16:47:31.697Z</time></trkpt><trkpt lat="45.9791594" lon="12.7475113"><ele>29.0</ele><time>2026-04-03T16:47:34.698Z</time></trkpt><trkpt lat="45.979215" lon="12.747574"><ele>29.0</ele><time>2026-04-03T16:47:36.698Z</time></trkpt><trkpt lat="45.9792815" lon="12.747649"><ele>28.999999999999996</ele><time>2026-04-03T16:47:38.698Z</time></trkpt><trkpt lat="45.9793792" lon="12.7476939"><ele>29.0</ele><time>2026-04-03T16:47:40.697Z</time></trkpt><trkpt lat="45.9794409" lon="12.7476398"><ele>29.6</ele><time>2026-04-03T16:47:42.698Z</time></trkpt><trkpt lat="45.9794469" lon="12.7475409"><ele>30.2</ele><time>2026-04-03T16:47:44.697Z</time></trkpt><trkpt lat="45.9793852" lon="12.7474585"><ele>30.800000000000004</ele><time>2026-04-03T16:47:46.698Z</time></trkpt><trkpt lat="45.9793294" lon="12.7473521"><ele>31.400000000000002</ele><time>2026-04-03T16:47:48.698Z</time></trkpt><trkpt lat="45.9793384" lon="12.7471924"><ele>32.0</ele><time>2026-04-03T16:47:50.698Z</time></trkpt><trkpt lat="45.9793582" lon="12.7470317"><ele>31.6</ele><time>2026-04-03T16:47:52.697Z</time></trkpt><trkpt lat="45.9793907" lon="12.7468669"><ele>31.200000000000003</ele><time>2026-04-03T16:47:54.698Z</time></trkpt><trkpt lat="45.979417" lon="12.7466933"><ele>30.8</ele><time>2026-04-03T16:47:56.698Z</time></trkpt><trkpt lat="45.979418" lon="12.7465096"><ele>30.4</ele><time>2026-04-03T16:47:58.697Z</time></trkpt><trkpt lat="45.979419" lon="12.7464004"><ele>30.0</ele><time>2026-04-03T16:47:59.697Z</time></trkpt><trkpt lat="45.9794127" lon="12.7462957"><ele>30.0</ele><time>2026-04-03T16:48:00.698Z</time></trkpt><trkpt lat="45.9793976" lon="12.7461754"><ele>30.0</ele><time>2026-04-03T16:48:01.697Z</time></trkpt><trkpt lat="45.9793883" lon="12.7460488"><ele>30.0</ele><time>2026-04-03T16:48:02.697Z</time></trkpt><trkpt lat="45.9793782" lon="12.7459092"><ele>30.0</ele><time>2026-04-03T16:48:03.697Z</time></trkpt><trkpt lat="45.9793812" lon="12.7457508"><ele>30.0</ele><time>2026-04-03T16:48:04.698Z</time></trkpt><trkpt lat="45.9793821" lon="12.7456095"><ele>29.833333333333332</ele><time>2026-04-03T16:48:05.697Z</time></trkpt><trkpt lat="45.9793823" lon="12.7454955"><ele>29.666666666666664</ele><time>2026-04-03T16:48:06.698Z</time></trkpt><trkpt lat="45.9793717" lon="12.745398"><ele>29.5</ele><time>2026-04-03T16:48:07.697Z</time></trkpt><trkpt lat="45.9793504" lon="12.7453006"><ele>29.333333333333332</ele><time>2026-04-03T16:48:08.697Z</time></trkpt><trkpt lat="45.9793164" lon="12.7451413"><ele>29.166666666666664</ele><time>2026-04-03T16:48:10.697Z</time></trkpt><trkpt lat="45.9792546" lon="12.7450527"><ele>29.0</ele><time>2026-04-03T16:48:12.698Z</time></trkpt><trkpt lat="45.9791804" lon="12.7450705"><ele>28.999999999999996</ele><time>2026-04-03T16:48:14.697Z</time></trkpt><trkpt lat="45.9791649" lon="12.745208"><ele>29.0</ele><time>2026-04-03T16:48:16.697Z</time></trkpt><trkpt lat="45.9791736" lon="12.7452978"><ele>29.0</ele><time>2026-04-03T16:48:17.698Z</time></trkpt><trkpt lat="45.9791786" lon="12.7453888"><ele>29.0</ele><time>2026-04-03T16:48:18.697Z</time></trkpt><trkpt lat="45.9791848" lon="12.7455343"><ele>28.999999999999996</ele><time>2026-04-03T16:48:20.697Z</time></trkpt><trkpt lat="45.9791563" lon="12.7456289"><ele>29.0</ele><time>2026-04-03T16:48:22.699Z</time></trkpt><trkpt lat="45.9790778" lon="12.7456821"><ele>28.999999999999996</ele><time>2026-04-03T16:48:24.698Z</time></trkpt><trkpt lat="45.9789955" lon="12.7457338"><ele>29.0</ele><time>2026-04-03T16:48:26.698Z</time></trkpt><trkpt lat="45.978955" lon="12.7458201"><ele>29.0</ele><time>2026-04-03T16:48:28.697Z</time></trkpt><trkpt lat="45.9789248" lon="12.7459743"><ele>29.0</ele><time>2026-04-03T16:48:30.697Z</time></trkpt><trkpt lat="45.9788796" lon="12.7460984"><ele>28.999999999999996</ele><time>2026-04-03T16:48:32.698Z</time></trkpt><trkpt lat="45.9788054" lon="12.7461087"><ele>29.0</ele><time>2026-04-03T16:48:34.697Z</time></trkpt><trkpt lat="45.9787943" lon="12.7459931"><ele>29.0</ele><time>2026-04-03T16:48:36.697Z</time></trkpt><trkpt lat="45.9788181" lon="12.745836"><ele>29.0</ele><time>2026-04-03T16:48:38.699Z</time></trkpt><trkpt lat="45.978859" lon="12.7457222"><ele>29.0</ele><time>2026-04-03T16:48:40.697Z</time></trkpt><trkpt lat="45.9789322" lon="12.7456071"><ele>29.0</ele><time>2026-04-03T16:48:42.698Z</time></trkpt><trkpt lat="45.9790055" lon="12.745505"><ele>29.0</ele><time>2026-04-03T16:48:44.697Z</time></trkpt><trkpt lat="45.9790024" lon="12.7454055"><ele>29.0</ele><time>2026-04-03T16:48:46.698Z</time></trkpt><trkpt lat="45.9789196" lon="12.7453689"><ele>29.0</ele><time>2026-04-03T16:48:48.698Z</time></trkpt><trkpt lat="45.9788396" lon="12.7454874"><ele>29.0</ele><time>2026-04-03T16:48:50.697Z</time></trkpt><trkpt lat="45.9787617" lon="12.7455782"><ele>29.0</ele><time>2026-04-03T16:48:52.699Z</time></trkpt><trkpt lat="45.9786632" lon="12.7455862"><ele>29.0</ele><time>2026-04-03T16:48:54.698Z</time></trkpt><trkpt lat="45.9785741" lon="12.7455716"><ele>28.999999999999996</ele><time>2026-04-03T16:48:56.698Z</time></trkpt><trkpt lat="45.9784845" lon="12.7455581"><ele>29.0</ele><time>2026-04-03T16:48:58.698Z</time></trkpt><trkpt lat="45.9784002" lon="12.745505"><ele>29.0</ele><time>2026-04-03T16:49:00.697Z</time></trkpt><trkpt lat="45.9784054" lon="12.7453938"><ele>29.0</ele><time>2026-04-03T16:49:03.698Z</time></trkpt><trkpt lat="45.9784664" lon="12.7453096"><ele>28.999999999999996</ele><time>2026-04-03T16:49:24.698Z</time></trkpt><trkpt lat="45.9785701" lon="12.7453046"><ele>29.0</ele><time>2026-04-03T16:49:27.697Z</time></trkpt><trkpt lat="45.9786621" lon="12.7452917"><ele>28.999999999999996</ele><time>2026-04-03T16:49:29.697Z</time></trkpt><trkpt lat="45.9787515" lon="12.7452696"><ele>29.0</ele><time>2026-04-03T16:49:31.697Z</time></trkpt><trkpt lat="45.97884" lon="12.745261"><ele>29.0</ele><time>2026-04-03T16:49:33.698Z</time></trkpt><trkpt lat="45.9789172" lon="12.7452247"><ele>29.0</ele><time>2026-04-03T16:49:35.698Z</time></trkpt><trkpt lat="45.9789981" lon="12.7451661"><ele>28.999999999999996</ele><time>2026-04-03T16:49:37.698Z</time></trkpt><trkpt lat="45.9790607" lon="12.7450786"><ele>29.0</ele><time>2026-04-03T16:49:39.698Z</time></trkpt><trkpt lat="45.9790448" lon="12.7449667"><ele>28.833333333333332</ele><time>2026-04-03T16:49:41.697Z</time></trkpt><trkpt lat="45.9790217" lon="12.7448556"><ele>28.666666666666664</ele><time>2026-04-03T16:49:43.698Z</time></trkpt><trkpt lat="45.9790625" lon="12.7447489"><ele>28.5</ele><time>2026-04-03T16:49:45.699Z</time></trkpt><trkpt lat="45.9791328" lon="12.7447107"><ele>28.333333333333336</ele><time>2026-04-03T16:49:47.697Z</time></trkpt><trkpt lat="45.9792198" lon="12.744741"><ele>28.166666666666668</ele><time>2026-04-03T16:49:49.698Z</time></trkpt><trkpt lat="45.9792769" lon="12.7446657"><ele>28.0</ele><time>2026-04-03T16:49:51.697Z</time></trkpt><trkpt lat="45.9792844" lon="12.7445363"><ele>28.0</ele><time>2026-04-03T16:49:53.698Z</time></trkpt><trkpt lat="45.979208" lon="12.7444553"><ele>27.999999999999996</ele><time>2026-04-03T16:49:55.698Z</time></trkpt><trkpt lat="45.9791193" lon="12.7444375"><ele>27.999999999999996</ele><time>2026-04-03T16:49:57.698Z</time></trkpt><trkpt lat="45.9790465" lon="12.744495"><ele>28.0</ele><time>2026-04-03T16:49:59.697Z</time></trkpt><trkpt lat="45.9789703" lon="12.7445857"><ele>28.0</ele><time>2026-04-03T16:50:01.698Z</time></trkpt><trkpt lat="45.9789196" lon="12.7446856"><ele>28.799999999999997</ele><time>2026-04-03T16:50:03.698Z</time></trkpt><trkpt lat="45.9788895" lon="12.7448017"><ele>29.599999999999998</ele><time>2026-04-03T16:50:05.699Z</time></trkpt><trkpt lat="45.9788545" lon="12.7449328"><ele>30.400000000000002</ele><time>2026-04-03T16:50:07.697Z</time></trkpt><trkpt lat="45.9787968" lon="12.7450368"><ele>31.200000000000003</ele><time>2026-04-03T16:50:09.698Z</time></trkpt><trkpt lat="45.9787244" lon="12.7451017"><ele>32.0</ele><time>2026-04-03T16:50:11.697Z</time></trkpt><trkpt lat="45.9786219" lon="12.7451513"><ele>32.0</ele><time>2026-04-03T16:50:13.698Z</time></trkpt><trkpt lat="45.978559" lon="12.7451807"><ele>32.0</ele><time>2026-04-03T16:50:14.698Z</time></trkpt><trkpt lat="45.9784514" lon="12.7452238"><ele>32.0</ele><time>2026-04-03T16:50:16.698Z</time></trkpt><trkpt lat="45.9783508" lon="12.7452797"><ele>32.0</ele><time>2026-04-03T16:50:18.698Z</time></trkpt><trkpt lat="45.9782583" lon="12.7453499"><ele>32.0</ele><time>2026-04-03T16:50:20.698Z</time></trkpt><trkpt lat="45.9782273" lon="12.7454706"><ele>32.2</ele><time>2026-04-03T16:50:22.699Z</time></trkpt><trkpt lat="45.9782276" lon="12.745607"><ele>32.400000000000006</ele><time>2026-04-03T16:50:24.698Z</time></trkpt><trkpt lat="45.9782331" lon="12.7457493"><ele>32.599999999999994</ele><time>2026-04-03T16:50:26.697Z</time></trkpt><trkpt lat="45.978256" lon="12.7458794"><ele>32.8</ele><time>2026-04-03T16:50:28.699Z</time></trkpt><trkpt lat="45.9782591" lon="12.7460145"><ele>33.0</ele><time>2026-04-03T16:50:30.698Z</time></trkpt><trkpt lat="45.9782751" lon="12.7461753"><ele>32.6</ele><time>2026-04-03T16:50:32.698Z</time></trkpt><trkpt lat="45.9782973" lon="12.7463353"><ele>32.199999999999996</ele><time>2026-04-03T16:50:34.698Z</time></trkpt><trkpt lat="45.9783134" lon="12.7464522"><ele>31.8</ele><time>2026-04-03T16:50:36.698Z</time></trkpt><trkpt lat="45.9783547" lon="12.7465434"><ele>31.4</ele><time>2026-04-03T16:50:38.698Z</time></trkpt><trkpt lat="45.9784155" lon="12.746646"><ele>31.0</ele><time>2026-04-03T16:50:40.698Z</time></trkpt><trkpt lat="45.9784974" lon="12.7467454"><ele>30.6</ele><time>2026-04-03T16:50:42.697Z</time></trkpt><trkpt lat="45.9785645" lon="12.7468738"><ele>30.200000000000003</ele><time>2026-04-03T16:50:44.698Z</time></trkpt><trkpt lat="45.9786418" lon="12.7470089"><ele>29.799999999999997</ele><time>2026-04-03T16:50:46.697Z</time></trkpt><trkpt lat="45.9786889" lon="12.7470717"><ele>29.4</ele><time>2026-04-03T16:50:47.697Z</time></trkpt><trkpt lat="45.9787784" lon="12.7471316"><ele>29.0</ele><time>2026-04-03T16:50:49.698Z</time></trkpt><trkpt lat="45.9788437" lon="12.7471595"><ele>28.999999999999996</ele><time>2026-04-03T16:50:51.697Z</time></trkpt><trkpt lat="45.9789138" lon="12.7471264"><ele>29.0</ele><time>2026-04-03T16:50:54.697Z</time></trkpt><trkpt lat="45.978975" lon="12.7470897"><ele>29.0</ele><time>2026-04-03T16:50:56.699Z</time></trkpt><trkpt lat="45.9790499" lon="12.7470648"><ele>29.0</ele><time>2026-04-03T16:50:58.698Z</time></trkpt><trkpt lat="45.9791104" lon="12.7471521"><ele>28.999999999999996</ele><time>2026-04-03T16:51:00.698Z</time></trkpt><trkpt lat="45.9791153" lon="12.7472929"><ele>29.0</ele><time>2026-04-03T16:51:02.698Z</time></trkpt><trkpt lat="45.9791143" lon="12.7474105"><ele>28.999999999999996</ele><time>2026-04-03T16:51:04.698Z</time></trkpt><trkpt lat="45.9791445" lon="12.7475018"><ele>29.0</ele><time>2026-04-03T16:51:06.698Z</time></trkpt><trkpt lat="45.979198" lon="12.7475755"><ele>29.0</ele><time>2026-04-03T16:51:08.699Z</time></trkpt><trkpt lat="45.979268" lon="12.7476572"><ele>29.0</ele><time>2026-04-03T16:51:10.699Z</time></trkpt><trkpt lat="45.9793647" lon="12.7476946"><ele>28.999999999999996</ele><time>2026-04-03T16:51:12.698Z</time></trkpt><trkpt lat="45.9794408" lon="12.7476523"><ele>29.0</ele><time>2026-04-03T16:51:14.697Z</time></trkpt><trkpt lat="45.9794451" lon="12.747532"><ele>29.2</ele><time>2026-04-03T16:51:16.698Z</time></trkpt><trkpt lat="45.9793628" lon="12.7474344"><ele>29.4</ele><time>2026-04-03T16:51:18.697Z</time></trkpt><trkpt lat="45.9793225" lon="12.7473116"><ele>29.6</ele><time>2026-04-03T16:51:20.697Z</time></trkpt><trkpt lat="45.9793431" lon="12.7471541"><ele>29.8</ele><time>2026-04-03T16:51:22.697Z</time></trkpt><trkpt lat="45.9793603" lon="12.7470001"><ele>30.0</ele><time>2026-04-03T16:51:24.698Z</time></trkpt><trkpt lat="45.9793928" lon="12.746861"><ele>30.0</ele><time>2026-04-03T16:51:26.698Z</time></trkpt><trkpt lat="45.9794028" lon="12.7467715"><ele>30.0</ele><time>2026-04-03T16:51:27.697Z</time></trkpt><trkpt lat="45.9794199" lon="12.7465946"><ele>30.0</ele><time>2026-04-03T16:51:29.697Z</time></trkpt><trkpt lat="45.979417" lon="12.7464866"><ele>30.0</ele><time>2026-04-03T16:51:30.698Z</time></trkpt><trkpt lat="45.9794162" lon="12.7463754"><ele>30.0</ele><time>2026-04-03T16:51:31.697Z</time></trkpt><trkpt lat="45.9794083" lon="12.7462813"><ele>30.0</ele><time>2026-04-03T16:51:32.697Z</time></trkpt><trkpt lat="45.979391" lon="12.7461663"><ele>29.8</ele><time>2026-04-03T16:51:33.698Z</time></trkpt><trkpt lat="45.9793811" lon="12.746031"><ele>29.6</ele><time>2026-04-03T16:51:34.697Z</time></trkpt><trkpt lat="45.9793763" lon="12.7458748"><ele>29.4</ele><time>2026-04-03T16:51:35.698Z</time></trkpt><trkpt lat="45.9793803" lon="12.74571"><ele>29.2</ele><time>2026-04-03T16:51:36.698Z</time></trkpt><trkpt lat="45.9793805" lon="12.7455782"><ele>29.0</ele><time>2026-04-03T16:51:37.698Z</time></trkpt><trkpt lat="45.9793746" lon="12.7454768"><ele>28.999999999999996</ele><time>2026-04-03T16:51:38.698Z</time></trkpt><trkpt lat="45.9793618" lon="12.7453852"><ele>29.0</ele><time>2026-04-03T16:51:39.698Z</time></trkpt><trkpt lat="45.9793481" lon="12.7452925"><ele>29.0</ele><time>2026-04-03T16:51:40.698Z</time></trkpt><trkpt lat="45.9793259" lon="12.7451994"><ele>29.0</ele><time>2026-04-03T16:51:41.697Z</time></trkpt><trkpt lat="45.9792732" lon="12.7450696"><ele>28.999999999999996</ele><time>2026-04-03T16:51:43.698Z</time></trkpt><trkpt lat="45.9791871" lon="12.7450547"><ele>29.0</ele><time>2026-04-03T16:51:45.698Z</time></trkpt><trkpt lat="45.979152" lon="12.7451705"><ele>29.0</ele><time>2026-04-03T16:51:47.699Z</time></trkpt><trkpt lat="45.9791703" lon="12.7453355"><ele>29.0</ele><time>2026-04-03T16:51:49.697Z</time></trkpt><trkpt lat="45.97918" lon="12.745485"><ele>29.0</ele><time>2026-04-03T16:51:51.697Z</time></trkpt><trkpt lat="45.9791751" lon="12.7455942"><ele>29.0</ele><time>2026-04-03T16:51:53.698Z</time></trkpt><trkpt lat="45.9791133" lon="12.7456635"><ele>29.0</ele><time>2026-04-03T16:51:55.698Z</time></trkpt><trkpt lat="45.9790195" lon="12.7457086"><ele>28.999999999999996</ele><time>2026-04-03T16:51:57.698Z</time></trkpt><trkpt lat="45.9789615" lon="12.7457913"><ele>29.0</ele><time>2026-04-03T16:51:59.698Z</time></trkpt><trkpt lat="45.9789299" lon="12.745936"><ele>29.0</ele><time>2026-04-03T16:52:01.697Z</time></trkpt><trkpt lat="45.9788858" lon="12.7460759"><ele>29.0</ele><time>2026-04-03T16:52:03.698Z</time></trkpt><trkpt lat="45.9788074" lon="12.7460825"><ele>28.999999999999996</ele><time>2026-04-03T16:52:05.698Z</time></trkpt><trkpt lat="45.9787975" lon="12.7459899"><ele>29.0</ele><time>2026-04-03T16:52:07.698Z</time></trkpt><trkpt lat="45.9788288" lon="12.745827"><ele>29.0</ele><time>2026-04-03T16:52:09.698Z</time></trkpt><trkpt lat="45.9788744" lon="12.7456922"><ele>29.0</ele><time>2026-04-03T16:52:11.698Z</time></trkpt><trkpt lat="45.9789519" lon="12.7455929"><ele>29.0</ele><time>2026-04-03T16:52:13.697Z</time></trkpt><trkpt lat="45.9790133" lon="12.7454774"><ele>29.0</ele><time>2026-04-03T16:52:15.698Z</time></trkpt><trkpt lat="45.978996" lon="12.745384"><ele>29.0</ele><time>2026-04-03T16:52:17.697Z</time></trkpt><trkpt lat="45.9789163" lon="12.7453822"><ele>29.0</ele><time>2026-04-03T16:52:19.697Z</time></trkpt><trkpt lat="45.978873" lon="12.7454937"><ele>29.0</ele><time>2026-04-03T16:52:21.697Z</time></trkpt><trkpt lat="45.9787745" lon="12.7455826"><ele>29.0</ele><time>2026-04-03T16:52:23.698Z</time></trkpt><trkpt lat="45.9786697" lon="12.745594"><ele>29.0</ele><time>2026-04-03T16:52:25.698Z</time></trkpt><trkpt lat="45.9785786" lon="12.7455777"><ele>29.0</ele><time>2026-04-03T16:52:27.698Z</time></trkpt><trkpt lat="45.9785007" lon="12.745566"><ele>28.999999999999996</ele><time>2026-04-03T16:52:29.697Z</time></trkpt><trkpt lat="45.9784363" lon="12.7455431"><ele>29.0</ele><time>2026-04-03T16:52:31.698Z</time></trkpt><trkpt lat="45.9783939" lon="12.7454366"><ele>29.0</ele><time>2026-04-03T16:52:34.698Z</time></trkpt><trkpt lat="45.9784443" lon="12.745338"><ele>29.0</ele><time>2026-04-03T16:52:38.698Z</time></trkpt><trkpt lat="45.9785102" lon="12.7453236"><ele>28.999999999999996</ele><time>2026-04-03T16:52:40.698Z</time></trkpt><trkpt lat="45.9786109" lon="12.7453146"><ele>29.0</ele><time>2026-04-03T16:52:42.697Z</time></trkpt><trkpt lat="45.9787179" lon="12.7452944"><ele>29.0</ele><time>2026-04-03T16:52:44.698Z</time></trkpt><trkpt lat="45.978818" lon="12.7452763"><ele>29.0</ele><time>2026-04-03T16:52:46.697Z</time></trkpt><trkpt lat="45.978907" lon="12.7452465"><ele>29.0</ele><time>2026-04-03T16:52:48.697Z</time></trkpt><trkpt lat="45.9789838" lon="12.7451822"><ele>29.0</ele><time>2026-04-03T16:52:50.699Z</time></trkpt><trkpt lat="45.9790392" lon="12.7450824"><ele>29.0</ele><time>2026-04-03T16:52:52.699Z</time></trkpt><trkpt lat="45.979028" lon="12.7449682"><ele>28.799999999999997</ele><time>2026-04-03T16:52:54.698Z</time></trkpt><trkpt lat="45.979003" lon="12.7448301"><ele>28.599999999999998</ele><time>2026-04-03T16:52:56.698Z</time></trkpt><trkpt lat="45.9790578" lon="12.7447305"><ele>28.4</ele><time>2026-04-03T16:52:58.697Z</time></trkpt><trkpt lat="45.9791468" lon="12.7447337"><ele>28.2</ele><time>2026-04-03T16:53:00.698Z</time></trkpt><trkpt lat="45.9792621" lon="12.7447359"><ele>28.0</ele><time>2026-04-03T16:53:02.697Z</time></trkpt><trkpt lat="45.9792922" lon="12.7446222"><ele>28.0</ele><time>2026-04-03T16:53:04.697Z</time></trkpt><trkpt lat="45.9792505" lon="12.7444982"><ele>27.999999999999996</ele><time>2026-04-03T16:53:06.697Z</time></trkpt><trkpt lat="45.9791566" lon="12.7444424"><ele>27.999999999999996</ele><time>2026-04-03T16:53:08.698Z</time></trkpt><trkpt lat="45.9790604" lon="12.744477"><ele>28.0</ele><time>2026-04-03T16:53:10.698Z</time></trkpt><trkpt lat="45.97898" lon="12.7445727"><ele>28.0</ele><time>2026-04-03T16:53:12.698Z</time></trkpt><trkpt lat="45.9789196" lon="12.7446709"><ele>28.799999999999997</ele><time>2026-04-03T16:53:14.698Z</time></trkpt><trkpt lat="45.9788874" lon="12.7447911"><ele>29.599999999999998</ele><time>2026-04-03T16:53:16.697Z</time></trkpt><trkpt lat="45.9788508" lon="12.7449214"><ele>30.400000000000002</ele><time>2026-04-03T16:53:18.698Z</time></trkpt><trkpt lat="45.9787904" lon="12.7450413"><ele>31.200000000000003</ele><time>2026-04-03T16:53:20.699Z</time></trkpt><trkpt lat="45.9787138" lon="12.7451162"><ele>32.0</ele><time>2026-04-03T16:53:22.698Z</time></trkpt><trkpt lat="45.9785962" lon="12.7451706"><ele>32.0</ele><time>2026-04-03T16:53:24.699Z</time></trkpt><trkpt lat="45.9785293" lon="12.7451966"><ele>32.0</ele><time>2026-04-03T16:53:25.698Z</time></trkpt><trkpt lat="45.9784132" lon="12.7452427"><ele>32.0</ele><time>2026-04-03T16:53:27.697Z</time></trkpt><trkpt lat="45.9783113" lon="12.7453003"><ele>32.0</ele><time>2026-04-03T16:53:29.698Z</time></trkpt><trkpt lat="45.9782367" lon="12.7453773"><ele>32.0</ele><time>2026-04-03T16:53:31.698Z</time></trkpt><trkpt lat="45.9782211" lon="12.7455072"><ele>32.2</ele><time>2026-04-03T16:53:33.697Z</time></trkpt><trkpt lat="45.9782256" lon="12.7456505"><ele>32.400000000000006</ele><time>2026-04-03T16:53:35.697Z</time></trkpt><trkpt lat="45.9782401" lon="12.7457774"><ele>32.599999999999994</ele><time>2026-04-03T16:53:37.698Z</time></trkpt><trkpt lat="45.9782603" lon="12.7459264"><ele>32.8</ele><time>2026-04-03T16:53:39.697Z</time></trkpt><trkpt lat="45.9782626" lon="12.7460632"><ele>33.0</ele><time>2026-04-03T16:53:41.698Z</time></trkpt><trkpt lat="45.9782789" lon="12.7462186"><ele>32.6</ele><time>2026-04-03T16:53:43.698Z</time></trkpt><trkpt lat="45.9782986" lon="12.7463633"><ele>32.199999999999996</ele><time>2026-04-03T16:53:45.698Z</time></trkpt><trkpt lat="45.9783197" lon="12.7464744"><ele>31.8</ele><time>2026-04-03T16:53:47.699Z</time></trkpt><trkpt lat="45.9783654" lon="12.746569"><ele>31.4</ele><time>2026-04-03T16:53:49.698Z</time></trkpt><trkpt lat="45.978437" lon="12.7466709"><ele>31.0</ele><time>2026-04-03T16:53:51.697Z</time></trkpt><trkpt lat="45.9785257" lon="12.7467825"><ele>30.666666666666668</ele><time>2026-04-03T16:53:53.698Z</time></trkpt><trkpt lat="45.9785941" lon="12.7469217"><ele>30.333333333333336</ele><time>2026-04-03T16:53:55.698Z</time></trkpt><trkpt lat="45.9786365" lon="12.7469928"><ele>30.0</ele><time>2026-04-03T16:53:56.699Z</time></trkpt><trkpt lat="45.9787229" lon="12.7470828"><ele>29.666666666666664</ele><time>2026-04-03T16:53:58.698Z</time></trkpt><trkpt lat="45.9788035" lon="12.7471346"><ele>29.333333333333332</ele><time>2026-04-03T16:54:00.698Z</time></trkpt><trkpt lat="45.9788724" lon="12.7471527"><ele>29.0</ele><time>2026-04-03T16:54:02.697Z</time></trkpt><trkpt lat="45.9789606" lon="12.7470973"><ele>28.999999999999996</ele><time>2026-04-03T16:54:07.698Z</time></trkpt><trkpt lat="45.9790387" lon="12.7470674"><ele>29.0</ele><time>2026-04-03T16:54:09.698Z</time></trkpt><trkpt lat="45.9791065" lon="12.7471343"><ele>29.0</ele><time>2026-04-03T16:54:11.698Z</time></trkpt><trkpt lat="45.9791196" lon="12.7472744"><ele>29.0</ele><time>2026-04-03T16:54:13.696Z</time></trkpt><trkpt lat="45.9791148" lon="12.7474053"><ele>28.999999999999996</ele><time>2026-04-03T16:54:15.697Z</time></trkpt><trkpt lat="45.9791454" lon="12.7474967"><ele>29.0</ele><time>2026-04-03T16:54:17.696Z</time></trkpt><trkpt lat="45.9792148" lon="12.7476037"><ele>29.499999999999996</ele><time>2026-04-03T16:54:19.698Z</time></trkpt><trkpt lat="45.9793004" lon="12.7476809"><ele>30.0</ele><time>2026-04-03T16:54:21.696Z</time></trkpt><trkpt lat="45.9793876" lon="12.7477017"><ele>30.5</ele><time>2026-04-03T16:54:23.697Z</time></trkpt><trkpt lat="45.9794481" lon="12.747674"><ele>31.0</ele><time>2026-04-03T16:55:37.697Z</time></trkpt><trkpt lat="45.9794584" lon="12.7475409"><ele>31.499999999999996</ele><time>2026-04-03T16:55:40.696Z</time></trkpt><trkpt lat="45.9794108" lon="12.7474629"><ele>32.0</ele><time>2026-04-03T16:55:42.696Z</time></trkpt><trkpt lat="45.979337" lon="12.747383"><ele>32.0</ele><time>2026-04-03T16:55:44.696Z</time></trkpt><trkpt lat="45.9793234" lon="12.7472623"><ele>32.0</ele><time>2026-04-03T16:55:46.696Z</time></trkpt><trkpt lat="45.9793415" lon="12.7471261"><ele>32.0</ele><time>2026-04-03T16:55:48.696Z</time></trkpt><trkpt lat="45.9793647" lon="12.7469879"><ele>32.0</ele><time>2026-04-03T16:55:50.698Z</time></trkpt><trkpt lat="45.9793945" lon="12.7468485"><ele>32.0</ele><time>2026-04-03T16:55:52.696Z</time></trkpt><trkpt lat="45.9794186" lon="12.7466827"><ele>31.666666666666664</ele><time>2026-04-03T16:55:54.697Z</time></trkpt><trkpt lat="45.9794229" lon="12.7465032"><ele>31.333333333333332</ele><time>2026-04-03T16:55:56.697Z</time></trkpt><trkpt lat="45.9794225" lon="12.7464103"><ele>31.0</ele><time>2026-04-03T16:55:57.696Z</time></trkpt><trkpt lat="45.9794192" lon="12.7463087"><ele>30.666666666666664</ele><time>2026-04-03T16:55:58.697Z</time></trkpt><trkpt lat="45.9794066" lon="12.7462151"><ele>30.333333333333332</ele><time>2026-04-03T16:55:59.697Z</time></trkpt><trkpt lat="45.9793958" lon="12.7461095"><ele>30.0</ele><time>2026-04-03T16:56:00.698Z</time></trkpt><trkpt lat="45.9793877" lon="12.7459711"><ele>29.833333333333332</ele><time>2026-04-03T16:56:01.697Z</time></trkpt><trkpt lat="45.9793856" lon="12.7458201"><ele>29.666666666666664</ele><time>2026-04-03T16:56:02.696Z</time></trkpt><trkpt lat="45.9793886" lon="12.7456793"><ele>29.5</ele><time>2026-04-03T16:56:03.696Z</time></trkpt><trkpt lat="45.9793866" lon="12.7455496"><ele>29.333333333333332</ele><time>2026-04-03T16:56:04.697Z</time></trkpt><trkpt lat="45.9793781" lon="12.7454414"><ele>29.166666666666664</ele><time>2026-04-03T16:56:05.697Z</time></trkpt><trkpt lat="45.9793586" lon="12.7453388"><ele>29.0</ele><time>2026-04-03T16:56:06.697Z</time></trkpt><trkpt lat="45.9793378" lon="12.7452426"><ele>29.0</ele><time>2026-04-03T16:56:07.697Z</time></trkpt><trkpt lat="45.9792996" lon="12.7450964"><ele>29.0</ele><time>2026-04-03T16:56:09.697Z</time></trkpt><trkpt lat="45.9792217" lon="12.7450521"><ele>29.0</ele><time>2026-04-03T16:56:11.696Z</time></trkpt><trkpt lat="45.979161" lon="12.7451158"><ele>29.0</ele><time>2026-04-03T16:56:13.698Z</time></trkpt><trkpt lat="45.979174" lon="12.7452868"><ele>29.0</ele><time>2026-04-03T16:56:15.697Z</time></trkpt><trkpt lat="45.9791814" lon="12.7454503"><ele>28.999999999999996</ele><time>2026-04-03T16:56:17.697Z</time></trkpt><trkpt lat="45.9791771" lon="12.745581"><ele>29.0</ele><time>2026-04-03T16:56:19.697Z</time></trkpt><trkpt lat="45.9791132" lon="12.7456553"><ele>29.0</ele><time>2026-04-03T16:56:21.696Z</time></trkpt><trkpt lat="45.979022" lon="12.7457026"><ele>29.0</ele><time>2026-04-03T16:56:23.697Z</time></trkpt><trkpt lat="45.9789682" lon="12.745788"><ele>28.999999999999996</ele><time>2026-04-03T16:56:25.696Z</time></trkpt><trkpt lat="45.9789393" lon="12.7459232"><ele>29.0</ele><time>2026-04-03T16:56:27.696Z</time></trkpt><trkpt lat="45.9788977" lon="12.7460584"><ele>29.0</ele><time>2026-04-03T16:56:29.697Z</time></trkpt><trkpt lat="45.9788253" lon="12.7460933"><ele>29.0</ele><time>2026-04-03T16:56:31.696Z</time></trkpt><trkpt lat="45.9787655" lon="12.7460575"><ele>29.0</ele><time>2026-04-03T16:56:33.697Z</time></trkpt><trkpt lat="45.9788191" lon="12.7458554"><ele>29.0</ele><time>2026-04-03T16:56:35.697Z</time></trkpt><trkpt lat="45.9788572" lon="12.7457532"><ele>29.0</ele><time>2026-04-03T16:56:37.697Z</time></trkpt><trkpt lat="45.9789157" lon="12.7456264"><ele>28.999999999999996</ele><time>2026-04-03T16:56:39.696Z</time></trkpt><trkpt lat="45.9789903" lon="12.7455337"><ele>29.0</ele><time>2026-04-03T16:56:41.696Z</time></trkpt><trkpt lat="45.9790088" lon="12.7454254"><ele>29.0</ele><time>2026-04-03T16:56:43.697Z</time></trkpt><trkpt lat="45.9789423" lon="12.7453945"><ele>29.0</ele><time>2026-04-03T16:56:45.697Z</time></trkpt><trkpt lat="45.9788769" lon="12.7454703"><ele>28.999999999999996</ele><time>2026-04-03T16:56:47.697Z</time></trkpt><trkpt lat="45.9788044" lon="12.7455611"><ele>29.0</ele><time>2026-04-03T16:56:49.697Z</time></trkpt><trkpt lat="45.978721" lon="12.7455941"><ele>28.999999999999996</ele><time>2026-04-03T16:56:51.696Z</time></trkpt><trkpt lat="45.9786381" lon="12.7455937"><ele>29.0</ele><time>2026-04-03T16:56:53.697Z</time></trkpt><trkpt lat="45.9785596" lon="12.7455759"><ele>29.0</ele><time>2026-04-03T16:56:55.697Z</time></trkpt><trkpt lat="45.9784779" lon="12.7455616"><ele>29.0</ele><time>2026-04-03T16:56:57.697Z</time></trkpt><trkpt lat="45.9784093" lon="12.7455173"><ele>28.999999999999996</ele><time>2026-04-03T16:56:59.696Z</time></trkpt><trkpt lat="45.978411" lon="12.7454"><ele>29.0</ele><time>2026-04-03T16:57:02.696Z</time></trkpt><trkpt lat="45.9784859" lon="12.7453335"><ele>29.0</ele><time>2026-04-03T16:57:05.696Z</time></trkpt><trkpt lat="45.9785688" lon="12.7453324"><ele>29.0</ele><time>2026-04-03T16:57:07.697Z</time></trkpt><trkpt lat="45.9786757" lon="12.7453076"><ele>29.0</ele><time>2026-04-03T16:57:09.698Z</time></trkpt><trkpt lat="45.9787734" lon="12.7452912"><ele>29.0</ele><time>2026-04-03T16:57:11.696Z</time></trkpt><trkpt lat="45.9788682" lon="12.7452484"><ele>29.0</ele><time>2026-04-03T16:57:13.697Z</time></trkpt><trkpt lat="45.9789567" lon="12.7452073"><ele>29.499999999999996</ele><time>2026-04-03T16:57:15.696Z</time></trkpt><trkpt lat="45.9790332" lon="12.7451137"><ele>30.0</ele><time>2026-04-03T16:57:17.696Z</time></trkpt><trkpt lat="45.9790681" lon="12.7450229"><ele>30.5</ele><time>2026-04-03T16:57:19.697Z</time></trkpt><trkpt lat="45.9790324" lon="12.7449426"><ele>31.0</ele><time>2026-04-03T16:57:20.697Z</time></trkpt><trkpt lat="45.9790225" lon="12.7448165"><ele>31.499999999999996</ele><time>2026-04-03T16:57:22.696Z</time></trkpt><trkpt lat="45.9790759" lon="12.7447249"><ele>32.0</ele><time>2026-04-03T16:57:24.696Z</time></trkpt><trkpt lat="45.9791624" lon="12.7447454"><ele>32.0</ele><time>2026-04-03T16:57:26.697Z</time></trkpt><trkpt lat="45.9792555" lon="12.74472"><ele>32.0</ele><time>2026-04-03T16:57:28.697Z</time></trkpt><trkpt lat="45.9792891" lon="12.7446176"><ele>32.0</ele><time>2026-04-03T16:57:30.697Z</time></trkpt><trkpt lat="45.9792457" lon="12.7444995"><ele>32.0</ele><time>2026-04-03T16:57:32.697Z</time></trkpt><trkpt lat="45.9791497" lon="12.744435"><ele>32.0</ele><time>2026-04-03T16:57:34.696Z</time></trkpt><trkpt lat="45.9790653" lon="12.7444776"><ele>32.0</ele><time>2026-04-03T16:57:36.696Z</time></trkpt><trkpt lat="45.9789813" lon="12.7445687"><ele>32.0</ele><time>2026-04-03T16:57:38.697Z</time></trkpt><trkpt lat="45.9789178" lon="12.7446802"><ele>32.0</ele><time>2026-04-03T16:57:40.696Z</time></trkpt><trkpt lat="45.9788826" lon="12.7448163"><ele>32.0</ele><time>2026-04-03T16:57:42.697Z</time></trkpt><trkpt lat="45.9788462" lon="12.7449377"><ele>32.0</ele><time>2026-04-03T16:57:44.697Z</time></trkpt><trkpt lat="45.9787844" lon="12.7450554"><ele>32.0</ele><time>2026-04-03T16:57:46.697Z</time></trkpt><trkpt lat="45.9786991" lon="12.7451242"><ele>32.0</ele><time>2026-04-03T16:57:48.698Z</time></trkpt><trkpt lat="45.9785786" lon="12.745177"><ele>32.0</ele><time>2026-04-03T16:57:50.696Z</time></trkpt><trkpt lat="45.9784734" lon="12.7452272"><ele>32.0</ele><time>2026-04-03T16:57:52.696Z</time></trkpt><trkpt lat="45.978369" lon="12.7452747"><ele>32.0</ele><time>2026-04-03T16:57:54.697Z</time></trkpt><trkpt lat="45.9782616" lon="12.7453471"><ele>32.2</ele><time>2026-04-03T16:57:56.697Z</time></trkpt><trkpt lat="45.9782246" lon="12.7454671"><ele>32.400000000000006</ele><time>2026-04-03T16:57:58.697Z</time></trkpt><trkpt lat="45.9782213" lon="12.7456116"><ele>32.599999999999994</ele><time>2026-04-03T16:58:00.697Z</time></trkpt><trkpt lat="45.9782357" lon="12.7457384"><ele>32.8</ele><time>2026-04-03T16:58:02.697Z</time></trkpt><trkpt lat="45.9782555" lon="12.745865"><ele>33.0</ele><time>2026-04-03T16:58:04.697Z</time></trkpt><trkpt lat="45.9782627" lon="12.7460264"><ele>32.666666666666664</ele><time>2026-04-03T16:58:06.698Z</time></trkpt><trkpt lat="45.9782756" lon="12.7461814"><ele>32.333333333333336</ele><time>2026-04-03T16:58:08.696Z</time></trkpt><trkpt lat="45.978288" lon="12.7462717"><ele>32.0</ele><time>2026-04-03T16:58:09.697Z</time></trkpt><trkpt lat="45.9783039" lon="12.7464088"><ele>31.666666666666668</ele><time>2026-04-03T16:58:11.697Z</time></trkpt><trkpt lat="45.9783401" lon="12.7465133"><ele>31.333333333333336</ele><time>2026-04-03T16:58:13.696Z</time></trkpt><trkpt lat="45.9784001" lon="12.7466075"><ele>31.0</ele><time>2026-04-03T16:58:15.697Z</time></trkpt><trkpt lat="45.9784813" lon="12.7467198"><ele>30.5</ele><time>2026-04-03T16:58:17.697Z</time></trkpt><trkpt lat="45.9785611" lon="12.7468423"><ele>30.0</ele><time>2026-04-03T16:58:19.697Z</time></trkpt><trkpt lat="45.9786367" lon="12.746989"><ele>29.5</ele><time>2026-04-03T16:58:21.696Z</time></trkpt><trkpt lat="45.9787266" lon="12.7470896"><ele>29.0</ele><time>2026-04-03T16:58:23.696Z</time></trkpt><trkpt lat="45.9788084" lon="12.7471527"><ele>28.999999999999996</ele><time>2026-04-03T16:58:25.696Z</time></trkpt><trkpt lat="45.9788927" lon="12.747154"><ele>29.0</ele><time>2026-04-03T16:58:28.697Z</time></trkpt><trkpt lat="45.9789644" lon="12.7470944"><ele>29.0</ele><time>2026-04-03T16:58:31.696Z</time></trkpt><trkpt lat="45.9790282" lon="12.7470689"><ele>29.0</ele><time>2026-04-03T16:58:33.696Z</time></trkpt><trkpt lat="45.9790988" lon="12.7471287"><ele>28.999999999999996</ele><time>2026-04-03T16:58:35.697Z</time></trkpt><trkpt lat="45.9791227" lon="12.7472837"><ele>29.0</ele><time>2026-04-03T16:58:37.698Z</time></trkpt><trkpt lat="45.9791124" lon="12.7474189"><ele>28.999999999999996</ele><time>2026-04-03T16:58:39.697Z</time></trkpt><trkpt lat="45.9791448" lon="12.7475117"><ele>29.0</ele><time>2026-04-03T16:58:41.697Z</time></trkpt><trkpt lat="45.979209" lon="12.7475966"><ele>29.0</ele><time>2026-04-03T16:58:43.697Z</time></trkpt><trkpt lat="45.9792826" lon="12.7476653"><ele>29.0</ele><time>2026-04-03T16:58:45.697Z</time></trkpt><trkpt lat="45.9793793" lon="12.7476953"><ele>28.999999999999996</ele><time>2026-04-03T16:58:47.697Z</time></trkpt><trkpt lat="45.9794417" lon="12.747636"><ele>29.0</ele><time>2026-04-03T16:58:49.696Z</time></trkpt><trkpt lat="45.9794326" lon="12.7475174"><ele>29.6</ele><time>2026-04-03T16:58:51.697Z</time></trkpt><trkpt lat="45.9793616" lon="12.7474359"><ele>30.2</ele><time>2026-04-03T16:58:53.697Z</time></trkpt><trkpt lat="45.9793106" lon="12.747298"><ele>30.800000000000004</ele><time>2026-04-03T16:58:55.696Z</time></trkpt><trkpt lat="45.9793042" lon="12.7472019"><ele>31.400000000000002</ele><time>2026-04-03T16:58:56.697Z</time></trkpt><trkpt lat="45.979331" lon="12.7471114"><ele>32.0</ele><time>2026-04-03T16:58:57.697Z</time></trkpt><trkpt lat="45.9793656" lon="12.7469516"><ele>31.666666666666664</ele><time>2026-04-03T16:58:59.696Z</time></trkpt><trkpt lat="45.9793932" lon="12.7468684"><ele>31.333333333333332</ele><time>2026-04-03T16:59:00.698Z</time></trkpt><trkpt lat="45.9794192" lon="12.7467154"><ele>31.0</ele><time>2026-04-03T16:59:02.698Z</time></trkpt><trkpt lat="45.9794283" lon="12.7465448"><ele>30.666666666666664</ele><time>2026-04-03T16:59:04.697Z</time></trkpt><trkpt lat="45.9794275" lon="12.7464408"><ele>30.333333333333332</ele><time>2026-04-03T16:59:05.698Z</time></trkpt><trkpt lat="45.9794253" lon="12.7463481"><ele>30.0</ele><time>2026-04-03T16:59:06.696Z</time></trkpt><trkpt lat="45.9794139" lon="12.7462434"><ele>30.0</ele><time>2026-04-03T16:59:07.698Z</time></trkpt><trkpt lat="45.9793987" lon="12.7461313"><ele>30.0</ele><time>2026-04-03T16:59:08.697Z</time></trkpt><trkpt lat="45.9793909" lon="12.7459952"><ele>30.0</ele><time>2026-04-03T16:59:09.697Z</time></trkpt><trkpt lat="45.9793908" lon="12.7458334"><ele>30.0</ele><time>2026-04-03T16:59:10.698Z</time></trkpt><trkpt lat="45.979391" lon="12.7456795"><ele>30.0</ele><time>2026-04-03T16:59:11.698Z</time></trkpt><trkpt lat="45.9793882" lon="12.7455527"><ele>29.833333333333332</ele><time>2026-04-03T16:59:12.698Z</time></trkpt><trkpt lat="45.9793831" lon="12.7454451"><ele>29.666666666666664</ele><time>2026-04-03T16:59:13.698Z</time></trkpt><trkpt lat="45.9793654" lon="12.7453454"><ele>29.5</ele><time>2026-04-03T16:59:14.697Z</time></trkpt><trkpt lat="45.979344" lon="12.7452488"><ele>29.333333333333332</ele><time>2026-04-03T16:59:15.698Z</time></trkpt><trkpt lat="45.9793" lon="12.7450993"><ele>29.166666666666664</ele><time>2026-04-03T16:59:17.697Z</time></trkpt><trkpt lat="45.9792079" lon="12.7450583"><ele>29.0</ele><time>2026-04-03T16:59:19.697Z</time></trkpt><trkpt lat="45.9791617" lon="12.7451427"><ele>28.999999999999996</ele><time>2026-04-03T16:59:21.696Z</time></trkpt><trkpt lat="45.9791631" lon="12.7452377"><ele>29.0</ele><time>2026-04-03T16:59:22.696Z</time></trkpt><trkpt lat="45.9791749" lon="12.7454058"><ele>29.0</ele><time>2026-04-03T16:59:24.697Z</time></trkpt><trkpt lat="45.9791835" lon="12.7455383"><ele>29.0</ele><time>2026-04-03T16:59:26.696Z</time></trkpt><trkpt lat="45.9791474" lon="12.7456289"><ele>28.999999999999996</ele><time>2026-04-03T16:59:28.697Z</time></trkpt><trkpt lat="45.9790551" lon="12.7456817"><ele>29.0</ele><time>2026-04-03T16:59:30.697Z</time></trkpt><trkpt lat="45.9789756" lon="12.7457472"><ele>28.999999999999996</ele><time>2026-04-03T16:59:32.698Z</time></trkpt><trkpt lat="45.9789432" lon="12.7458682"><ele>29.0</ele><time>2026-04-03T16:59:34.697Z</time></trkpt><trkpt lat="45.9789092" lon="12.7460078"><ele>29.0</ele><time>2026-04-03T16:59:36.697Z</time></trkpt><trkpt lat="45.9788486" lon="12.746109"><ele>29.0</ele><time>2026-04-03T16:59:38.698Z</time></trkpt><trkpt lat="45.9787895" lon="12.7460549"><ele>28.999999999999996</ele><time>2026-04-03T16:59:40.696Z</time></trkpt><trkpt lat="45.9787851" lon="12.7459417"><ele>29.0</ele><time>2026-04-03T16:59:42.696Z</time></trkpt><trkpt lat="45.978819" lon="12.7458022"><ele>28.999999999999996</ele><time>2026-04-03T16:59:44.697Z</time></trkpt><trkpt lat="45.9788578" lon="12.7456977"><ele>29.0</ele><time>2026-04-03T16:59:46.696Z</time></trkpt><trkpt lat="45.9789268" lon="12.7455882"><ele>29.0</ele><time>2026-04-03T16:59:48.696Z</time></trkpt><trkpt lat="45.9789998" lon="12.7454843"><ele>29.0</ele><time>2026-04-03T16:59:50.696Z</time></trkpt><trkpt lat="45.9790004" lon="12.7453905"><ele>28.999999999999996</ele><time>2026-04-03T16:59:52.697Z</time></trkpt><trkpt lat="45.9789303" lon="12.7453843"><ele>29.0</ele><time>2026-04-03T16:59:54.696Z</time></trkpt><trkpt lat="45.9788772" lon="12.7454919"><ele>29.0</ele><time>2026-04-03T16:59:56.697Z</time></trkpt><trkpt lat="45.9787915" lon="12.7455759"><ele>29.0</ele><time>2026-04-03T16:59:58.696Z</time></trkpt><trkpt lat="45.9786901" lon="12.7456051"><ele>29.0</ele><time>2026-04-03T17:00:00.697Z</time></trkpt><trkpt lat="45.9785955" lon="12.7455826"><ele>29.0</ele><time>2026-04-03T17:00:02.697Z</time></trkpt><trkpt lat="45.9785183" lon="12.7455761"><ele>29.0</ele><time>2026-04-03T17:00:04.696Z</time></trkpt><trkpt lat="45.9784418" lon="12.7455499"><ele>29.0</ele><time>2026-04-03T17:00:06.696Z</time></trkpt><trkpt lat="45.9783932" lon="12.7454846"><ele>29.0</ele><time>2026-04-03T17:00:08.697Z</time></trkpt><trkpt lat="45.9784121" lon="12.7453751"><ele>29.0</ele><time>2026-04-03T17:00:11.697Z</time></trkpt><trkpt lat="45.9785047" lon="12.7453198"><ele>29.0</ele><time>2026-04-03T17:00:14.697Z</time></trkpt><trkpt lat="45.9786147" lon="12.7453194"><ele>29.0</ele><time>2026-04-03T17:00:16.696Z</time></trkpt><trkpt lat="45.9787305" lon="12.7452983"><ele>28.999999999999996</ele><time>2026-04-03T17:00:18.697Z</time></trkpt><trkpt lat="45.9788403" lon="12.7452606"><ele>29.0</ele><time>2026-04-03T17:00:20.698Z</time></trkpt><trkpt lat="45.9789135" lon="12.7452401"><ele>29.0</ele><time>2026-04-03T17:00:22.696Z</time></trkpt><trkpt lat="45.9789958" lon="12.7451718"><ele>29.0</ele><time>2026-04-03T17:00:24.696Z</time></trkpt><trkpt lat="45.9790689" lon="12.7450855"><ele>28.999999999999996</ele><time>2026-04-03T17:00:26.696Z</time></trkpt><trkpt lat="45.9790632" lon="12.7449819"><ele>29.0</ele><time>2026-04-03T17:00:28.697Z</time></trkpt><trkpt lat="45.9790344" lon="12.7448981"><ele>28.833333333333332</ele><time>2026-04-03T17:00:29.697Z</time></trkpt><trkpt lat="45.9790582" lon="12.7447675"><ele>28.666666666666664</ele><time>2026-04-03T17:00:31.696Z</time></trkpt><trkpt lat="45.979126" lon="12.744715"><ele>28.5</ele><time>2026-04-03T17:00:33.697Z</time></trkpt><trkpt lat="45.9792158" lon="12.7447423"><ele>28.333333333333336</ele><time>2026-04-03T17:00:35.697Z</time></trkpt><trkpt lat="45.9792587" lon="12.7446279"><ele>28.166666666666668</ele><time>2026-04-03T17:00:37.697Z</time></trkpt><trkpt lat="45.9792401" lon="12.7444929"><ele>28.0</ele><time>2026-04-03T17:00:39.697Z</time></trkpt><trkpt lat="45.9791526" lon="12.744431"><ele>28.799999999999997</ele><time>2026-04-03T17:00:41.696Z</time></trkpt><trkpt lat="45.9790585" lon="12.7444693"><ele>29.599999999999998</ele><time>2026-04-03T17:00:43.696Z</time></trkpt><trkpt lat="45.9789796" lon="12.7445668"><ele>30.400000000000002</ele><time>2026-04-03T17:00:45.696Z</time></trkpt><trkpt lat="45.9789202" lon="12.7446781"><ele>31.200000000000003</ele><time>2026-04-03T17:00:47.696Z</time></trkpt><trkpt lat="45.9788815" lon="12.7448253"><ele>32.0</ele><time>2026-04-03T17:00:49.696Z</time></trkpt><trkpt lat="45.9788411" lon="12.7449543"><ele>31.999999999999996</ele><time>2026-04-03T17:00:51.696Z</time></trkpt><trkpt lat="45.9787679" lon="12.7450663"><ele>32.0</ele><time>2026-04-03T17:00:53.697Z</time></trkpt><trkpt lat="45.9786705" lon="12.7451264"><ele>32.0</ele><time>2026-04-03T17:00:55.698Z</time></trkpt><trkpt lat="45.9786099" lon="12.7451564"><ele>32.0</ele><time>2026-04-03T17:00:56.697Z</time></trkpt><trkpt lat="45.9785461" lon="12.7451824"><ele>31.999999999999996</ele><time>2026-04-03T17:00:57.696Z</time></trkpt><trkpt lat="45.978485" lon="12.7452057"><ele>32.0</ele><time>2026-04-03T17:00:58.696Z</time></trkpt><trkpt lat="45.9783793" lon="12.7452537"><ele>32.2</ele><time>2026-04-03T17:01:00.697Z</time></trkpt><trkpt lat="45.9782841" lon="12.7453173"><ele>32.400000000000006</ele><time>2026-04-03T17:01:02.696Z</time></trkpt><trkpt lat="45.9782367" lon="12.7453922"><ele>32.599999999999994</ele><time>2026-04-03T17:01:04.696Z</time></trkpt><trkpt lat="45.978223" lon="12.7455275"><ele>32.8</ele><time>2026-04-03T17:01:06.697Z</time></trkpt><trkpt lat="45.9782223" lon="12.7456674"><ele>33.0</ele><time>2026-04-03T17:01:08.696Z</time></trkpt><trkpt lat="45.9782401" lon="12.7457986"><ele>33.0</ele><time>2026-04-03T17:01:10.696Z</time></trkpt><trkpt lat="45.9782606" lon="12.7459489"><ele>33.0</ele><time>2026-04-03T17:01:12.698Z</time></trkpt><trkpt lat="45.9782652" lon="12.7461032"><ele>33.0</ele><time>2026-04-03T17:01:14.696Z</time></trkpt><trkpt lat="45.9782858" lon="12.7462708"><ele>33.0</ele><time>2026-04-03T17:01:16.696Z</time></trkpt><trkpt lat="45.9783048" lon="12.7464123"><ele>33.0</ele><time>2026-04-03T17:01:18.696Z</time></trkpt><trkpt lat="45.9783399" lon="12.7465178"><ele>32.199999999999996</ele><time>2026-04-03T17:01:20.697Z</time></trkpt><trkpt lat="45.978398" lon="12.7466149"><ele>31.4</ele><time>2026-04-03T17:01:22.698Z</time></trkpt><trkpt lat="45.9784772" lon="12.7467217"><ele>30.599999999999998</ele><time>2026-04-03T17:01:24.697Z</time></trkpt><trkpt lat="45.9785612" lon="12.7468213"><ele>29.799999999999997</ele><time>2026-04-03T17:01:26.696Z</time></trkpt><trkpt lat="45.9786298" lon="12.7469753"><ele>29.0</ele><time>2026-04-03T17:01:28.696Z</time></trkpt><trkpt lat="45.9787268" lon="12.7470755"><ele>28.999999999999996</ele><time>2026-04-03T17:01:30.697Z</time></trkpt><trkpt lat="45.9788132" lon="12.7471393"><ele>29.0</ele><time>2026-04-03T17:01:32.697Z</time></trkpt><trkpt lat="45.9788954" lon="12.7471422"><ele>29.0</ele><time>2026-04-03T17:01:35.697Z</time></trkpt><trkpt lat="45.9789851" lon="12.7470917"><ele>29.0</ele><time>2026-04-03T17:01:38.696Z</time></trkpt><trkpt lat="45.9790706" lon="12.7470849"><ele>28.999999999999996</ele><time>2026-04-03T17:01:40.697Z</time></trkpt><trkpt lat="45.9791277" lon="12.7471638"><ele>29.0</ele><time>2026-04-03T17:01:42.697Z</time></trkpt><trkpt lat="45.9791203" lon="12.7473209"><ele>28.999999999999996</ele><time>2026-04-03T17:01:44.697Z</time></trkpt><trkpt lat="45.9791249" lon="12.7474469"><ele>29.0</ele><time>2026-04-03T17:01:46.697Z</time></trkpt><trkpt lat="45.9791693" lon="12.7475457"><ele>29.0</ele><time>2026-04-03T17:01:48.696Z</time></trkpt><trkpt lat="45.9792456" lon="12.7476472"><ele>29.0</ele><time>2026-04-03T17:01:50.696Z</time></trkpt><trkpt lat="45.9793339" lon="12.7476799"><ele>28.999999999999996</ele><time>2026-04-03T17:01:52.697Z</time></trkpt><trkpt lat="45.979417" lon="12.7476794"><ele>29.0</ele><time>2026-04-03T17:01:54.698Z</time></trkpt><trkpt lat="45.979452" lon="12.747594"><ele>29.6</ele><time>2026-04-03T17:01:56.696Z</time></trkpt><trkpt lat="45.9794251" lon="12.7474963"><ele>30.2</ele><time>2026-04-03T17:01:58.697Z</time></trkpt><trkpt lat="45.9793546" lon="12.7474208"><ele>30.800000000000004</ele><time>2026-04-03T17:02:00.697Z</time></trkpt><trkpt lat="45.9793265" lon="12.7472916"><ele>31.400000000000002</ele><time>2026-04-03T17:02:02.698Z</time></trkpt><trkpt lat="45.9793403" lon="12.7471493"><ele>32.0</ele><time>2026-04-03T17:02:04.696Z</time></trkpt><trkpt lat="45.9793589" lon="12.7470027"><ele>31.666666666666664</ele><time>2026-04-03T17:02:06.697Z</time></trkpt><trkpt lat="45.9793916" lon="12.7468572"><ele>31.333333333333332</ele><time>2026-04-03T17:02:08.696Z</time></trkpt><trkpt lat="45.9794046" lon="12.7467656"><ele>31.0</ele><time>2026-04-03T17:02:09.697Z</time></trkpt><trkpt lat="45.979427" lon="12.7466007"><ele>30.666666666666664</ele><time>2026-04-03T17:02:11.697Z</time></trkpt><trkpt lat="45.9794252" lon="12.7465087"><ele>30.333333333333332</ele><time>2026-04-03T17:02:12.698Z</time></trkpt><trkpt lat="45.9794209" lon="12.7464176"><ele>30.0</ele><time>2026-04-03T17:02:13.697Z</time></trkpt><trkpt lat="45.9794168" lon="12.7463039"><ele>30.0</ele><time>2026-04-03T17:02:14.696Z</time></trkpt><trkpt lat="45.9794036" lon="12.7461799"><ele>30.0</ele><time>2026-04-03T17:02:15.696Z</time></trkpt><trkpt lat="45.9793928" lon="12.7460451"><ele>30.0</ele><time>2026-04-03T17:02:16.697Z</time></trkpt><trkpt lat="45.9793871" lon="12.7458952"><ele>30.0</ele><time>2026-04-03T17:02:17.696Z</time></trkpt><trkpt lat="45.9793898" lon="12.7457397"><ele>30.0</ele><time>2026-04-03T17:02:18.697Z</time></trkpt><trkpt lat="45.9793933" lon="12.7456055"><ele>29.833333333333332</ele><time>2026-04-03T17:02:19.696Z</time></trkpt><trkpt lat="45.9793905" lon="12.7454871"><ele>29.666666666666664</ele><time>2026-04-03T17:02:20.698Z</time></trkpt><trkpt lat="45.9793766" lon="12.745384"><ele>29.5</ele><time>2026-04-03T17:02:21.697Z</time></trkpt><trkpt lat="45.9793531" lon="12.7452825"><ele>29.333333333333332</ele><time>2026-04-03T17:02:22.696Z</time></trkpt><trkpt lat="45.979318" lon="12.7451302"><ele>29.166666666666664</ele><time>2026-04-03T17:02:24.697Z</time></trkpt><trkpt lat="45.9792521" lon="12.7450499"><ele>29.0</ele><time>2026-04-03T17:02:26.697Z</time></trkpt><trkpt lat="45.9791767" lon="12.7451022"><ele>29.0</ele><time>2026-04-03T17:02:28.697Z</time></trkpt><trkpt lat="45.9791748" lon="12.7452359"><ele>29.0</ele><time>2026-04-03T17:02:30.697Z</time></trkpt><trkpt lat="45.9791826" lon="12.7454168"><ele>29.0</ele><time>2026-04-03T17:02:32.697Z</time></trkpt><trkpt lat="45.979185" lon="12.7455539"><ele>29.0</ele><time>2026-04-03T17:02:34.696Z</time></trkpt><trkpt lat="45.9791314" lon="12.7456473"><ele>29.0</ele><time>2026-04-03T17:02:36.696Z</time></trkpt><trkpt lat="45.9790293" lon="12.7456994"><ele>29.0</ele><time>2026-04-03T17:02:38.697Z</time></trkpt><trkpt lat="45.9789678" lon="12.7457728"><ele>29.0</ele><time>2026-04-03T17:02:40.697Z</time></trkpt><trkpt lat="45.9789431" lon="12.7459095"><ele>29.0</ele><time>2026-04-03T17:02:42.697Z</time></trkpt><trkpt lat="45.9788967" lon="12.7460633"><ele>29.0</ele><time>2026-04-03T17:02:44.697Z</time></trkpt><trkpt lat="45.9788025" lon="12.7460653"><ele>29.0</ele><time>2026-04-03T17:02:47.697Z</time></trkpt><trkpt lat="45.9788073" lon="12.745944"><ele>29.0</ele><time>2026-04-03T17:02:49.696Z</time></trkpt><trkpt lat="45.97883" lon="12.7458003"><ele>29.0</ele><time>2026-04-03T17:02:51.698Z</time></trkpt><trkpt lat="45.9788776" lon="12.7456742"><ele>29.0</ele><time>2026-04-03T17:02:53.697Z</time></trkpt><trkpt lat="45.9789449" lon="12.7455767"><ele>29.0</ele><time>2026-04-03T17:02:55.698Z</time></trkpt><trkpt lat="45.9790172" lon="12.7454854"><ele>29.0</ele><time>2026-04-03T17:02:57.698Z</time></trkpt><trkpt lat="45.9789996" lon="12.7453876"><ele>29.0</ele><time>2026-04-03T17:02:59.697Z</time></trkpt><trkpt lat="45.9789162" lon="12.7453979"><ele>29.0</ele><time>2026-04-03T17:03:01.696Z</time></trkpt><trkpt lat="45.9788581" lon="12.7455183"><ele>29.0</ele><time>2026-04-03T17:03:03.698Z</time></trkpt><trkpt lat="45.9787694" lon="12.7455978"><ele>29.0</ele><time>2026-04-03T17:03:05.697Z</time></trkpt><trkpt lat="45.9786697" lon="12.7455989"><ele>29.0</ele><time>2026-04-03T17:03:07.696Z</time></trkpt><trkpt lat="45.9785831" lon="12.7455812"><ele>28.999999999999996</ele><time>2026-04-03T17:03:09.696Z</time></trkpt><trkpt lat="45.9785035" lon="12.7455646"><ele>29.0</ele><time>2026-04-03T17:03:11.697Z</time></trkpt><trkpt lat="45.9784233" lon="12.7455266"><ele>29.0</ele><time>2026-04-03T17:03:13.697Z</time></trkpt><trkpt lat="45.978386" lon="12.7454516"><ele>29.0</ele><time>2026-04-03T17:03:15.697Z</time></trkpt><trkpt lat="45.9784277" lon="12.7453461"><ele>28.999999999999996</ele><time>2026-04-03T17:03:18.697Z</time></trkpt><trkpt lat="45.978506" lon="12.7453123"><ele>29.0</ele><time>2026-04-03T17:03:20.697Z</time></trkpt><trkpt lat="45.9786116" lon="12.7453084"><ele>29.0</ele><time>2026-04-03T17:03:22.697Z</time></trkpt><trkpt lat="45.9787149" lon="12.7452896"><ele>29.0</ele><time>2026-04-03T17:03:24.696Z</time></trkpt><trkpt lat="45.9788186" lon="12.7452737"><ele>29.0</ele><time>2026-04-03T17:03:26.698Z</time></trkpt><trkpt lat="45.9788919" lon="12.7452463"><ele>29.0</ele><time>2026-04-03T17:03:28.697Z</time></trkpt><trkpt lat="45.9789792" lon="12.7451935"><ele>29.0</ele><time>2026-04-03T17:03:30.696Z</time></trkpt><trkpt lat="45.9790399" lon="12.7451116"><ele>28.833333333333332</ele><time>2026-04-03T17:03:32.696Z</time></trkpt><trkpt lat="45.9790567" lon="12.7449987"><ele>28.666666666666664</ele><time>2026-04-03T17:03:34.697Z</time></trkpt><trkpt lat="45.9790132" lon="12.7449197"><ele>28.5</ele><time>2026-04-03T17:03:35.697Z</time></trkpt><trkpt lat="45.9790088" lon="12.7447908"><ele>28.333333333333336</ele><time>2026-04-03T17:03:37.697Z</time></trkpt><trkpt lat="45.9790715" lon="12.7447007"><ele>28.166666666666668</ele><time>2026-04-03T17:03:39.696Z</time></trkpt><trkpt lat="45.9791696" lon="12.744732"><ele>28.0</ele><time>2026-04-03T17:03:41.696Z</time></trkpt><trkpt lat="45.9792593" lon="12.744703"><ele>28.0</ele><time>2026-04-03T17:03:43.698Z</time></trkpt><trkpt lat="45.9792931" lon="12.7445947"><ele>27.999999999999996</ele><time>2026-04-03T17:03:45.698Z</time></trkpt><trkpt lat="45.9792378" lon="12.7444798"><ele>27.999999999999996</ele><time>2026-04-03T17:03:47.696Z</time></trkpt><trkpt lat="45.9791458" lon="12.7444351"><ele>28.0</ele><time>2026-04-03T17:03:49.696Z</time></trkpt><trkpt lat="45.9790607" lon="12.7444692"><ele>28.0</ele><time>2026-04-03T17:03:51.697Z</time></trkpt><trkpt lat="45.9789816" lon="12.7445755"><ele>28.799999999999997</ele><time>2026-04-03T17:03:53.698Z</time></trkpt><trkpt lat="45.9789271" lon="12.7446637"><ele>29.599999999999998</ele><time>2026-04-03T17:03:55.697Z</time></trkpt><trkpt lat="45.9788893" lon="12.7447925"><ele>30.400000000000002</ele><time>2026-04-03T17:03:57.697Z</time></trkpt><trkpt lat="45.9788557" lon="12.7449276"><ele>31.200000000000003</ele><time>2026-04-03T17:03:59.697Z</time></trkpt><trkpt lat="45.9787936" lon="12.7450451"><ele>32.0</ele><time>2026-04-03T17:04:01.697Z</time></trkpt><trkpt lat="45.9787118" lon="12.745118"><ele>32.0</ele><time>2026-04-03T17:04:03.697Z</time></trkpt><trkpt lat="45.9785966" lon="12.7451687"><ele>32.0</ele><time>2026-04-03T17:04:05.697Z</time></trkpt><trkpt lat="45.9784816" lon="12.7452193"><ele>32.0</ele><time>2026-04-03T17:04:07.697Z</time></trkpt><trkpt lat="45.9783754" lon="12.745272"><ele>32.0</ele><time>2026-04-03T17:04:09.697Z</time></trkpt><trkpt lat="45.9782777" lon="12.7453315"><ele>32.2</ele><time>2026-04-03T17:04:11.696Z</time></trkpt><trkpt lat="45.9782278" lon="12.7454433"><ele>32.400000000000006</ele><time>2026-04-03T17:04:13.696Z</time></trkpt><trkpt lat="45.9782193" lon="12.7456029"><ele>32.599999999999994</ele><time>2026-04-03T17:04:15.697Z</time></trkpt><trkpt lat="45.9782341" lon="12.7457495"><ele>32.8</ele><time>2026-04-03T17:04:17.697Z</time></trkpt><trkpt lat="45.9782552" lon="12.7458757"><ele>33.0</ele><time>2026-04-03T17:04:19.698Z</time></trkpt><trkpt lat="45.9782656" lon="12.7460303"><ele>32.6</ele><time>2026-04-03T17:04:21.697Z</time></trkpt><trkpt lat="45.9782786" lon="12.7461879"><ele>32.199999999999996</ele><time>2026-04-03T17:04:23.696Z</time></trkpt><trkpt lat="45.9783025" lon="12.7463541"><ele>31.8</ele><time>2026-04-03T17:04:25.698Z</time></trkpt><trkpt lat="45.9783216" lon="12.7464775"><ele>31.4</ele><time>2026-04-03T17:04:27.696Z</time></trkpt><trkpt lat="45.9783726" lon="12.7465822"><ele>31.0</ele><time>2026-04-03T17:04:29.697Z</time></trkpt><trkpt lat="45.9784452" lon="12.7466859"><ele>30.6</ele><time>2026-04-03T17:04:31.697Z</time></trkpt><trkpt lat="45.978538" lon="12.7467935"><ele>30.200000000000003</ele><time>2026-04-03T17:04:33.697Z</time></trkpt><trkpt lat="45.9786085" lon="12.7469377"><ele>29.799999999999997</ele><time>2026-04-03T17:04:35.698Z</time></trkpt><trkpt lat="45.9786513" lon="12.7470078"><ele>29.4</ele><time>2026-04-03T17:04:36.696Z</time></trkpt><trkpt lat="45.9787375" lon="12.7470968"><ele>29.0</ele><time>2026-04-03T17:04:38.697Z</time></trkpt><trkpt lat="45.9788192" lon="12.7471451"><ele>28.999999999999996</ele><time>2026-04-03T17:04:40.697Z</time></trkpt><trkpt lat="45.9788988" lon="12.7471403"><ele>29.0</ele><time>2026-04-03T17:04:43.696Z</time></trkpt><trkpt lat="45.9789895" lon="12.7470915"><ele>29.0</ele><time>2026-04-03T17:04:46.696Z</time></trkpt><trkpt lat="45.9790729" lon="12.7470865"><ele>29.0</ele><time>2026-04-03T17:04:48.697Z</time></trkpt><trkpt lat="45.979117" lon="12.7471897"><ele>28.999999999999996</ele><time>2026-04-03T17:04:50.696Z</time></trkpt><trkpt lat="45.9791164" lon="12.7473272"><ele>29.0</ele><time>2026-04-03T17:04:52.697Z</time></trkpt><trkpt lat="45.979121" lon="12.7474408"><ele>28.999999999999996</ele><time>2026-04-03T17:04:54.697Z</time></trkpt><trkpt lat="45.9791554" lon="12.747528"><ele>29.0</ele><time>2026-04-03T17:04:56.697Z</time></trkpt><trkpt lat="45.9792231" lon="12.7476254"><ele>29.0</ele><time>2026-04-03T17:04:58.697Z</time></trkpt><trkpt lat="45.9793117" lon="12.7476676"><ele>29.0</ele><time>2026-04-03T17:05:00.697Z</time></trkpt><trkpt lat="45.9793949" lon="12.7477018"><ele>28.999999999999996</ele><time>2026-04-03T17:05:02.697Z</time></trkpt><trkpt lat="45.979451" lon="12.747754"><ele>29.0</ele><time>2026-04-03T17:06:13.695Z</time></trkpt><trkpt lat="45.9794636" lon="12.7478515"><ele>29.666666666666664</ele><time>2026-04-03T17:06:15.695Z</time></trkpt><trkpt lat="45.9795113" lon="12.7479145"><ele>30.333333333333332</ele><time>2026-04-03T17:06:18.696Z</time></trkpt><trkpt lat="45.9795943" lon="12.7479358"><ele>31.0</ele><time>2026-04-03T17:06:22.696Z</time></trkpt><trkpt lat="45.9797019" lon="12.7479298"><ele>31.666666666666664</ele><time>2026-04-03T17:06:24.695Z</time></trkpt><trkpt lat="45.9797715" lon="12.7479143"><ele>32.333333333333336</ele><time>2026-04-03T17:06:25.696Z</time></trkpt><trkpt lat="45.979838" lon="12.7479004"><ele>33.0</ele><time>2026-04-03T17:06:26.696Z</time></trkpt><trkpt lat="45.9799026" lon="12.7478876"><ele>33.0</ele><time>2026-04-03T17:06:27.696Z</time></trkpt><trkpt lat="45.9800052" lon="12.7478313"><ele>33.0</ele><time>2026-04-03T17:06:29.696Z</time></trkpt><trkpt lat="45.9800544" lon="12.747746"><ele>33.0</ele><time>2026-04-03T17:06:31.696Z</time></trkpt><trkpt lat="45.9800702" lon="12.747629"><ele>33.0</ele><time>2026-04-03T17:06:33.696Z</time></trkpt><trkpt lat="45.9800758" lon="12.747507"><ele>33.0</ele><time>2026-04-03T17:06:35.697Z</time></trkpt><trkpt lat="45.9800605" lon="12.7473469"><ele>33.0</ele><time>2026-04-03T17:06:37.696Z</time></trkpt><trkpt lat="45.9800402" lon="12.7472583"><ele>33.0</ele><time>2026-04-03T17:06:38.696Z</time></trkpt><trkpt lat="45.9799915" lon="12.7470953"><ele>33.0</ele><time>2026-04-03T17:06:40.695Z</time></trkpt><trkpt lat="45.9799702" lon="12.7469237"><ele>33.0</ele><time>2026-04-03T17:06:42.695Z</time></trkpt><trkpt lat="45.9799734" lon="12.7468298"><ele>33.0</ele><time>2026-04-03T17:06:43.697Z</time></trkpt><trkpt lat="45.9800101" lon="12.7466681"><ele>32.833333333333336</ele><time>2026-04-03T17:06:45.695Z</time></trkpt><trkpt lat="45.980082" lon="12.7465306"><ele>32.666666666666664</ele><time>2026-04-03T17:06:47.696Z</time></trkpt><trkpt lat="45.980126" lon="12.7464484"><ele>32.5</ele><time>2026-04-03T17:06:48.697Z</time></trkpt><trkpt lat="45.980172" lon="12.7463725"><ele>32.33333333333333</ele><time>2026-04-03T17:06:49.696Z</time></trkpt><trkpt lat="45.9802194" lon="12.7462972"><ele>32.166666666666664</ele><time>2026-04-03T17:06:50.696Z</time></trkpt><trkpt lat="45.9802678" lon="12.7462216"><ele>32.0</ele><time>2026-04-03T17:06:51.695Z</time></trkpt><trkpt lat="45.9803349" lon="12.7461077"><ele>32.0</ele><time>2026-04-03T17:06:53.696Z</time></trkpt><trkpt lat="45.980428" lon="12.7461263"><ele>32.0</ele><time>2026-04-03T17:07:04.696Z</time></trkpt><trkpt lat="45.9804969" lon="12.7462167"><ele>32.0</ele><time>2026-04-03T17:07:06.695Z</time></trkpt><trkpt lat="45.9805531" lon="12.7463507"><ele>32.0</ele><time>2026-04-03T17:07:08.695Z</time></trkpt><trkpt lat="45.9806174" lon="12.7465177"><ele>32.0</ele><time>2026-04-03T17:07:10.697Z</time></trkpt><trkpt lat="45.9806585" lon="12.7466119"><ele>32.0</ele><time>2026-04-03T17:07:11.696Z</time></trkpt><trkpt lat="45.9806935" lon="12.7467023"><ele>31.999999999999996</ele><time>2026-04-03T17:07:12.696Z</time></trkpt><trkpt lat="45.98073" lon="12.7468037"><ele>32.0</ele><time>2026-04-03T17:07:13.696Z</time></trkpt><trkpt lat="45.9807602" lon="12.7468922"><ele>32.0</ele><time>2026-04-03T17:07:14.697Z</time></trkpt><trkpt lat="45.9807913" lon="12.7469734"><ele>31.999999999999996</ele><time>2026-04-03T17:07:15.696Z</time></trkpt><trkpt lat="45.9808276" lon="12.747051"><ele>32.0</ele><time>2026-04-03T17:07:16.697Z</time></trkpt><trkpt lat="45.9808703" lon="12.7471322"><ele>32.0</ele><time>2026-04-03T17:07:17.696Z</time></trkpt><trkpt lat="45.9809099" lon="12.7472083"><ele>32.0</ele><time>2026-04-03T17:07:18.697Z</time></trkpt><trkpt lat="45.980983" lon="12.7473239"><ele>32.0</ele><time>2026-04-03T17:07:20.696Z</time></trkpt><trkpt lat="45.9810292" lon="12.7474039"><ele>32.0</ele><time>2026-04-03T17:07:22.696Z</time></trkpt><trkpt lat="45.9810761" lon="12.7475076"><ele>32.0</ele><time>2026-04-03T17:07:24.695Z</time></trkpt><trkpt lat="45.9811209" lon="12.7476357"><ele>32.0</ele><time>2026-04-03T17:07:26.696Z</time></trkpt><trkpt lat="45.9811644" lon="12.7477705"><ele>31.999999999999996</ele><time>2026-04-03T17:07:28.695Z</time></trkpt><trkpt lat="45.9811727" lon="12.747889"><ele>32.0</ele><time>2026-04-03T17:07:30.695Z</time></trkpt><trkpt lat="45.9811898" lon="12.7479958"><ele>32.0</ele><time>2026-04-03T17:07:33.696Z</time></trkpt><trkpt lat="45.9812538" lon="12.7479938"><ele>32.0</ele><time>2026-04-03T17:07:37.696Z</time></trkpt><trkpt lat="45.9812154" lon="12.7478563"><ele>31.999999999999996</ele><time>2026-04-03T17:07:40.697Z</time></trkpt><trkpt lat="45.9811538" lon="12.7477156"><ele>32.0</ele><time>2026-04-03T17:07:42.695Z</time></trkpt><trkpt lat="45.9810898" lon="12.7475847"><ele>31.999999999999996</ele><time>2026-04-03T17:07:44.695Z</time></trkpt><trkpt lat="45.9810453" lon="12.7474968"><ele>32.0</ele><time>2026-04-03T17:07:46.696Z</time></trkpt><trkpt lat="45.9810038" lon="12.747402"><ele>32.0</ele><time>2026-04-03T17:07:48.696Z</time></trkpt><trkpt lat="45.9809342" lon="12.7473695"><ele>32.0</ele><time>2026-04-03T17:07:50.695Z</time></trkpt><trkpt lat="45.9808713" lon="12.7473954"><ele>31.999999999999996</ele><time>2026-04-03T17:07:52.696Z</time></trkpt><trkpt lat="45.9807993" lon="12.7473707"><ele>32.0</ele><time>2026-04-03T17:07:56.696Z</time></trkpt><trkpt lat="45.980787" lon="12.7472436"><ele>32.166666666666664</ele><time>2026-04-03T17:08:09.696Z</time></trkpt><trkpt lat="45.9807975" lon="12.747131"><ele>32.33333333333333</ele><time>2026-04-03T17:08:11.697Z</time></trkpt><trkpt lat="45.9807875" lon="12.747016"><ele>32.5</ele><time>2026-04-03T17:08:13.695Z</time></trkpt><trkpt lat="45.9807564" lon="12.7469338"><ele>32.666666666666664</ele><time>2026-04-03T17:08:15.695Z</time></trkpt><trkpt lat="45.9806881" lon="12.7469114"><ele>32.833333333333336</ele><time>2026-04-03T17:08:17.695Z</time></trkpt><trkpt lat="45.9806103" lon="12.7469825"><ele>33.0</ele><time>2026-04-03T17:08:20.695Z</time></trkpt><trkpt lat="45.9805772" lon="12.7470826"><ele>33.0</ele><time>2026-04-03T17:08:22.696Z</time></trkpt><trkpt lat="45.9805253" lon="12.7471505"><ele>33.0</ele><time>2026-04-03T17:08:24.696Z</time></trkpt><trkpt lat="45.9804432" lon="12.7471186"><ele>33.0</ele><time>2026-04-03T17:08:27.695Z</time></trkpt><trkpt lat="45.98039" lon="12.7470338"><ele>33.0</ele><time>2026-04-03T17:08:29.696Z</time></trkpt><trkpt lat="45.980353" lon="12.7469258"><ele>33.0</ele><time>2026-04-03T17:08:31.695Z</time></trkpt><trkpt lat="45.9803048" lon="12.7468532"><ele>33.0</ele><time>2026-04-03T17:08:33.696Z</time></trkpt><trkpt lat="45.9802486" lon="12.7467788"><ele>33.0</ele><time>2026-04-03T17:08:35.696Z</time></trkpt><trkpt lat="45.9801799" lon="12.7467341"><ele>33.0</ele><time>2026-04-03T17:08:38.696Z</time></trkpt><trkpt lat="45.9801019" lon="12.7467744"><ele>33.0</ele><time>2026-04-03T17:08:41.695Z</time></trkpt><trkpt lat="45.9800636" lon="12.746902"><ele>33.0</ele><time>2026-04-03T17:08:44.696Z</time></trkpt><trkpt lat="45.9800581" lon="12.7469963"><ele>33.0</ele><time>2026-04-03T17:08:46.696Z</time></trkpt><trkpt lat="45.9800554" lon="12.7471136"><ele>33.0</ele><time>2026-04-03T17:08:49.696Z</time></trkpt><trkpt lat="45.9800937" lon="12.747221"><ele>33.0</ele><time>2026-04-03T17:08:52.696Z</time></trkpt><trkpt lat="45.9801206" lon="12.7473127"><ele>33.0</ele><time>2026-04-03T17:08:54.695Z</time></trkpt><trkpt lat="45.9801438" lon="12.7474215"><ele>33.0</ele><time>2026-04-03T17:08:56.695Z</time></trkpt><trkpt lat="45.9801767" lon="12.7475374"><ele>33.0</ele><time>2026-04-03T17:08:58.695Z</time></trkpt><trkpt lat="45.9802075" lon="12.7476542"><ele>33.0</ele><time>2026-04-03T17:09:00.696Z</time></trkpt><trkpt lat="45.9802373" lon="12.7477659"><ele>33.0</ele><time>2026-04-03T17:09:02.696Z</time></trkpt><trkpt lat="45.9802598" lon="12.7478822"><ele>32.857142857142854</ele><time>2026-04-03T17:09:04.695Z</time></trkpt><trkpt lat="45.9802609" lon="12.747974"><ele>32.714285714285715</ele><time>2026-04-03T17:09:06.695Z</time></trkpt><trkpt lat="45.9802223" lon="12.7480577"><ele>32.57142857142857</ele><time>2026-04-03T17:09:09.695Z</time></trkpt><trkpt lat="45.9801714" lon="12.7481374"><ele>32.42857142857143</ele><time>2026-04-03T17:09:23.697Z</time></trkpt><trkpt lat="45.9801402" lon="12.7482256"><ele>32.285714285714285</ele><time>2026-04-03T17:09:33.696Z</time></trkpt><trkpt lat="45.9800794" lon="12.7482857"><ele>32.14285714285714</ele><time>2026-04-03T17:09:38.696Z</time></trkpt><trkpt lat="45.980092" lon="12.7483752"><ele>32.0</ele><time>2026-04-03T17:10:03.696Z</time></trkpt><trkpt lat="45.9801565" lon="12.7484004"><ele>31.999999999999996</ele><time>2026-04-03T17:10:06.696Z</time></trkpt><trkpt lat="45.9802356" lon="12.7484324"><ele>32.0</ele><time>2026-04-03T17:10:09.696Z</time></trkpt><trkpt lat="45.9803076" lon="12.7484671"><ele>32.0</ele><time>2026-04-03T17:10:12.695Z</time></trkpt><trkpt lat="45.9803893" lon="12.748511"><ele>32.0</ele><time>2026-04-03T17:10:15.696Z</time></trkpt><trkpt lat="45.9804576" lon="12.7485482"><ele>31.999999999999996</ele><time>2026-04-03T17:10:17.697Z</time></trkpt><trkpt lat="45.9805249" lon="12.7485855"><ele>32.0</ele><time>2026-04-03T17:10:19.696Z</time></trkpt><trkpt lat="45.9806096" lon="12.7486156"><ele>31.999999999999996</ele><time>2026-04-03T17:10:22.695Z</time></trkpt><trkpt lat="45.980676" lon="12.7486328"><ele>32.0</ele><time>2026-04-03T17:10:25.695Z</time></trkpt><trkpt lat="45.980747" lon="12.7486869"><ele>32.0</ele><time>2026-04-03T17:10:28.695Z</time></trkpt><trkpt lat="45.980813" lon="12.7487512"><ele>32.0</ele><time>2026-04-03T17:10:32.697Z</time></trkpt><trkpt lat="45.9808933" lon="12.748764"><ele>31.999999999999996</ele><time>2026-04-03T17:10:36.696Z</time></trkpt><trkpt lat="45.980943" lon="12.7486785"><ele>32.0</ele><time>2026-04-03T17:10:43.695Z</time></trkpt><trkpt lat="45.9810077" lon="12.7486012"><ele>32.166666666666664</ele><time>2026-04-03T17:10:48.696Z</time></trkpt><trkpt lat="45.981071" lon="12.7485289"><ele>32.33333333333333</ele><time>2026-04-03T17:10:50.696Z</time></trkpt><trkpt lat="45.9811328" lon="12.7484311"><ele>32.5</ele><time>2026-04-03T17:10:52.696Z</time></trkpt><trkpt lat="45.9811992" lon="12.7483234"><ele>32.666666666666664</ele><time>2026-04-03T17:10:54.695Z</time></trkpt><trkpt lat="45.9812381" lon="12.7482154"><ele>32.833333333333336</ele><time>2026-04-03T17:10:56.697Z</time></trkpt><trkpt lat="45.9812427" lon="12.7481179"><ele>33.0</ele><time>2026-04-03T17:10:58.695Z</time></trkpt><trkpt lat="45.9811977" lon="12.7480511"><ele>33.0</ele><time>2026-04-03T17:11:00.696Z</time></trkpt><trkpt lat="45.9811235" lon="12.7480342"><ele>33.0</ele><time>2026-04-03T17:11:02.696Z</time></trkpt><trkpt lat="45.9810513" lon="12.7480897"><ele>33.0</ele><time>2026-04-03T17:11:04.695Z</time></trkpt><trkpt lat="45.9809653" lon="12.7481343"><ele>33.0</ele><time>2026-04-03T17:11:07.696Z</time></trkpt><trkpt lat="45.9808988" lon="12.7481003"><ele>33.0</ele><time>2026-04-03T17:11:10.695Z</time></trkpt><trkpt lat="45.980885" lon="12.7479913"><ele>33.0</ele><time>2026-04-03T17:11:15.696Z</time></trkpt><trkpt lat="45.9809088" lon="12.7478898"><ele>33.0</ele><time>2026-04-03T17:11:17.695Z</time></trkpt><trkpt lat="45.980955" lon="12.7477862"><ele>33.0</ele><time>2026-04-03T17:11:19.696Z</time></trkpt><trkpt lat="45.9809991" lon="12.7476955"><ele>33.0</ele><time>2026-04-03T17:11:21.696Z</time></trkpt><trkpt lat="45.9810406" lon="12.7476204"><ele>33.0</ele><time>2026-04-03T17:11:23.696Z</time></trkpt><trkpt lat="45.9810608" lon="12.7474962"><ele>33.0</ele><time>2026-04-03T17:11:26.696Z</time></trkpt><trkpt lat="45.9810305" lon="12.7473867"><ele>33.0</ele><time>2026-04-03T17:11:28.696Z</time></trkpt><trkpt lat="45.9809585" lon="12.7472745"><ele>33.0</ele><time>2026-04-03T17:11:30.696Z</time></trkpt><trkpt lat="45.9809158" lon="12.7471938"><ele>33.0</ele><time>2026-04-03T17:11:31.695Z</time></trkpt><trkpt lat="45.9808758" lon="12.7471143"><ele>33.0</ele><time>2026-04-03T17:11:32.695Z</time></trkpt><trkpt lat="45.9808352" lon="12.7470285"><ele>33.0</ele><time>2026-04-03T17:11:33.695Z</time></trkpt><trkpt lat="45.9807914" lon="12.7469339"><ele>33.0</ele><time>2026-04-03T17:11:34.697Z</time></trkpt><trkpt lat="45.9807505" lon="12.746832"><ele>33.0</ele><time>2026-04-03T17:11:35.696Z</time></trkpt><trkpt lat="45.9807117" lon="12.7467282"><ele>32.833333333333336</ele><time>2026-04-03T17:11:36.695Z</time></trkpt><trkpt lat="45.9806752" lon="12.7466274"><ele>32.666666666666664</ele><time>2026-04-03T17:11:37.696Z</time></trkpt><trkpt lat="45.9806379" lon="12.7465384"><ele>32.5</ele><time>2026-04-03T17:11:38.696Z</time></trkpt><trkpt lat="45.9806043" lon="12.7464611"><ele>32.33333333333333</ele><time>2026-04-03T17:11:39.696Z</time></trkpt><trkpt lat="45.9805502" lon="12.7463263"><ele>32.166666666666664</ele><time>2026-04-03T17:11:41.696Z</time></trkpt><trkpt lat="45.9805037" lon="12.7462219"><ele>32.0</ele><time>2026-04-03T17:11:43.696Z</time></trkpt><trkpt lat="45.9804498" lon="12.7461503"><ele>31.999999999999996</ele><time>2026-04-03T17:11:45.695Z</time></trkpt><trkpt lat="45.9803904" lon="12.7460872"><ele>32.0</ele><time>2026-04-03T17:11:48.696Z</time></trkpt><trkpt lat="45.9803804" lon="12.745988"><ele>32.0</ele><time>2026-04-03T17:11:52.695Z</time></trkpt><trkpt lat="45.9804427" lon="12.7459066"><ele>32.0</ele><time>2026-04-03T17:11:54.695Z</time></trkpt><trkpt lat="45.9804893" lon="12.7458353"><ele>31.999999999999996</ele><time>2026-04-03T17:11:55.695Z</time></trkpt><trkpt lat="45.980541" lon="12.7457459"><ele>32.0</ele><time>2026-04-03T17:11:56.695Z</time></trkpt><trkpt lat="45.9805903" lon="12.7456622"><ele>31.833333333333332</ele><time>2026-04-03T17:11:57.696Z</time></trkpt><trkpt lat="45.9806297" lon="12.7455824"><ele>31.666666666666664</ele><time>2026-04-03T17:11:58.696Z</time></trkpt><trkpt lat="45.9806569" lon="12.7454956"><ele>31.5</ele><time>2026-04-03T17:11:59.696Z</time></trkpt><trkpt lat="45.980675" lon="12.7453992"><ele>31.333333333333336</ele><time>2026-04-03T17:12:00.695Z</time></trkpt><trkpt lat="45.9806791" lon="12.7452951"><ele>31.166666666666668</ele><time>2026-04-03T17:12:01.697Z</time></trkpt><trkpt lat="45.9806769" lon="12.7451899"><ele>31.0</ele><time>2026-04-03T17:12:02.695Z</time></trkpt><trkpt lat="45.9806856" lon="12.7450208"><ele>30.8</ele><time>2026-04-03T17:12:04.696Z</time></trkpt><trkpt lat="45.9807243" lon="12.7449019"><ele>30.6</ele><time>2026-04-03T17:12:06.695Z</time></trkpt><trkpt lat="45.9808135" lon="12.7448915"><ele>30.4</ele><time>2026-04-03T17:12:09.695Z</time></trkpt><trkpt lat="45.9809155" lon="12.7449814"><ele>30.2</ele><time>2026-04-03T17:12:11.696Z</time></trkpt><trkpt lat="45.9809808" lon="12.7450378"><ele>30.0</ele><time>2026-04-03T17:12:12.695Z</time></trkpt><trkpt lat="45.9810699" lon="12.7451214"><ele>30.333333333333332</ele><time>2026-04-03T17:12:14.697Z</time></trkpt><trkpt lat="45.9811216" lon="12.7451761"><ele>30.666666666666664</ele><time>2026-04-03T17:12:16.695Z</time></trkpt><trkpt lat="45.9811688" lon="12.7452373"><ele>31.0</ele><time>2026-04-03T17:12:20.696Z</time></trkpt><trkpt lat="45.9812121" lon="12.7453844"><ele>31.333333333333332</ele><time>2026-04-03T17:12:54.696Z</time></trkpt><trkpt lat="45.9812404" lon="12.7454717"><ele>31.666666666666664</ele><time>2026-04-03T17:12:55.695Z</time></trkpt><trkpt lat="45.9812755" lon="12.7455812"><ele>32.0</ele><time>2026-04-03T17:12:56.696Z</time></trkpt><trkpt lat="45.981312" lon="12.7456883"><ele>32.166666666666664</ele><time>2026-04-03T17:12:57.695Z</time></trkpt><trkpt lat="45.9813411" lon="12.7457804"><ele>32.33333333333333</ele><time>2026-04-03T17:12:58.695Z</time></trkpt><trkpt lat="45.98137" lon="12.7458752"><ele>32.5</ele><time>2026-04-03T17:12:59.696Z</time></trkpt><trkpt lat="45.9814353" lon="12.7460492"><ele>32.666666666666664</ele><time>2026-04-03T17:13:01.696Z</time></trkpt><trkpt lat="45.981473" lon="12.7461489"><ele>32.833333333333336</ele><time>2026-04-03T17:13:02.697Z</time></trkpt><trkpt lat="45.9815087" lon="12.7462431"><ele>33.0</ele><time>2026-04-03T17:13:03.695Z</time></trkpt><trkpt lat="45.9815413" lon="12.7463287"><ele>32.833333333333336</ele><time>2026-04-03T17:13:04.696Z</time></trkpt><trkpt lat="45.9815772" lon="12.7464234"><ele>32.666666666666664</ele><time>2026-04-03T17:13:05.695Z</time></trkpt><trkpt lat="45.981612" lon="12.7465074"><ele>32.5</ele><time>2026-04-03T17:13:06.697Z</time></trkpt><trkpt lat="45.9816455" lon="12.7465847"><ele>32.33333333333333</ele><time>2026-04-03T17:13:07.695Z</time></trkpt><trkpt lat="45.9817232" lon="12.7467522"><ele>32.166666666666664</ele><time>2026-04-03T17:13:09.695Z</time></trkpt><trkpt lat="45.9817603" lon="12.7468473"><ele>32.0</ele><time>2026-04-03T17:13:10.696Z</time></trkpt><trkpt lat="45.9817949" lon="12.7469376"><ele>31.999999999999996</ele><time>2026-04-03T17:13:11.695Z</time></trkpt><trkpt lat="45.9818337" lon="12.747041"><ele>32.0</ele><time>2026-04-03T17:13:12.695Z</time></trkpt><trkpt lat="45.9818703" lon="12.7471427"><ele>32.0</ele><time>2026-04-03T17:13:13.695Z</time></trkpt><trkpt lat="45.9819052" lon="12.7472395"><ele>32.0</ele><time>2026-04-03T17:13:14.696Z</time></trkpt><trkpt lat="45.9819468" lon="12.7473499"><ele>31.999999999999996</ele><time>2026-04-03T17:13:15.696Z</time></trkpt><trkpt lat="45.9819905" lon="12.7474588"><ele>32.0</ele><time>2026-04-03T17:13:16.696Z</time></trkpt><trkpt lat="45.9820299" lon="12.7475621"><ele>31.999999999999996</ele><time>2026-04-03T17:13:17.696Z</time></trkpt><trkpt lat="45.9820751" lon="12.7476718"><ele>32.0</ele><time>2026-04-03T17:13:18.696Z</time></trkpt><trkpt lat="45.9821219" lon="12.7477795"><ele>32.0</ele><time>2026-04-03T17:13:19.695Z</time></trkpt><trkpt lat="45.9821622" lon="12.7478773"><ele>32.0</ele><time>2026-04-03T17:13:20.695Z</time></trkpt><trkpt lat="45.9822031" lon="12.7479789"><ele>31.999999999999996</ele><time>2026-04-03T17:13:21.696Z</time></trkpt><trkpt lat="45.9822355" lon="12.7480585"><ele>32.0</ele><time>2026-04-03T17:13:22.696Z</time></trkpt><trkpt lat="45.98227" lon="12.7481487"><ele>32.166666666666664</ele><time>2026-04-03T17:13:23.695Z</time></trkpt><trkpt lat="45.9822961" lon="12.7482377"><ele>32.33333333333333</ele><time>2026-04-03T17:13:24.697Z</time></trkpt><trkpt lat="45.9823388" lon="12.7483901"><ele>32.5</ele><time>2026-04-03T17:13:26.696Z</time></trkpt><trkpt lat="45.9823596" lon="12.7484762"><ele>32.666666666666664</ele><time>2026-04-03T17:13:27.695Z</time></trkpt><trkpt lat="45.9824099" lon="12.7486015"><ele>32.833333333333336</ele><time>2026-04-03T17:13:29.696Z</time></trkpt><trkpt lat="45.9824908" lon="12.7486524"><ele>33.0</ele><time>2026-04-03T17:13:31.696Z</time></trkpt><trkpt lat="45.9826053" lon="12.7485784"><ele>33.0</ele><time>2026-04-03T17:13:33.695Z</time></trkpt><trkpt lat="45.9827181" lon="12.7485416"><ele>33.0</ele><time>2026-04-03T17:13:35.695Z</time></trkpt><trkpt lat="45.9828374" lon="12.748576"><ele>33.0</ele><time>2026-04-03T17:13:37.695Z</time></trkpt><trkpt lat="45.9829113" lon="12.74861"><ele>33.0</ele><time>2026-04-03T17:13:38.697Z</time></trkpt><trkpt lat="45.9829833" lon="12.7486374"><ele>33.0</ele><time>2026-04-03T17:13:39.696Z</time></trkpt><trkpt lat="45.9830641" lon="12.7486657"><ele>33.199999999999996</ele><time>2026-04-03T17:13:40.696Z</time></trkpt><trkpt lat="45.9831515" lon="12.7486829"><ele>33.4</ele><time>2026-04-03T17:13:41.696Z</time></trkpt><trkpt lat="45.9832437" lon="12.7486874"><ele>33.599999999999994</ele><time>2026-04-03T17:13:42.697Z</time></trkpt><trkpt lat="45.9833407" lon="12.7486881"><ele>33.8</ele><time>2026-04-03T17:13:43.696Z</time></trkpt><trkpt lat="45.9834395" lon="12.7486847"><ele>34.0</ele><time>2026-04-03T17:13:44.696Z</time></trkpt><trkpt lat="45.9835472" lon="12.7486843"><ele>34.0</ele><time>2026-04-03T17:13:45.697Z</time></trkpt><trkpt lat="45.9836607" lon="12.7486806"><ele>34.0</ele><time>2026-04-03T17:13:46.695Z</time></trkpt><trkpt lat="45.9837789" lon="12.7486814"><ele>34.0</ele><time>2026-04-03T17:13:47.696Z</time></trkpt><trkpt lat="45.9838998" lon="12.7486832"><ele>34.0</ele><time>2026-04-03T17:13:48.696Z</time></trkpt><trkpt lat="45.9840221" lon="12.7486874"><ele>34.0</ele><time>2026-04-03T17:13:49.695Z</time></trkpt><trkpt lat="45.9841449" lon="12.7486952"><ele>34.0</ele><time>2026-04-03T17:13:50.695Z</time></trkpt><trkpt lat="45.9842594" lon="12.7486987"><ele>34.0</ele><time>2026-04-03T17:13:51.696Z</time></trkpt><trkpt lat="45.9843717" lon="12.7486959"><ele>34.0</ele><time>2026-04-03T17:13:52.696Z</time></trkpt><trkpt lat="45.9844815" lon="12.7486882"><ele>34.0</ele><time>2026-04-03T17:13:53.696Z</time></trkpt><trkpt lat="45.9845868" lon="12.74867"><ele>34.0</ele><time>2026-04-03T17:13:54.696Z</time></trkpt><trkpt lat="45.9846919" lon="12.7486355"><ele>34.0</ele><time>2026-04-03T17:13:55.696Z</time></trkpt><trkpt lat="45.9847961" lon="12.7485909"><ele>34.0</ele><time>2026-04-03T17:13:56.696Z</time></trkpt><trkpt lat="45.9849032" lon="12.7485491"><ele>34.0</ele><time>2026-04-03T17:13:57.696Z</time></trkpt><trkpt lat="45.985012" lon="12.7484989"><ele>34.0</ele><time>2026-04-03T17:13:58.695Z</time></trkpt><trkpt lat="45.9851255" lon="12.7484477"><ele>34.0</ele><time>2026-04-03T17:13:59.695Z</time></trkpt><trkpt lat="45.9852401" lon="12.7483966"><ele>34.0</ele><time>2026-04-03T17:14:00.696Z</time></trkpt><trkpt lat="45.9853567" lon="12.7483449"><ele>34.0</ele><time>2026-04-03T17:14:01.696Z</time></trkpt><trkpt lat="45.9854654" lon="12.7482952"><ele>34.0</ele><time>2026-04-03T17:14:02.695Z</time></trkpt><trkpt lat="45.9855632" lon="12.7482502"><ele>34.0</ele><time>2026-04-03T17:14:03.695Z</time></trkpt><trkpt lat="45.9856538" lon="12.7482007"><ele>34.0</ele><time>2026-04-03T17:14:04.695Z</time></trkpt><trkpt lat="45.9857441" lon="12.7481379"><ele>34.0</ele><time>2026-04-03T17:14:05.696Z</time></trkpt><trkpt lat="45.9858351" lon="12.7480648"><ele>34.0</ele><time>2026-04-03T17:14:06.695Z</time></trkpt><trkpt lat="45.9859255" lon="12.747979"><ele>34.75</ele><time>2026-04-03T17:14:07.697Z</time></trkpt><trkpt lat="45.986018" lon="12.7478907"><ele>35.5</ele><time>2026-04-03T17:14:08.696Z</time></trkpt><trkpt lat="45.9861104" lon="12.7477914"><ele>36.25</ele><time>2026-04-03T17:14:09.697Z</time></trkpt><trkpt lat="45.9861988" lon="12.74768"><ele>37.0</ele><time>2026-04-03T17:14:10.697Z</time></trkpt><trkpt lat="45.9862833" lon="12.7475599"><ele>37.0</ele><time>2026-04-03T17:14:11.697Z</time></trkpt><trkpt lat="45.9863745" lon="12.747445"><ele>37.0</ele><time>2026-04-03T17:14:12.697Z</time></trkpt><trkpt lat="45.9864704" lon="12.7473426"><ele>37.0</ele><time>2026-04-03T17:14:13.696Z</time></trkpt><trkpt lat="45.9865564" lon="12.7472591"><ele>37.0</ele><time>2026-04-03T17:14:14.695Z</time></trkpt><trkpt lat="45.9866515" lon="12.7471848"><ele>36.75</ele><time>2026-04-03T17:14:15.697Z</time></trkpt><trkpt lat="45.9867553" lon="12.7471231"><ele>36.5</ele><time>2026-04-03T17:14:16.695Z</time></trkpt><trkpt lat="45.986863" lon="12.7470787"><ele>36.25</ele><time>2026-04-03T17:14:17.695Z</time></trkpt><trkpt lat="45.9869783" lon="12.7470475"><ele>36.0</ele><time>2026-04-03T17:14:18.696Z</time></trkpt><trkpt lat="45.9870972" lon="12.7470152"><ele>36.0</ele><time>2026-04-03T17:14:19.696Z</time></trkpt><trkpt lat="45.9872209" lon="12.7469845"><ele>36.0</ele><time>2026-04-03T17:14:20.695Z</time></trkpt><trkpt lat="45.9873432" lon="12.7469593"><ele>36.0</ele><time>2026-04-03T17:14:21.695Z</time></trkpt><trkpt lat="45.987455" lon="12.7469363"><ele>36.0</ele><time>2026-04-03T17:14:22.695Z</time></trkpt><trkpt lat="45.9875755" lon="12.7469107"><ele>36.0</ele><time>2026-04-03T17:14:23.696Z</time></trkpt><trkpt lat="45.9877012" lon="12.7468745"><ele>36.0</ele><time>2026-04-03T17:14:24.695Z</time></trkpt><trkpt lat="45.987829" lon="12.746838"><ele>36.0</ele><time>2026-04-03T17:14:25.697Z</time></trkpt><trkpt lat="45.9879628" lon="12.7468031"><ele>36.0</ele><time>2026-04-03T17:14:26.696Z</time></trkpt><trkpt lat="45.9880959" lon="12.7467613"><ele>36.0</ele><time>2026-04-03T17:14:27.695Z</time></trkpt><trkpt lat="45.9882307" lon="12.746724"><ele>36.0</ele><time>2026-04-03T17:14:28.695Z</time></trkpt><trkpt lat="45.9883674" lon="12.7466862"><ele>36.0</ele><time>2026-04-03T17:14:29.695Z</time></trkpt><trkpt lat="45.9885068" lon="12.7466463"><ele>36.0</ele><time>2026-04-03T17:14:30.696Z</time></trkpt><trkpt lat="45.9886474" lon="12.7466064"><ele>36.0</ele><time>2026-04-03T17:14:31.695Z</time></trkpt><trkpt lat="45.9887927" lon="12.7465702"><ele>36.0</ele><time>2026-04-03T17:14:32.696Z</time></trkpt><trkpt lat="45.9889375" lon="12.7465324"><ele>36.0</ele><time>2026-04-03T17:14:33.696Z</time></trkpt><trkpt lat="45.9890828" lon="12.7464914"><ele>36.0</ele><time>2026-04-03T17:14:34.696Z</time></trkpt><trkpt lat="45.9892295" lon="12.7464562"><ele>37.333333333333336</ele><time>2026-04-03T17:14:35.697Z</time></trkpt><trkpt lat="45.9893794" lon="12.746421"><ele>38.66666666666667</ele><time>2026-04-03T17:14:36.697Z</time></trkpt><trkpt lat="45.9895309" lon="12.7463819"><ele>40.0</ele><time>2026-04-03T17:14:37.697Z</time></trkpt><trkpt lat="45.989683" lon="12.7463462"><ele>40.0</ele><time>2026-04-03T17:14:38.696Z</time></trkpt><trkpt lat="45.9898359" lon="12.7463091"><ele>40.0</ele><time>2026-04-03T17:14:39.695Z</time></trkpt><trkpt lat="45.9899883" lon="12.7462713"><ele>40.0</ele><time>2026-04-03T17:14:40.696Z</time></trkpt><trkpt lat="45.9901409" lon="12.7462312"><ele>40.333333333333336</ele><time>2026-04-03T17:14:41.695Z</time></trkpt><trkpt lat="45.9902931" lon="12.7461959"><ele>40.666666666666664</ele><time>2026-04-03T17:14:42.696Z</time></trkpt><trkpt lat="45.9904457" lon="12.7461576"><ele>41.0</ele><time>2026-04-03T17:14:43.695Z</time></trkpt><trkpt lat="45.9905968" lon="12.7461141"><ele>41.0</ele><time>2026-04-03T17:14:44.695Z</time></trkpt><trkpt lat="45.9907482" lon="12.7460705"><ele>41.0</ele><time>2026-04-03T17:14:45.695Z</time></trkpt><trkpt lat="45.9909017" lon="12.7460267"><ele>41.0</ele><time>2026-04-03T17:14:46.696Z</time></trkpt><trkpt lat="45.9910546" lon="12.7459852"><ele>40.666666666666664</ele><time>2026-04-03T17:14:47.696Z</time></trkpt><trkpt lat="45.9912118" lon="12.7459503"><ele>40.333333333333336</ele><time>2026-04-03T17:14:48.696Z</time></trkpt><trkpt lat="45.9913695" lon="12.7459094"><ele>40.0</ele><time>2026-04-03T17:14:49.696Z</time></trkpt><trkpt lat="45.9915262" lon="12.7458693"><ele>39.66666666666667</ele><time>2026-04-03T17:14:50.696Z</time></trkpt><trkpt lat="45.9916846" lon="12.7458291"><ele>39.333333333333336</ele><time>2026-04-03T17:14:51.696Z</time></trkpt><trkpt lat="45.991845" lon="12.7457911"><ele>39.0</ele><time>2026-04-03T17:14:52.695Z</time></trkpt><trkpt lat="45.9920052" lon="12.7457515"><ele>39.0</ele><time>2026-04-03T17:14:53.696Z</time></trkpt><trkpt lat="45.9921658" lon="12.7457102"><ele>39.0</ele><time>2026-04-03T17:14:54.696Z</time></trkpt><trkpt lat="45.9923269" lon="12.7456697"><ele>39.0</ele><time>2026-04-03T17:14:55.696Z</time></trkpt><trkpt lat="45.992489" lon="12.7456284"><ele>39.0</ele><time>2026-04-03T17:14:56.696Z</time></trkpt><trkpt lat="45.9926489" lon="12.7455877"><ele>39.0</ele><time>2026-04-03T17:14:57.696Z</time></trkpt><trkpt lat="45.9928098" lon="12.7455486"><ele>39.0</ele><time>2026-04-03T17:14:58.695Z</time></trkpt><trkpt lat="45.9929709" lon="12.7455047"><ele>39.0</ele><time>2026-04-03T17:14:59.695Z</time></trkpt><trkpt lat="45.9931344" lon="12.7454591"><ele>39.0</ele><time>2026-04-03T17:15:00.696Z</time></trkpt><trkpt lat="45.993294" lon="12.7454153"><ele>39.0</ele><time>2026-04-03T17:15:01.695Z</time></trkpt><trkpt lat="45.9934367" lon="12.7453767"><ele>39.6</ele><time>2026-04-03T17:15:02.697Z</time></trkpt><trkpt lat="45.9935556" lon="12.7453437"><ele>40.2</ele><time>2026-04-03T17:15:03.696Z</time></trkpt><trkpt lat="45.9936587" lon="12.7453169"><ele>40.800000000000004</ele><time>2026-04-03T17:15:04.695Z</time></trkpt><trkpt lat="45.9937604" lon="12.7452936"><ele>41.4</ele><time>2026-04-03T17:15:05.695Z</time></trkpt><trkpt lat="45.9938535" lon="12.7452743"><ele>42.0</ele><time>2026-04-03T17:15:06.697Z</time></trkpt><trkpt lat="45.9939285" lon="12.7452561"><ele>42.0</ele><time>2026-04-03T17:15:07.697Z</time></trkpt><trkpt lat="45.9940415" lon="12.7452312"><ele>42.0</ele><time>2026-04-03T17:15:09.695Z</time></trkpt><trkpt lat="45.9941043" lon="12.7451896"><ele>42.0</ele><time>2026-04-03T17:15:11.696Z</time></trkpt><trkpt lat="45.994166" lon="12.7450974"><ele>42.0</ele><time>2026-04-03T17:15:14.696Z</time></trkpt><trkpt lat="45.9941814" lon="12.7449503"><ele>42.0</ele><time>2026-04-03T17:15:16.697Z</time></trkpt><trkpt lat="45.9941808" lon="12.7448423"><ele>42.0</ele><time>2026-04-03T17:15:17.697Z</time></trkpt><trkpt lat="45.9941775" lon="12.7447096"><ele>42.0</ele><time>2026-04-03T17:15:18.697Z</time></trkpt><trkpt lat="45.9941748" lon="12.7445532"><ele>42.0</ele><time>2026-04-03T17:15:19.696Z</time></trkpt><trkpt lat="45.9941696" lon="12.7443878"><ele>42.0</ele><time>2026-04-03T17:15:20.697Z</time></trkpt><trkpt lat="45.9941665" lon="12.744225"><ele>42.0</ele><time>2026-04-03T17:15:21.696Z</time></trkpt><trkpt lat="45.9941642" lon="12.7440508"><ele>42.0</ele><time>2026-04-03T17:15:22.695Z</time></trkpt><trkpt lat="45.9941649" lon="12.7438667"><ele>42.0</ele><time>2026-04-03T17:15:23.695Z</time></trkpt><trkpt lat="45.994169" lon="12.7436731"><ele>42.0</ele><time>2026-04-03T17:15:24.697Z</time></trkpt><trkpt lat="45.9941806" lon="12.7434701"><ele>42.0</ele><time>2026-04-03T17:15:25.697Z</time></trkpt><trkpt lat="45.9941922" lon="12.7432594"><ele>42.25</ele><time>2026-04-03T17:15:26.697Z</time></trkpt><trkpt lat="45.9942033" lon="12.7430661"><ele>42.5</ele><time>2026-04-03T17:15:27.697Z</time></trkpt><trkpt lat="45.9942178" lon="12.7428764"><ele>42.75</ele><time>2026-04-03T17:15:28.696Z</time></trkpt><trkpt lat="45.9942306" lon="12.7426843"><ele>43.0</ele><time>2026-04-03T17:15:29.696Z</time></trkpt><trkpt lat="45.9942446" lon="12.7424919"><ele>43.0</ele><time>2026-04-03T17:15:30.697Z</time></trkpt><trkpt lat="45.9942621" lon="12.7423004"><ele>43.0</ele><time>2026-04-03T17:15:31.696Z</time></trkpt><trkpt lat="45.9942785" lon="12.7421059"><ele>43.0</ele><time>2026-04-03T17:15:32.696Z</time></trkpt><trkpt lat="45.9942936" lon="12.7419142"><ele>43.0</ele><time>2026-04-03T17:15:33.696Z</time></trkpt><trkpt lat="45.9943086" lon="12.7417232"><ele>42.8</ele><time>2026-04-03T17:15:34.696Z</time></trkpt><trkpt lat="45.9943247" lon="12.7415424"><ele>42.599999999999994</ele><time>2026-04-03T17:15:35.695Z</time></trkpt><trkpt lat="45.9943368" lon="12.7413883"><ele>42.400000000000006</ele><time>2026-04-03T17:15:36.696Z</time></trkpt><trkpt lat="45.9943468" lon="12.7412671"><ele>42.2</ele><time>2026-04-03T17:15:37.696Z</time></trkpt><trkpt lat="45.9943516" lon="12.741172"><ele>42.0</ele><time>2026-04-03T17:15:38.696Z</time></trkpt><trkpt lat="45.9943688" lon="12.7409876"><ele>41.8</ele><time>2026-04-03T17:15:40.696Z</time></trkpt><trkpt lat="45.9943857" lon="12.7408762"><ele>41.6</ele><time>2026-04-03T17:15:41.696Z</time></trkpt><trkpt lat="45.9944007" lon="12.74075"><ele>41.4</ele><time>2026-04-03T17:15:42.697Z</time></trkpt><trkpt lat="45.9944165" lon="12.740605"><ele>41.199999999999996</ele><time>2026-04-03T17:15:43.696Z</time></trkpt><trkpt lat="45.9944303" lon="12.7404465"><ele>41.0</ele><time>2026-04-03T17:15:44.697Z</time></trkpt><trkpt lat="45.9944485" lon="12.7402691"><ele>41.0</ele><time>2026-04-03T17:15:45.696Z</time></trkpt><trkpt lat="45.9944702" lon="12.7400813"><ele>41.0</ele><time>2026-04-03T17:15:46.696Z</time></trkpt><trkpt lat="45.9944913" lon="12.7398932"><ele>41.0</ele><time>2026-04-03T17:15:47.695Z</time></trkpt><trkpt lat="45.9945096" lon="12.7397188"><ele>41.0</ele><time>2026-04-03T17:15:48.696Z</time></trkpt><trkpt lat="45.994528" lon="12.7395532"><ele>41.0</ele><time>2026-04-03T17:15:49.695Z</time></trkpt><trkpt lat="45.9945405" lon="12.7393943"><ele>41.0</ele><time>2026-04-03T17:15:50.697Z</time></trkpt><trkpt lat="45.994555" lon="12.7392508"><ele>41.0</ele><time>2026-04-03T17:15:51.695Z</time></trkpt><trkpt lat="45.9945697" lon="12.7391123"><ele>41.0</ele><time>2026-04-03T17:15:52.695Z</time></trkpt><trkpt lat="45.9945748" lon="12.7389764"><ele>41.0</ele><time>2026-04-03T17:15:53.696Z</time></trkpt><trkpt lat="45.9945681" lon="12.7388318"><ele>41.0</ele><time>2026-04-03T17:15:54.695Z</time></trkpt><trkpt lat="45.9945528" lon="12.7386809"><ele>41.0</ele><time>2026-04-03T17:15:55.695Z</time></trkpt><trkpt lat="45.9945239" lon="12.7385288"><ele>41.0</ele><time>2026-04-03T17:15:56.695Z</time></trkpt><trkpt lat="45.994487" lon="12.7383748"><ele>41.0</ele><time>2026-04-03T17:15:57.695Z</time></trkpt><trkpt lat="45.9944439" lon="12.7382091"><ele>41.0</ele><time>2026-04-03T17:15:58.695Z</time></trkpt><trkpt lat="45.994395" lon="12.7380345"><ele>41.0</ele><time>2026-04-03T17:15:59.695Z</time></trkpt><trkpt lat="45.9943406" lon="12.7378504"><ele>41.0</ele><time>2026-04-03T17:16:00.696Z</time></trkpt><trkpt lat="45.9942868" lon="12.7376781"><ele>41.0</ele><time>2026-04-03T17:16:01.696Z</time></trkpt><trkpt lat="45.9942382" lon="12.7375189"><ele>41.199999999999996</ele><time>2026-04-03T17:16:02.695Z</time></trkpt><trkpt lat="45.9941954" lon="12.7373727"><ele>41.4</ele><time>2026-04-03T17:16:03.697Z</time></trkpt><trkpt lat="45.9941596" lon="12.7372231"><ele>41.6</ele><time>2026-04-03T17:16:04.696Z</time></trkpt><trkpt lat="45.9941393" lon="12.7370641"><ele>41.8</ele><time>2026-04-03T17:16:05.696Z</time></trkpt><trkpt lat="45.9941317" lon="12.7369032"><ele>42.0</ele><time>2026-04-03T17:16:06.694Z</time></trkpt><trkpt lat="45.9941372" lon="12.7367374"><ele>42.0</ele><time>2026-04-03T17:16:07.694Z</time></trkpt><trkpt lat="45.9941569" lon="12.7365704"><ele>42.0</ele><time>2026-04-03T17:16:08.695Z</time></trkpt><trkpt lat="45.9941876" lon="12.7364007"><ele>42.0</ele><time>2026-04-03T17:16:09.695Z</time></trkpt><trkpt lat="45.9942189" lon="12.7362235"><ele>42.0</ele><time>2026-04-03T17:16:10.695Z</time></trkpt><trkpt lat="45.9942427" lon="12.736055"><ele>41.75</ele><time>2026-04-03T17:16:11.694Z</time></trkpt><trkpt lat="45.9942682" lon="12.7358804"><ele>41.5</ele><time>2026-04-03T17:16:12.695Z</time></trkpt><trkpt lat="45.9942935" lon="12.7356968"><ele>41.25</ele><time>2026-04-03T17:16:13.695Z</time></trkpt><trkpt lat="45.9943185" lon="12.7355041"><ele>41.0</ele><time>2026-04-03T17:16:14.695Z</time></trkpt><trkpt lat="45.9943451" lon="12.7353164"><ele>41.0</ele><time>2026-04-03T17:16:15.696Z</time></trkpt><trkpt lat="45.9943705" lon="12.7351416"><ele>41.0</ele><time>2026-04-03T17:16:16.694Z</time></trkpt><trkpt lat="45.9943963" lon="12.734983"><ele>41.0</ele><time>2026-04-03T17:16:17.694Z</time></trkpt><trkpt lat="45.994419" lon="12.7348457"><ele>41.0</ele><time>2026-04-03T17:16:18.695Z</time></trkpt><trkpt lat="45.9944415" lon="12.7347291"><ele>41.0</ele><time>2026-04-03T17:16:19.695Z</time></trkpt><trkpt lat="45.9944609" lon="12.7346392"><ele>41.0</ele><time>2026-04-03T17:16:20.694Z</time></trkpt><trkpt lat="45.9944661" lon="12.7345192"><ele>41.0</ele><time>2026-04-03T17:16:22.695Z</time></trkpt><trkpt lat="45.9943854" lon="12.7344691"><ele>41.0</ele><time>2026-04-03T17:16:25.695Z</time></trkpt><trkpt lat="45.9943293" lon="12.7345177"><ele>41.0</ele><time>2026-04-03T17:16:28.695Z</time></trkpt><trkpt lat="45.9944054" lon="12.7344929"><ele>41.0</ele><time>2026-04-03T17:16:34.695Z</time></trkpt><trkpt lat="45.9944665" lon="12.7345393"><ele>41.0</ele><time>2026-04-03T17:16:38.695Z</time></trkpt><trkpt lat="45.9944116" lon="12.7345952"><ele>40.99999999999999</ele><time>2026-04-03T17:16:41.694Z</time></trkpt><trkpt lat="45.994369" lon="12.7345173"><ele>41.0</ele><time>2026-04-03T17:16:45.696Z</time></trkpt><trkpt lat="45.9944323" lon="12.734473"><ele>41.0</ele><time>2026-04-03T17:16:57.695Z</time></trkpt><trkpt lat="45.9944383" lon="12.734575"><ele>41.0</ele><time>2026-04-03T17:17:01.696Z</time></trkpt><trkpt lat="45.9943714" lon="12.7345769"><ele>41.0</ele><time>2026-04-03T17:17:05.694Z</time></trkpt><trkpt lat="45.9943627" lon="12.7344834"><ele>40.99999999999999</ele><time>2026-04-03T17:17:08.695Z</time></trkpt><trkpt lat="45.9944429" lon="12.7344894"><ele>41.0</ele><time>2026-04-03T17:17:31.695Z</time></trkpt><trkpt lat="45.9944271" lon="12.7345989"><ele>40.99999999999999</ele><time>2026-04-03T17:17:35.695Z</time></trkpt><trkpt lat="45.9943661" lon="12.7345458"><ele>41.0</ele><time>2026-04-03T17:17:39.696Z</time></trkpt><trkpt lat="45.9944001" lon="12.7344649"><ele>41.0</ele><time>2026-04-03T17:17:42.695Z</time></trkpt><trkpt lat="45.9943614" lon="12.7345581"><ele>41.0</ele><time>2026-04-03T17:17:50.694Z</time></trkpt><trkpt lat="45.9943304" lon="12.7344723"><ele>41.0</ele><time>2026-04-03T17:17:56.695Z</time></trkpt><trkpt lat="45.9943878" lon="12.7345332"><ele>40.99999999999999</ele><time>2026-04-03T17:18:00.695Z</time></trkpt><trkpt lat="45.9944493" lon="12.7345819"><ele>41.0</ele><time>2026-04-03T17:18:05.694Z</time></trkpt><trkpt lat="45.9944164" lon="12.7345021"><ele>41.0</ele><time>2026-04-03T17:18:10.696Z</time></trkpt><trkpt lat="45.9943454" lon="12.7345501"><ele>41.0</ele><time>2026-04-03T17:18:13.695Z</time></trkpt><trkpt lat="45.9943401" lon="12.7344544"><ele>41.0</ele><time>2026-04-03T17:18:17.694Z</time></trkpt><trkpt lat="45.9943885" lon="12.7345154"><ele>41.0</ele><time>2026-04-03T17:18:20.695Z</time></trkpt><trkpt lat="45.9943944" lon="12.7346138"><ele>41.0</ele><time>2026-04-03T17:19:43.695Z</time></trkpt><trkpt lat="45.994471" lon="12.734602"><ele>41.0</ele><time>2026-04-03T17:19:50.695Z</time></trkpt><trkpt lat="45.9945038" lon="12.7344662"><ele>41.33333333333333</ele><time>2026-04-03T17:19:52.696Z</time></trkpt><trkpt lat="45.9945318" lon="12.7343726"><ele>41.666666666666664</ele><time>2026-04-03T17:19:53.696Z</time></trkpt><trkpt lat="45.99456" lon="12.7342817"><ele>42.0</ele><time>2026-04-03T17:19:54.695Z</time></trkpt><trkpt lat="45.9945954" lon="12.7341764"><ele>42.333333333333336</ele><time>2026-04-03T17:19:55.695Z</time></trkpt><trkpt lat="45.9946367" lon="12.7340541"><ele>42.66666666666667</ele><time>2026-04-03T17:19:56.694Z</time></trkpt><trkpt lat="45.9946747" lon="12.7339268"><ele>43.0</ele><time>2026-04-03T17:19:57.695Z</time></trkpt><trkpt lat="45.9947146" lon="12.7337992"><ele>43.0</ele><time>2026-04-03T17:19:58.694Z</time></trkpt><trkpt lat="45.9947505" lon="12.733664"><ele>43.0</ele><time>2026-04-03T17:19:59.694Z</time></trkpt><trkpt lat="45.9947805" lon="12.7335173"><ele>43.0</ele><time>2026-04-03T17:20:00.695Z</time></trkpt><trkpt lat="45.9948007" lon="12.7333668"><ele>43.0</ele><time>2026-04-03T17:20:01.695Z</time></trkpt><trkpt lat="45.9948081" lon="12.7332132"><ele>43.0</ele><time>2026-04-03T17:20:02.696Z</time></trkpt><trkpt lat="45.9948183" lon="12.7330537"><ele>43.2</ele><time>2026-04-03T17:20:03.696Z</time></trkpt><trkpt lat="45.9948236" lon="12.732901"><ele>43.4</ele><time>2026-04-03T17:20:04.695Z</time></trkpt><trkpt lat="45.994824" lon="12.7327417"><ele>43.6</ele><time>2026-04-03T17:20:05.695Z</time></trkpt><trkpt lat="45.9948249" lon="12.7325805"><ele>43.800000000000004</ele><time>2026-04-03T17:20:06.694Z</time></trkpt><trkpt lat="45.9948298" lon="12.7324227"><ele>44.0</ele><time>2026-04-03T17:20:07.695Z</time></trkpt><trkpt lat="45.9948325" lon="12.7322561"><ele>44.0</ele><time>2026-04-03T17:20:08.696Z</time></trkpt><trkpt lat="45.9948331" lon="12.7320894"><ele>44.0</ele><time>2026-04-03T17:20:09.696Z</time></trkpt><trkpt lat="45.9948312" lon="12.7319323"><ele>44.0</ele><time>2026-04-03T17:20:10.695Z</time></trkpt><trkpt lat="45.9948281" lon="12.7317739"><ele>44.0</ele><time>2026-04-03T17:20:11.694Z</time></trkpt><trkpt lat="45.99482" lon="12.7316109"><ele>44.0</ele><time>2026-04-03T17:20:12.695Z</time></trkpt><trkpt lat="45.9948103" lon="12.7314441"><ele>44.25</ele><time>2026-04-03T17:20:13.695Z</time></trkpt><trkpt lat="45.9947882" lon="12.731274"><ele>44.5</ele><time>2026-04-03T17:20:14.694Z</time></trkpt><trkpt lat="45.9947639" lon="12.7311038"><ele>44.75</ele><time>2026-04-03T17:20:15.695Z</time></trkpt><trkpt lat="45.9947371" lon="12.7309324"><ele>45.0</ele><time>2026-04-03T17:20:16.694Z</time></trkpt><trkpt lat="45.9947088" lon="12.7307561"><ele>45.0</ele><time>2026-04-03T17:20:17.695Z</time></trkpt><trkpt lat="45.9946789" lon="12.7305794"><ele>45.0</ele><time>2026-04-03T17:20:18.694Z</time></trkpt><trkpt lat="45.9946485" lon="12.7304021"><ele>45.0</ele><time>2026-04-03T17:20:19.694Z</time></trkpt><trkpt lat="45.9946168" lon="12.7302241"><ele>45.0</ele><time>2026-04-03T17:20:20.695Z</time></trkpt><trkpt lat="45.9945842" lon="12.7300505"><ele>45.0</ele><time>2026-04-03T17:20:21.695Z</time></trkpt><trkpt lat="45.9945547" lon="12.7298761"><ele>45.0</ele><time>2026-04-03T17:20:22.694Z</time></trkpt><trkpt lat="45.9945224" lon="12.7297004"><ele>45.0</ele><time>2026-04-03T17:20:23.695Z</time></trkpt><trkpt lat="45.994495" lon="12.7295241"><ele>45.0</ele><time>2026-04-03T17:20:24.695Z</time></trkpt><trkpt lat="45.9944638" lon="12.7293502"><ele>44.75</ele><time>2026-04-03T17:20:25.694Z</time></trkpt><trkpt lat="45.9944321" lon="12.7291746"><ele>44.5</ele><time>2026-04-03T17:20:26.694Z</time></trkpt><trkpt lat="45.9943968" lon="12.7290009"><ele>44.25</ele><time>2026-04-03T17:20:27.695Z</time></trkpt><trkpt lat="45.9943646" lon="12.7288343"><ele>44.0</ele><time>2026-04-03T17:20:28.694Z</time></trkpt><trkpt lat="45.9943313" lon="12.728665"><ele>43.800000000000004</ele><time>2026-04-03T17:20:29.695Z</time></trkpt><trkpt lat="45.9943062" lon="12.7284996"><ele>43.6</ele><time>2026-04-03T17:20:30.696Z</time></trkpt><trkpt lat="45.9942923" lon="12.7283377"><ele>43.4</ele><time>2026-04-03T17:20:31.695Z</time></trkpt><trkpt lat="45.9942907" lon="12.7281742"><ele>43.2</ele><time>2026-04-03T17:20:32.695Z</time></trkpt><trkpt lat="45.9943006" lon="12.728025"><ele>43.0</ele><time>2026-04-03T17:20:33.695Z</time></trkpt><trkpt lat="45.9943177" lon="12.727886"><ele>43.0</ele><time>2026-04-03T17:20:34.694Z</time></trkpt><trkpt lat="45.9943382" lon="12.7277659"><ele>43.0</ele><time>2026-04-03T17:20:35.694Z</time></trkpt><trkpt lat="45.9943589" lon="12.7276417"><ele>43.0</ele><time>2026-04-03T17:20:36.695Z</time></trkpt><trkpt lat="45.9943821" lon="12.7275181"><ele>43.0</ele><time>2026-04-03T17:20:37.695Z</time></trkpt><trkpt lat="45.9944118" lon="12.7273928"><ele>43.0</ele><time>2026-04-03T17:20:38.695Z</time></trkpt><trkpt lat="45.9944415" lon="12.7272826"><ele>43.0</ele><time>2026-04-03T17:20:39.694Z</time></trkpt><trkpt lat="45.994465" lon="12.7271825"><ele>42.85714285714286</ele><time>2026-04-03T17:20:40.694Z</time></trkpt><trkpt lat="45.9944861" lon="12.7270893"><ele>42.714285714285715</ele><time>2026-04-03T17:20:41.694Z</time></trkpt><trkpt lat="45.9945051" lon="12.7270019"><ele>42.57142857142857</ele><time>2026-04-03T17:20:42.694Z</time></trkpt><trkpt lat="45.9945163" lon="12.7269098"><ele>42.42857142857143</ele><time>2026-04-03T17:20:43.694Z</time></trkpt><trkpt lat="45.9945264" lon="12.7268094"><ele>42.285714285714285</ele><time>2026-04-03T17:20:44.695Z</time></trkpt><trkpt lat="45.9945371" lon="12.7267071"><ele>42.142857142857146</ele><time>2026-04-03T17:20:45.694Z</time></trkpt><trkpt lat="45.9945434" lon="12.7265964"><ele>42.0</ele><time>2026-04-03T17:20:46.694Z</time></trkpt><trkpt lat="45.9945372" lon="12.7264814"><ele>42.400000000000006</ele><time>2026-04-03T17:20:47.694Z</time></trkpt><trkpt lat="45.9945212" lon="12.7263646"><ele>42.800000000000004</ele><time>2026-04-03T17:20:48.695Z</time></trkpt><trkpt lat="45.9945027" lon="12.7262349"><ele>43.2</ele><time>2026-04-03T17:20:49.695Z</time></trkpt><trkpt lat="45.9944799" lon="12.7260969"><ele>43.6</ele><time>2026-04-03T17:20:50.695Z</time></trkpt><trkpt lat="45.9944533" lon="12.7259507"><ele>44.0</ele><time>2026-04-03T17:20:51.696Z</time></trkpt><trkpt lat="45.9944311" lon="12.725792"><ele>44.2</ele><time>2026-04-03T17:20:52.694Z</time></trkpt><trkpt lat="45.9944102" lon="12.7256262"><ele>44.400000000000006</ele><time>2026-04-03T17:20:53.694Z</time></trkpt><trkpt lat="45.9943883" lon="12.7254688"><ele>44.6</ele><time>2026-04-03T17:20:54.694Z</time></trkpt><trkpt lat="45.9943669" lon="12.7253201"><ele>44.8</ele><time>2026-04-03T17:20:55.695Z</time></trkpt><trkpt lat="45.9943438" lon="12.7251778"><ele>45.0</ele><time>2026-04-03T17:20:56.694Z</time></trkpt><trkpt lat="45.9943271" lon="12.7250412"><ele>44.333333333333336</ele><time>2026-04-03T17:20:57.695Z</time></trkpt><trkpt lat="45.9943112" lon="12.7249085"><ele>43.666666666666664</ele><time>2026-04-03T17:20:58.695Z</time></trkpt><trkpt lat="45.9942973" lon="12.7247868"><ele>43.0</ele><time>2026-04-03T17:20:59.695Z</time></trkpt><trkpt lat="45.9942816" lon="12.7246676"><ele>42.33333333333333</ele><time>2026-04-03T17:21:00.695Z</time></trkpt><trkpt lat="45.9942742" lon="12.724566"><ele>41.666666666666664</ele><time>2026-04-03T17:21:01.695Z</time></trkpt><trkpt lat="45.9942672" lon="12.7244304"><ele>41.0</ele><time>2026-04-03T17:21:03.694Z</time></trkpt><trkpt lat="45.9942554" lon="12.7243156"><ele>41.0</ele><time>2026-04-03T17:21:14.695Z</time></trkpt><trkpt lat="45.9942083" lon="12.7241399"><ele>41.0</ele><time>2026-04-03T17:21:16.694Z</time></trkpt><trkpt lat="45.9941811" lon="12.7240256"><ele>41.0</ele><time>2026-04-03T17:21:17.694Z</time></trkpt><trkpt lat="45.9941503" lon="12.7239071"><ele>41.0</ele><time>2026-04-03T17:21:18.694Z</time></trkpt><trkpt lat="45.9941155" lon="12.7237718"><ele>41.0</ele><time>2026-04-03T17:21:19.694Z</time></trkpt><trkpt lat="45.994081" lon="12.7236321"><ele>41.5</ele><time>2026-04-03T17:21:20.694Z</time></trkpt><trkpt lat="45.994045" lon="12.723488"><ele>42.0</ele><time>2026-04-03T17:21:21.694Z</time></trkpt><trkpt lat="45.9940088" lon="12.7233315"><ele>42.5</ele><time>2026-04-03T17:21:22.695Z</time></trkpt><trkpt lat="45.9939732" lon="12.7231678"><ele>43.0</ele><time>2026-04-03T17:21:23.694Z</time></trkpt><trkpt lat="45.9939414" lon="12.7230029"><ele>43.0</ele><time>2026-04-03T17:21:24.695Z</time></trkpt><trkpt lat="45.9939116" lon="12.7228249"><ele>43.0</ele><time>2026-04-03T17:21:25.694Z</time></trkpt><trkpt lat="45.993879" lon="12.7226438"><ele>43.0</ele><time>2026-04-03T17:21:26.695Z</time></trkpt><trkpt lat="45.9938381" lon="12.7224711"><ele>43.0</ele><time>2026-04-03T17:21:27.696Z</time></trkpt><trkpt lat="45.993789" lon="12.7222848"><ele>43.25</ele><time>2026-04-03T17:21:28.695Z</time></trkpt><trkpt lat="45.993736" lon="12.7220914"><ele>43.5</ele><time>2026-04-03T17:21:29.695Z</time></trkpt><trkpt lat="45.9936821" lon="12.7218899"><ele>43.75</ele><time>2026-04-03T17:21:30.694Z</time></trkpt><trkpt lat="45.9936317" lon="12.7217005"><ele>44.0</ele><time>2026-04-03T17:21:31.695Z</time></trkpt><trkpt lat="45.9935775" lon="12.7215045"><ele>44.0</ele><time>2026-04-03T17:21:32.695Z</time></trkpt><trkpt lat="45.993524" lon="12.7213079"><ele>44.0</ele><time>2026-04-03T17:21:33.694Z</time></trkpt><trkpt lat="45.9934683" lon="12.7211113"><ele>44.0</ele><time>2026-04-03T17:21:34.695Z</time></trkpt><trkpt lat="45.9934113" lon="12.7209111"><ele>44.0</ele><time>2026-04-03T17:21:35.694Z</time></trkpt><trkpt lat="45.9933541" lon="12.7207094"><ele>44.0</ele><time>2026-04-03T17:21:36.695Z</time></trkpt><trkpt lat="45.9932964" lon="12.7205104"><ele>44.0</ele><time>2026-04-03T17:21:37.694Z</time></trkpt><trkpt lat="45.9932366" lon="12.7203139"><ele>44.0</ele><time>2026-04-03T17:21:38.694Z</time></trkpt><trkpt lat="45.9931834" lon="12.7201134"><ele>44.0</ele><time>2026-04-03T17:21:39.694Z</time></trkpt><trkpt lat="45.9931298" lon="12.719915"><ele>44.0</ele><time>2026-04-03T17:21:40.694Z</time></trkpt><trkpt lat="45.9930741" lon="12.7197215"><ele>44.0</ele><time>2026-04-03T17:21:41.694Z</time></trkpt><trkpt lat="45.993014" lon="12.7195278"><ele>44.0</ele><time>2026-04-03T17:21:42.695Z</time></trkpt><trkpt lat="45.9929573" lon="12.7193297"><ele>44.0</ele><time>2026-04-03T17:21:43.694Z</time></trkpt><trkpt lat="45.9929026" lon="12.719131"><ele>44.25</ele><time>2026-04-03T17:21:44.695Z</time></trkpt><trkpt lat="45.9928474" lon="12.7189326"><ele>44.5</ele><time>2026-04-03T17:21:45.695Z</time></trkpt><trkpt lat="45.992794" lon="12.7187328"><ele>44.75</ele><time>2026-04-03T17:21:46.694Z</time></trkpt><trkpt lat="45.9927435" lon="12.7185344"><ele>45.0</ele><time>2026-04-03T17:21:47.694Z</time></trkpt><trkpt lat="45.9926908" lon="12.7183394"><ele>45.0</ele><time>2026-04-03T17:21:48.694Z</time></trkpt><trkpt lat="45.9926411" lon="12.7181511"><ele>45.0</ele><time>2026-04-03T17:21:49.695Z</time></trkpt><trkpt lat="45.9925938" lon="12.7179695"><ele>45.0</ele><time>2026-04-03T17:21:50.694Z</time></trkpt><trkpt lat="45.9925426" lon="12.7177886"><ele>45.0</ele><time>2026-04-03T17:21:51.695Z</time></trkpt><trkpt lat="45.9924925" lon="12.7176074"><ele>44.5</ele><time>2026-04-03T17:21:52.695Z</time></trkpt><trkpt lat="45.9924422" lon="12.7174307"><ele>44.0</ele><time>2026-04-03T17:21:53.694Z</time></trkpt><trkpt lat="45.9923939" lon="12.7172602"><ele>43.5</ele><time>2026-04-03T17:21:54.695Z</time></trkpt><trkpt lat="45.9923473" lon="12.7170902"><ele>43.0</ele><time>2026-04-03T17:21:55.695Z</time></trkpt><trkpt lat="45.9922993" lon="12.7169209"><ele>43.2</ele><time>2026-04-03T17:21:56.695Z</time></trkpt><trkpt lat="45.9922516" lon="12.7167633"><ele>43.4</ele><time>2026-04-03T17:21:57.695Z</time></trkpt><trkpt lat="45.9922118" lon="12.7166226"><ele>43.6</ele><time>2026-04-03T17:21:58.694Z</time></trkpt><trkpt lat="45.992176" lon="12.7164996"><ele>43.800000000000004</ele><time>2026-04-03T17:21:59.695Z</time></trkpt><trkpt lat="45.992155" lon="12.716403"><ele>44.0</ele><time>2026-04-03T17:22:00.694Z</time></trkpt><trkpt lat="45.9921591" lon="12.7163099"><ele>44.0</ele><time>2026-04-03T17:22:01.694Z</time></trkpt><trkpt lat="45.992238" lon="12.7161689"><ele>44.0</ele><time>2026-04-03T17:22:03.695Z</time></trkpt><trkpt lat="45.9923244" lon="12.7161123"><ele>44.0</ele><time>2026-04-03T17:22:04.694Z</time></trkpt><trkpt lat="45.9924274" lon="12.7160522"><ele>44.0</ele><time>2026-04-03T17:22:05.695Z</time></trkpt><trkpt lat="45.9925312" lon="12.7159954"><ele>44.0</ele><time>2026-04-03T17:22:06.694Z</time></trkpt><trkpt lat="45.9926456" lon="12.7159345"><ele>44.25</ele><time>2026-04-03T17:22:07.694Z</time></trkpt><trkpt lat="45.9927634" lon="12.7158711"><ele>44.5</ele><time>2026-04-03T17:22:08.695Z</time></trkpt><trkpt lat="45.9928855" lon="12.7158058"><ele>44.75</ele><time>2026-04-03T17:22:09.695Z</time></trkpt><trkpt lat="45.9930144" lon="12.7157368"><ele>45.0</ele><time>2026-04-03T17:22:10.694Z</time></trkpt><trkpt lat="45.9931384" lon="12.7156683"><ele>45.0</ele><time>2026-04-03T17:22:11.694Z</time></trkpt><trkpt lat="45.9932681" lon="12.7155985"><ele>45.0</ele><time>2026-04-03T17:22:12.694Z</time></trkpt><trkpt lat="45.9934007" lon="12.7155257"><ele>45.0</ele><time>2026-04-03T17:22:13.695Z</time></trkpt><trkpt lat="45.9935388" lon="12.71545"><ele>45.0</ele><time>2026-04-03T17:22:14.694Z</time></trkpt><trkpt lat="45.9936751" lon="12.7153679"><ele>45.0</ele><time>2026-04-03T17:22:15.696Z</time></trkpt><trkpt lat="45.9938123" lon="12.7152791"><ele>45.0</ele><time>2026-04-03T17:22:16.696Z</time></trkpt><trkpt lat="45.9939553" lon="12.7151799"><ele>45.0</ele><time>2026-04-03T17:22:17.696Z</time></trkpt><trkpt lat="45.9941" lon="12.7150773"><ele>46.33333333333333</ele><time>2026-04-03T17:22:18.696Z</time></trkpt><trkpt lat="45.9942449" lon="12.71497"><ele>47.666666666666664</ele><time>2026-04-03T17:22:19.695Z</time></trkpt><trkpt lat="45.9943847" lon="12.714864"><ele>49.0</ele><time>2026-04-03T17:22:20.694Z</time></trkpt><trkpt lat="45.994515" lon="12.7147581"><ele>49.0</ele><time>2026-04-03T17:22:21.694Z</time></trkpt><trkpt lat="45.9946384" lon="12.7146606"><ele>49.0</ele><time>2026-04-03T17:22:22.694Z</time></trkpt><trkpt lat="45.9947643" lon="12.7145656"><ele>49.0</ele><time>2026-04-03T17:22:23.695Z</time></trkpt><trkpt lat="45.9948908" lon="12.714471"><ele>49.0</ele><time>2026-04-03T17:22:24.694Z</time></trkpt><trkpt lat="45.9950157" lon="12.7143715"><ele>49.25</ele><time>2026-04-03T17:22:25.694Z</time></trkpt><trkpt lat="45.9951413" lon="12.7142732"><ele>49.5</ele><time>2026-04-03T17:22:26.694Z</time></trkpt><trkpt lat="45.9952665" lon="12.7141768"><ele>49.75</ele><time>2026-04-03T17:22:27.695Z</time></trkpt><trkpt lat="45.9953959" lon="12.714082"><ele>50.0</ele><time>2026-04-03T17:22:28.696Z</time></trkpt><trkpt lat="45.9955223" lon="12.7139838"><ele>50.0</ele><time>2026-04-03T17:22:29.695Z</time></trkpt><trkpt lat="45.9956514" lon="12.7138862"><ele>50.0</ele><time>2026-04-03T17:22:30.695Z</time></trkpt><trkpt lat="45.9957748" lon="12.7137849"><ele>50.0</ele><time>2026-04-03T17:22:31.695Z</time></trkpt><trkpt lat="45.9958991" lon="12.713684"><ele>50.0</ele><time>2026-04-03T17:22:32.695Z</time></trkpt><trkpt lat="45.9960273" lon="12.7135851"><ele>50.0</ele><time>2026-04-03T17:22:33.695Z</time></trkpt><trkpt lat="45.9961547" lon="12.7134822"><ele>50.0</ele><time>2026-04-03T17:22:34.695Z</time></trkpt><trkpt lat="45.9962798" lon="12.713383"><ele>50.0</ele><time>2026-04-03T17:22:35.694Z</time></trkpt><trkpt lat="45.9964017" lon="12.713288"><ele>50.0</ele><time>2026-04-03T17:22:36.694Z</time></trkpt><trkpt lat="45.9965117" lon="12.7132037"><ele>50.00000000000001</ele><time>2026-04-03T17:22:37.695Z</time></trkpt><trkpt lat="45.9966083" lon="12.7131313"><ele>50.0</ele><time>2026-04-03T17:22:38.694Z</time></trkpt><trkpt lat="45.9966897" lon="12.7130716"><ele>50.0</ele><time>2026-04-03T17:22:39.696Z</time></trkpt><trkpt lat="45.996751" lon="12.7130284"><ele>50.0</ele><time>2026-04-03T17:22:40.695Z</time></trkpt><trkpt lat="45.9968434" lon="12.7129601"><ele>50.00000000000001</ele><time>2026-04-03T17:22:42.695Z</time></trkpt><trkpt lat="45.9968905" lon="12.7128936"><ele>50.0</ele><time>2026-04-03T17:22:45.694Z</time></trkpt><trkpt lat="45.9968493" lon="12.7127953"><ele>50.2</ele><time>2026-04-03T17:22:55.694Z</time></trkpt><trkpt lat="45.9967429" lon="12.7127006"><ele>50.4</ele><time>2026-04-03T17:22:57.694Z</time></trkpt><trkpt lat="45.9966691" lon="12.7126344"><ele>50.599999999999994</ele><time>2026-04-03T17:22:58.695Z</time></trkpt><trkpt lat="45.9965899" lon="12.7125613"><ele>50.8</ele><time>2026-04-03T17:22:59.694Z</time></trkpt><trkpt lat="45.9965011" lon="12.7124805"><ele>51.0</ele><time>2026-04-03T17:23:00.695Z</time></trkpt><trkpt lat="45.9964096" lon="12.7123979"><ele>51.25</ele><time>2026-04-03T17:23:01.695Z</time></trkpt><trkpt lat="45.9963092" lon="12.7123086"><ele>51.5</ele><time>2026-04-03T17:23:02.695Z</time></trkpt><trkpt lat="45.9962058" lon="12.7122233"><ele>51.75</ele><time>2026-04-03T17:23:03.695Z</time></trkpt><trkpt lat="45.996103" lon="12.7121307"><ele>52.0</ele><time>2026-04-03T17:23:04.694Z</time></trkpt><trkpt lat="45.9959969" lon="12.7120338"><ele>52.0</ele><time>2026-04-03T17:23:05.695Z</time></trkpt><trkpt lat="45.9958909" lon="12.7119338"><ele>52.0</ele><time>2026-04-03T17:23:06.694Z</time></trkpt><trkpt lat="45.9957866" lon="12.71183"><ele>52.0</ele><time>2026-04-03T17:23:07.694Z</time></trkpt><trkpt lat="45.9956803" lon="12.7117202"><ele>52.0</ele><time>2026-04-03T17:23:08.694Z</time></trkpt><trkpt lat="45.9955799" lon="12.7116119"><ele>51.6</ele><time>2026-04-03T17:23:09.694Z</time></trkpt><trkpt lat="45.9954863" lon="12.7115117"><ele>51.2</ele><time>2026-04-03T17:23:10.694Z</time></trkpt><trkpt lat="45.9953998" lon="12.7114212"><ele>50.8</ele><time>2026-04-03T17:23:11.694Z</time></trkpt><trkpt lat="45.9953165" lon="12.7113295"><ele>50.4</ele><time>2026-04-03T17:23:12.694Z</time></trkpt><trkpt lat="45.9952419" lon="12.711238"><ele>50.0</ele><time>2026-04-03T17:23:13.695Z</time></trkpt><trkpt lat="45.995174" lon="12.7111471"><ele>49.833333333333336</ele><time>2026-04-03T17:23:14.695Z</time></trkpt><trkpt lat="45.9951091" lon="12.7110635"><ele>49.66666666666667</ele><time>2026-04-03T17:23:15.694Z</time></trkpt><trkpt lat="45.9950632" lon="12.7109775"><ele>49.5</ele><time>2026-04-03T17:23:16.695Z</time></trkpt><trkpt lat="45.9950303" lon="12.7108866"><ele>49.33333333333333</ele><time>2026-04-03T17:23:17.695Z</time></trkpt><trkpt lat="45.9950076" lon="12.7107721"><ele>49.166666666666664</ele><time>2026-04-03T17:23:18.695Z</time></trkpt><trkpt lat="45.9949806" lon="12.7106332"><ele>49.0</ele><time>2026-04-03T17:23:19.695Z</time></trkpt><trkpt lat="45.9949394" lon="12.7104769"><ele>48.5</ele><time>2026-04-03T17:23:20.694Z</time></trkpt><trkpt lat="45.9948986" lon="12.7103023"><ele>48.0</ele><time>2026-04-03T17:23:21.694Z</time></trkpt><trkpt lat="45.9948585" lon="12.7101118"><ele>47.5</ele><time>2026-04-03T17:23:22.696Z</time></trkpt><trkpt lat="45.994818" lon="12.7099304"><ele>47.0</ele><time>2026-04-03T17:23:23.695Z</time></trkpt><trkpt lat="45.994778" lon="12.7097675"><ele>47.0</ele><time>2026-04-03T17:23:24.695Z</time></trkpt><trkpt lat="45.9947408" lon="12.7096139"><ele>47.0</ele><time>2026-04-03T17:23:25.695Z</time></trkpt><trkpt lat="45.9947052" lon="12.7094731"><ele>47.0</ele><time>2026-04-03T17:23:26.695Z</time></trkpt><trkpt lat="45.9946719" lon="12.7093435"><ele>47.0</ele><time>2026-04-03T17:23:27.694Z</time></trkpt><trkpt lat="45.994638" lon="12.7092135"><ele>47.0</ele><time>2026-04-03T17:23:28.694Z</time></trkpt><trkpt lat="45.9946046" lon="12.709083"><ele>47.2</ele><time>2026-04-03T17:23:29.694Z</time></trkpt><trkpt lat="45.9945753" lon="12.708962"><ele>47.400000000000006</ele><time>2026-04-03T17:23:30.695Z</time></trkpt><trkpt lat="45.9945527" lon="12.7088569"><ele>47.599999999999994</ele><time>2026-04-03T17:23:31.695Z</time></trkpt><trkpt lat="45.9945419" lon="12.7087624"><ele>47.8</ele><time>2026-04-03T17:23:32.696Z</time></trkpt><trkpt lat="45.9945486" lon="12.7086035"><ele>48.0</ele><time>2026-04-03T17:23:34.695Z</time></trkpt><trkpt lat="45.9945388" lon="12.7084343"><ele>48.0</ele><time>2026-04-03T17:23:36.695Z</time></trkpt><trkpt lat="45.9944957" lon="12.7083386"><ele>48.0</ele><time>2026-04-03T17:23:37.694Z</time></trkpt><trkpt lat="45.9944543" lon="12.7082181"><ele>48.0</ele><time>2026-04-03T17:23:38.696Z</time></trkpt><trkpt lat="45.9944174" lon="12.7080757"><ele>48.0</ele><time>2026-04-03T17:23:39.695Z</time></trkpt><trkpt lat="45.9943758" lon="12.7079205"><ele>48.0</ele><time>2026-04-03T17:23:40.696Z</time></trkpt><trkpt lat="45.994336" lon="12.7077714"><ele>48.0</ele><time>2026-04-03T17:23:41.695Z</time></trkpt><trkpt lat="45.9942972" lon="12.7076175"><ele>48.0</ele><time>2026-04-03T17:23:42.695Z</time></trkpt><trkpt lat="45.9942535" lon="12.7074626"><ele>48.0</ele><time>2026-04-03T17:23:43.695Z</time></trkpt><trkpt lat="45.9942096" lon="12.7072979"><ele>48.0</ele><time>2026-04-03T17:23:44.696Z</time></trkpt><trkpt lat="45.9941603" lon="12.7071291"><ele>47.75</ele><time>2026-04-03T17:23:45.695Z</time></trkpt><trkpt lat="45.9941044" lon="12.7069557"><ele>47.5</ele><time>2026-04-03T17:23:46.696Z</time></trkpt><trkpt lat="45.9940509" lon="12.7067891"><ele>47.25</ele><time>2026-04-03T17:23:47.695Z</time></trkpt><trkpt lat="45.993993" lon="12.7066217"><ele>47.0</ele><time>2026-04-03T17:23:48.695Z</time></trkpt><trkpt lat="45.9939343" lon="12.7064491"><ele>47.0</ele><time>2026-04-03T17:23:49.694Z</time></trkpt><trkpt lat="45.9938814" lon="12.7062865"><ele>47.0</ele><time>2026-04-03T17:23:50.694Z</time></trkpt><trkpt lat="45.9938322" lon="12.7061359"><ele>47.0</ele><time>2026-04-03T17:23:51.694Z</time></trkpt><trkpt lat="45.9937773" lon="12.7059913"><ele>47.0</ele><time>2026-04-03T17:23:52.694Z</time></trkpt><trkpt lat="45.9937061" lon="12.7058545"><ele>47.0</ele><time>2026-04-03T17:23:53.695Z</time></trkpt><trkpt lat="45.9936102" lon="12.705724"><ele>47.0</ele><time>2026-04-03T17:23:54.694Z</time></trkpt><trkpt lat="45.9934995" lon="12.7055971"><ele>47.0</ele><time>2026-04-03T17:23:55.695Z</time></trkpt><trkpt lat="45.9933826" lon="12.705462"><ele>47.0</ele><time>2026-04-03T17:23:56.694Z</time></trkpt><trkpt lat="45.9932635" lon="12.7053284"><ele>46.75</ele><time>2026-04-03T17:23:57.694Z</time></trkpt><trkpt lat="45.993151" lon="12.7052022"><ele>46.5</ele><time>2026-04-03T17:23:58.695Z</time></trkpt><trkpt lat="45.9930391" lon="12.7050823"><ele>46.25</ele><time>2026-04-03T17:23:59.694Z</time></trkpt><trkpt lat="45.9929248" lon="12.7049659"><ele>46.0</ele><time>2026-04-03T17:24:00.695Z</time></trkpt><trkpt lat="45.9928098" lon="12.7048449"><ele>46.0</ele><time>2026-04-03T17:24:01.694Z</time></trkpt><trkpt lat="45.9926955" lon="12.7047252"><ele>46.0</ele><time>2026-04-03T17:24:02.695Z</time></trkpt><trkpt lat="45.9925799" lon="12.7046056"><ele>46.0</ele><time>2026-04-03T17:24:03.694Z</time></trkpt><trkpt lat="45.9924677" lon="12.704475"><ele>46.0</ele><time>2026-04-03T17:24:04.696Z</time></trkpt><trkpt lat="45.9923562" lon="12.7043365"><ele>45.75</ele><time>2026-04-03T17:24:05.694Z</time></trkpt><trkpt lat="45.9922488" lon="12.7041928"><ele>45.5</ele><time>2026-04-03T17:24:06.695Z</time></trkpt><trkpt lat="45.9921474" lon="12.7040398"><ele>45.25</ele><time>2026-04-03T17:24:07.695Z</time></trkpt><trkpt lat="45.9920499" lon="12.7038828"><ele>45.0</ele><time>2026-04-03T17:24:08.695Z</time></trkpt><trkpt lat="45.9919552" lon="12.7037185"><ele>44.75</ele><time>2026-04-03T17:24:09.696Z</time></trkpt><trkpt lat="45.9918653" lon="12.7035541"><ele>44.5</ele><time>2026-04-03T17:24:10.695Z</time></trkpt><trkpt lat="45.9917806" lon="12.7033825"><ele>44.25</ele><time>2026-04-03T17:24:11.695Z</time></trkpt><trkpt lat="45.9917023" lon="12.7032022"><ele>44.0</ele><time>2026-04-03T17:24:12.695Z</time></trkpt><trkpt lat="45.9916286" lon="12.7030199"><ele>44.5</ele><time>2026-04-03T17:24:13.694Z</time></trkpt><trkpt lat="45.9915585" lon="12.7028311"><ele>45.0</ele><time>2026-04-03T17:24:14.696Z</time></trkpt><trkpt lat="45.9914867" lon="12.7026463"><ele>45.5</ele><time>2026-04-03T17:24:15.695Z</time></trkpt><trkpt lat="45.9914223" lon="12.7024791"><ele>46.0</ele><time>2026-04-03T17:24:16.695Z</time></trkpt><trkpt lat="45.9913563" lon="12.7023158"><ele>46.0</ele><time>2026-04-03T17:24:17.694Z</time></trkpt><trkpt lat="45.9912986" lon="12.7021731"><ele>46.0</ele><time>2026-04-03T17:24:18.695Z</time></trkpt><trkpt lat="45.9912412" lon="12.7020415"><ele>46.0</ele><time>2026-04-03T17:24:19.694Z</time></trkpt><trkpt lat="45.9911906" lon="12.7019165"><ele>46.0</ele><time>2026-04-03T17:24:20.694Z</time></trkpt><trkpt lat="45.9911386" lon="12.7017981"><ele>46.0</ele><time>2026-04-03T17:24:21.695Z</time></trkpt><trkpt lat="45.9910935" lon="12.7016833"><ele>46.0</ele><time>2026-04-03T17:24:22.695Z</time></trkpt><trkpt lat="45.9910462" lon="12.7015678"><ele>46.0</ele><time>2026-04-03T17:24:23.695Z</time></trkpt><trkpt lat="45.9909921" lon="12.7014359"><ele>46.0</ele><time>2026-04-03T17:24:24.695Z</time></trkpt><trkpt lat="45.9909311" lon="12.7012901"><ele>46.0</ele><time>2026-04-03T17:24:25.696Z</time></trkpt><trkpt lat="45.9908679" lon="12.7011281"><ele>46.0</ele><time>2026-04-03T17:24:26.695Z</time></trkpt><trkpt lat="45.9908101" lon="12.7009451"><ele>46.0</ele><time>2026-04-03T17:24:27.694Z</time></trkpt><trkpt lat="45.9907655" lon="12.700751"><ele>46.0</ele><time>2026-04-03T17:24:28.695Z</time></trkpt><trkpt lat="45.9907386" lon="12.700542"><ele>46.0</ele><time>2026-04-03T17:24:29.695Z</time></trkpt><trkpt lat="45.9907198" lon="12.7003263"><ele>46.0</ele><time>2026-04-03T17:24:30.695Z</time></trkpt><trkpt lat="45.9906969" lon="12.700121"><ele>46.0</ele><time>2026-04-03T17:24:31.694Z</time></trkpt><trkpt lat="45.9906805" lon="12.6999336"><ele>46.0</ele><time>2026-04-03T17:24:32.695Z</time></trkpt><trkpt lat="45.9906602" lon="12.6997461"><ele>46.0</ele><time>2026-04-03T17:24:33.694Z</time></trkpt><trkpt lat="45.9906238" lon="12.6995564"><ele>46.0</ele><time>2026-04-03T17:24:34.696Z</time></trkpt><trkpt lat="45.9905688" lon="12.6993676"><ele>46.25</ele><time>2026-04-03T17:24:35.695Z</time></trkpt><trkpt lat="45.9905048" lon="12.6991735"><ele>46.5</ele><time>2026-04-03T17:24:36.695Z</time></trkpt><trkpt lat="45.9904388" lon="12.6989859"><ele>46.75</ele><time>2026-04-03T17:24:37.695Z</time></trkpt><trkpt lat="45.9903805" lon="12.6988061"><ele>47.0</ele><time>2026-04-03T17:24:38.695Z</time></trkpt><trkpt lat="45.9903248" lon="12.6986298"><ele>46.75</ele><time>2026-04-03T17:24:39.695Z</time></trkpt><trkpt lat="45.9902662" lon="12.6984407"><ele>46.5</ele><time>2026-04-03T17:24:40.694Z</time></trkpt><trkpt lat="45.9902143" lon="12.6982472"><ele>46.25</ele><time>2026-04-03T17:24:41.694Z</time></trkpt><trkpt lat="45.990163" lon="12.6980473"><ele>46.0</ele><time>2026-04-03T17:24:42.695Z</time></trkpt><trkpt lat="45.990111" lon="12.6978436"><ele>46.0</ele><time>2026-04-03T17:24:43.695Z</time></trkpt><trkpt lat="45.9900588" lon="12.6976327"><ele>46.0</ele><time>2026-04-03T17:24:44.695Z</time></trkpt><trkpt lat="45.9900155" lon="12.697418"><ele>46.0</ele><time>2026-04-03T17:24:45.695Z</time></trkpt><trkpt lat="45.9899817" lon="12.6971987"><ele>46.0</ele><time>2026-04-03T17:24:46.695Z</time></trkpt><trkpt lat="45.9899565" lon="12.6969787"><ele>46.0</ele><time>2026-04-03T17:24:47.695Z</time></trkpt><trkpt lat="45.9899297" lon="12.6967592"><ele>46.0</ele><time>2026-04-03T17:24:48.694Z</time></trkpt><trkpt lat="45.9899051" lon="12.696543"><ele>46.0</ele><time>2026-04-03T17:24:49.694Z</time></trkpt><trkpt lat="45.9898824" lon="12.6963251"><ele>46.0</ele><time>2026-04-03T17:24:50.694Z</time></trkpt><trkpt lat="45.989855" lon="12.6961083"><ele>46.0</ele><time>2026-04-03T17:24:51.695Z</time></trkpt><trkpt lat="45.9898321" lon="12.6958951"><ele>46.5</ele><time>2026-04-03T17:24:52.694Z</time></trkpt><trkpt lat="45.9898108" lon="12.6956882"><ele>47.0</ele><time>2026-04-03T17:24:53.694Z</time></trkpt><trkpt lat="45.9897832" lon="12.6954963"><ele>47.5</ele><time>2026-04-03T17:24:54.694Z</time></trkpt><trkpt lat="45.9897453" lon="12.6953181"><ele>48.0</ele><time>2026-04-03T17:24:55.694Z</time></trkpt><trkpt lat="45.9896905" lon="12.6951371"><ele>48.33333333333333</ele><time>2026-04-03T17:24:56.695Z</time></trkpt><trkpt lat="45.9896215" lon="12.6949484"><ele>48.666666666666664</ele><time>2026-04-03T17:24:57.695Z</time></trkpt><trkpt lat="45.9895501" lon="12.6947526"><ele>49.0</ele><time>2026-04-03T17:24:58.696Z</time></trkpt><trkpt lat="45.9894739" lon="12.6945492"><ele>48.33333333333333</ele><time>2026-04-03T17:24:59.694Z</time></trkpt><trkpt lat="45.9893944" lon="12.6943451"><ele>47.666666666666664</ele><time>2026-04-03T17:25:00.695Z</time></trkpt><trkpt lat="45.9893186" lon="12.6941426"><ele>47.0</ele><time>2026-04-03T17:25:01.694Z</time></trkpt><trkpt lat="45.9892445" lon="12.6939429"><ele>47.0</ele><time>2026-04-03T17:25:02.694Z</time></trkpt><trkpt lat="45.9891693" lon="12.6937409"><ele>47.0</ele><time>2026-04-03T17:25:03.694Z</time></trkpt><trkpt lat="45.9890915" lon="12.6935382"><ele>47.0</ele><time>2026-04-03T17:25:04.694Z</time></trkpt><trkpt lat="45.9890121" lon="12.6933323"><ele>47.0</ele><time>2026-04-03T17:25:05.695Z</time></trkpt><trkpt lat="45.9889316" lon="12.6931249"><ele>47.0</ele><time>2026-04-03T17:25:06.695Z</time></trkpt><trkpt lat="45.9888521" lon="12.6929125"><ele>47.0</ele><time>2026-04-03T17:25:07.694Z</time></trkpt><trkpt lat="45.9887719" lon="12.692703"><ele>47.0</ele><time>2026-04-03T17:25:08.694Z</time></trkpt><trkpt lat="45.9886905" lon="12.6924958"><ele>47.0</ele><time>2026-04-03T17:25:09.694Z</time></trkpt><trkpt lat="45.9886088" lon="12.6922918"><ele>47.0</ele><time>2026-04-03T17:25:10.695Z</time></trkpt><trkpt lat="45.9885289" lon="12.6920883"><ele>47.33333333333333</ele><time>2026-04-03T17:25:11.696Z</time></trkpt><trkpt lat="45.9884474" lon="12.6918878"><ele>47.666666666666664</ele><time>2026-04-03T17:25:12.695Z</time></trkpt><trkpt lat="45.9883678" lon="12.6916889"><ele>48.0</ele><time>2026-04-03T17:25:13.695Z</time></trkpt><trkpt lat="45.9882892" lon="12.6914867"><ele>48.0</ele><time>2026-04-03T17:25:14.694Z</time></trkpt><trkpt lat="45.9882115" lon="12.6912855"><ele>48.0</ele><time>2026-04-03T17:25:15.695Z</time></trkpt><trkpt lat="45.9881335" lon="12.6910833"><ele>48.0</ele><time>2026-04-03T17:25:16.694Z</time></trkpt><trkpt lat="45.9880555" lon="12.6908853"><ele>47.666666666666664</ele><time>2026-04-03T17:25:17.695Z</time></trkpt><trkpt lat="45.9879756" lon="12.6906846"><ele>47.33333333333333</ele><time>2026-04-03T17:25:18.695Z</time></trkpt><trkpt lat="45.9878947" lon="12.6904882"><ele>47.0</ele><time>2026-04-03T17:25:19.696Z</time></trkpt><trkpt lat="45.9878121" lon="12.6902891"><ele>47.666666666666664</ele><time>2026-04-03T17:25:20.695Z</time></trkpt><trkpt lat="45.9877284" lon="12.6900956"><ele>48.33333333333333</ele><time>2026-04-03T17:25:21.694Z</time></trkpt><trkpt lat="45.9876413" lon="12.6899037"><ele>49.0</ele><time>2026-04-03T17:25:22.694Z</time></trkpt><trkpt lat="45.9875542" lon="12.6897124"><ele>48.666666666666664</ele><time>2026-04-03T17:25:23.694Z</time></trkpt><trkpt lat="45.9874687" lon="12.689524"><ele>48.33333333333333</ele><time>2026-04-03T17:25:24.694Z</time></trkpt><trkpt lat="45.9873844" lon="12.6893451"><ele>48.0</ele><time>2026-04-03T17:25:25.695Z</time></trkpt><trkpt lat="45.9872983" lon="12.6891638"><ele>48.0</ele><time>2026-04-03T17:25:26.695Z</time></trkpt><trkpt lat="45.9872091" lon="12.6889726"><ele>48.0</ele><time>2026-04-03T17:25:27.694Z</time></trkpt><trkpt lat="45.9871156" lon="12.6887769"><ele>48.0</ele><time>2026-04-03T17:25:28.694Z</time></trkpt><trkpt lat="45.9870216" lon="12.6885864"><ele>47.75</ele><time>2026-04-03T17:25:29.695Z</time></trkpt><trkpt lat="45.9869351" lon="12.6884132"><ele>47.5</ele><time>2026-04-03T17:25:30.695Z</time></trkpt><trkpt lat="45.9868488" lon="12.6882522"><ele>47.25</ele><time>2026-04-03T17:25:31.696Z</time></trkpt><trkpt lat="45.9867564" lon="12.6880987"><ele>47.0</ele><time>2026-04-03T17:25:32.695Z</time></trkpt><trkpt lat="45.986661" lon="12.6879443"><ele>47.0</ele><time>2026-04-03T17:25:33.694Z</time></trkpt><trkpt lat="45.9865589" lon="12.6877893"><ele>47.0</ele><time>2026-04-03T17:25:34.695Z</time></trkpt><trkpt lat="45.9864605" lon="12.6876268"><ele>47.0</ele><time>2026-04-03T17:25:35.694Z</time></trkpt><trkpt lat="45.9863728" lon="12.6874673"><ele>47.0</ele><time>2026-04-03T17:25:36.695Z</time></trkpt><trkpt lat="45.9862957" lon="12.6873259"><ele>47.0</ele><time>2026-04-03T17:25:37.696Z</time></trkpt><trkpt lat="45.9862324" lon="12.6871984"><ele>47.0</ele><time>2026-04-03T17:25:38.694Z</time></trkpt><trkpt lat="45.9861784" lon="12.687085"><ele>47.0</ele><time>2026-04-03T17:25:39.694Z</time></trkpt><trkpt lat="45.986132" lon="12.6869871"><ele>47.0</ele><time>2026-04-03T17:25:40.695Z</time></trkpt><trkpt lat="45.9860747" lon="12.6868637"><ele>47.0</ele><time>2026-04-03T17:25:42.694Z</time></trkpt><trkpt lat="45.9860225" lon="12.6867497"><ele>47.0</ele><time>2026-04-03T17:25:59.694Z</time></trkpt><trkpt lat="45.9859528" lon="12.6866421"><ele>47.0</ele><time>2026-04-03T17:26:01.694Z</time></trkpt><trkpt lat="45.9858654" lon="12.686492"><ele>47.0</ele><time>2026-04-03T17:26:03.694Z</time></trkpt><trkpt lat="45.985826" lon="12.6864057"><ele>47.0</ele><time>2026-04-03T17:26:04.695Z</time></trkpt><trkpt lat="45.9857802" lon="12.6863154"><ele>47.0</ele><time>2026-04-03T17:26:05.695Z</time></trkpt><trkpt lat="45.985726" lon="12.6862119"><ele>47.2</ele><time>2026-04-03T17:26:06.695Z</time></trkpt><trkpt lat="45.9856664" lon="12.6861092"><ele>47.400000000000006</ele><time>2026-04-03T17:26:07.695Z</time></trkpt><trkpt lat="45.9856072" lon="12.686008"><ele>47.599999999999994</ele><time>2026-04-03T17:26:08.695Z</time></trkpt><trkpt lat="45.9855398" lon="12.6859022"><ele>47.8</ele><time>2026-04-03T17:26:09.695Z</time></trkpt><trkpt lat="45.985467" lon="12.685791"><ele>48.0</ele><time>2026-04-03T17:26:10.696Z</time></trkpt><trkpt lat="45.9853909" lon="12.6856662"><ele>48.0</ele><time>2026-04-03T17:26:11.695Z</time></trkpt><trkpt lat="45.9853143" lon="12.6855375"><ele>48.0</ele><time>2026-04-03T17:26:12.695Z</time></trkpt><trkpt lat="45.9852405" lon="12.6854117"><ele>48.0</ele><time>2026-04-03T17:26:13.694Z</time></trkpt><trkpt lat="45.9851628" lon="12.6852804"><ele>48.0</ele><time>2026-04-03T17:26:14.694Z</time></trkpt><trkpt lat="45.98508" lon="12.6851421"><ele>47.5</ele><time>2026-04-03T17:26:15.695Z</time></trkpt><trkpt lat="45.9849941" lon="12.6849958"><ele>47.0</ele><time>2026-04-03T17:26:16.695Z</time></trkpt><trkpt lat="45.9849077" lon="12.684846"><ele>46.5</ele><time>2026-04-03T17:26:17.695Z</time></trkpt><trkpt lat="45.9848186" lon="12.6846918"><ele>46.0</ele><time>2026-04-03T17:26:18.695Z</time></trkpt><trkpt lat="45.9847303" lon="12.6845324"><ele>44.75</ele><time>2026-04-03T17:26:19.694Z</time></trkpt><trkpt lat="45.9846405" lon="12.6843694"><ele>43.5</ele><time>2026-04-03T17:26:20.694Z</time></trkpt><trkpt lat="45.9845507" lon="12.6842109"><ele>42.25</ele><time>2026-04-03T17:26:21.696Z</time></trkpt><trkpt lat="45.9844651" lon="12.6840572"><ele>41.0</ele><time>2026-04-03T17:26:22.694Z</time></trkpt><trkpt lat="45.9843779" lon="12.6838984"><ele>41.0</ele><time>2026-04-03T17:26:23.694Z</time></trkpt><trkpt lat="45.9842882" lon="12.6837363"><ele>41.0</ele><time>2026-04-03T17:26:24.695Z</time></trkpt><trkpt lat="45.9841983" lon="12.6835761"><ele>41.0</ele><time>2026-04-03T17:26:25.695Z</time></trkpt><trkpt lat="45.9841084" lon="12.6834118"><ele>41.0</ele><time>2026-04-03T17:26:26.695Z</time></trkpt><trkpt lat="45.9840169" lon="12.6832483"><ele>41.25</ele><time>2026-04-03T17:26:27.694Z</time></trkpt><trkpt lat="45.983927" lon="12.6830804"><ele>41.5</ele><time>2026-04-03T17:26:28.695Z</time></trkpt><trkpt lat="45.9838353" lon="12.6829166"><ele>41.75</ele><time>2026-04-03T17:26:29.694Z</time></trkpt><trkpt lat="45.9837448" lon="12.682755"><ele>42.0</ele><time>2026-04-03T17:26:30.694Z</time></trkpt><trkpt lat="45.9836533" lon="12.6825914"><ele>42.25</ele><time>2026-04-03T17:26:31.695Z</time></trkpt><trkpt lat="45.9835615" lon="12.6824316"><ele>42.5</ele><time>2026-04-03T17:26:32.695Z</time></trkpt><trkpt lat="45.9834665" lon="12.6822734"><ele>42.75</ele><time>2026-04-03T17:26:33.695Z</time></trkpt><trkpt lat="45.9833675" lon="12.6821153"><ele>43.0</ele><time>2026-04-03T17:26:34.695Z</time></trkpt><trkpt lat="45.9832674" lon="12.6819559"><ele>44.0</ele><time>2026-04-03T17:26:35.695Z</time></trkpt><trkpt lat="45.9831659" lon="12.6818026"><ele>45.0</ele><time>2026-04-03T17:26:36.695Z</time></trkpt><trkpt lat="45.9830617" lon="12.6816472"><ele>46.0</ele><time>2026-04-03T17:26:37.695Z</time></trkpt><trkpt lat="45.9829591" lon="12.6814841"><ele>46.0</ele><time>2026-04-03T17:26:38.695Z</time></trkpt><trkpt lat="45.9828543" lon="12.6813219"><ele>46.0</ele><time>2026-04-03T17:26:39.694Z</time></trkpt><trkpt lat="45.9827459" lon="12.6811592"><ele>46.0</ele><time>2026-04-03T17:26:40.695Z</time></trkpt><trkpt lat="45.9826362" lon="12.6809945"><ele>46.0</ele><time>2026-04-03T17:26:41.695Z</time></trkpt><trkpt lat="45.9825284" lon="12.6808268"><ele>46.0</ele><time>2026-04-03T17:26:42.696Z</time></trkpt><trkpt lat="45.9824187" lon="12.680662"><ele>46.0</ele><time>2026-04-03T17:26:43.695Z</time></trkpt><trkpt lat="45.9823094" lon="12.6804959"><ele>45.66666666666667</ele><time>2026-04-03T17:26:44.695Z</time></trkpt><trkpt lat="45.9821996" lon="12.6803312"><ele>45.333333333333336</ele><time>2026-04-03T17:26:45.694Z</time></trkpt><trkpt lat="45.9820893" lon="12.6801641"><ele>45.0</ele><time>2026-04-03T17:26:46.694Z</time></trkpt><trkpt lat="45.9819783" lon="12.6799951"><ele>45.0</ele><time>2026-04-03T17:26:47.694Z</time></trkpt><trkpt lat="45.9818663" lon="12.6798265"><ele>45.0</ele><time>2026-04-03T17:26:48.694Z</time></trkpt><trkpt lat="45.9817529" lon="12.6796527"><ele>45.0</ele><time>2026-04-03T17:26:49.694Z</time></trkpt><trkpt lat="45.9816398" lon="12.6794788"><ele>44.666666666666664</ele><time>2026-04-03T17:26:50.694Z</time></trkpt><trkpt lat="45.981527" lon="12.6793059"><ele>44.33333333333333</ele><time>2026-04-03T17:26:51.695Z</time></trkpt><trkpt lat="45.9814179" lon="12.6791354"><ele>44.0</ele><time>2026-04-03T17:26:52.695Z</time></trkpt><trkpt lat="45.9813147" lon="12.6789565"><ele>44.0</ele><time>2026-04-03T17:26:53.695Z</time></trkpt><trkpt lat="45.9812188" lon="12.6787712"><ele>44.0</ele><time>2026-04-03T17:26:54.694Z</time></trkpt><trkpt lat="45.9811304" lon="12.6785803"><ele>44.0</ele><time>2026-04-03T17:26:55.694Z</time></trkpt><trkpt lat="45.9810459" lon="12.6783864"><ele>43.33333333333333</ele><time>2026-04-03T17:26:56.695Z</time></trkpt><trkpt lat="45.9809655" lon="12.6781892"><ele>42.666666666666664</ele><time>2026-04-03T17:26:57.694Z</time></trkpt><trkpt lat="45.9808921" lon="12.6779884"><ele>42.0</ele><time>2026-04-03T17:26:58.695Z</time></trkpt><trkpt lat="45.9808199" lon="12.6777842"><ele>42.666666666666664</ele><time>2026-04-03T17:26:59.694Z</time></trkpt><trkpt lat="45.9807554" lon="12.677576"><ele>43.33333333333333</ele><time>2026-04-03T17:27:00.694Z</time></trkpt><trkpt lat="45.9806937" lon="12.6773627"><ele>44.0</ele><time>2026-04-03T17:27:01.695Z</time></trkpt><trkpt lat="45.9806351" lon="12.6771473"><ele>44.33333333333333</ele><time>2026-04-03T17:27:02.695Z</time></trkpt><trkpt lat="45.9805778" lon="12.6769321"><ele>44.666666666666664</ele><time>2026-04-03T17:27:03.694Z</time></trkpt><trkpt lat="45.9805228" lon="12.6767195"><ele>45.0</ele><time>2026-04-03T17:27:04.695Z</time></trkpt><trkpt lat="45.9804675" lon="12.6765052"><ele>45.0</ele><time>2026-04-03T17:27:05.694Z</time></trkpt><trkpt lat="45.9804158" lon="12.6762912"><ele>45.0</ele><time>2026-04-03T17:27:06.695Z</time></trkpt><trkpt lat="45.9803613" lon="12.676077"><ele>45.0</ele><time>2026-04-03T17:27:07.696Z</time></trkpt><trkpt lat="45.9803067" lon="12.6758637"><ele>45.5</ele><time>2026-04-03T17:27:08.695Z</time></trkpt><trkpt lat="45.9802516" lon="12.6756547"><ele>46.0</ele><time>2026-04-03T17:27:09.696Z</time></trkpt><trkpt lat="45.9802009" lon="12.6754608"><ele>46.5</ele><time>2026-04-03T17:27:10.695Z</time></trkpt><trkpt lat="45.9801546" lon="12.6752773"><ele>47.0</ele><time>2026-04-03T17:27:11.696Z</time></trkpt><trkpt lat="45.9801122" lon="12.6751111"><ele>47.0</ele><time>2026-04-03T17:27:12.695Z</time></trkpt><trkpt lat="45.9800714" lon="12.6749554"><ele>47.0</ele><time>2026-04-03T17:27:13.695Z</time></trkpt><trkpt lat="45.9800414" lon="12.6748431"><ele>47.0</ele><time>2026-04-03T17:27:14.695Z</time></trkpt><trkpt lat="45.9800077" lon="12.6746999"><ele>47.0</ele><time>2026-04-03T17:27:16.696Z</time></trkpt><trkpt lat="45.9799394" lon="12.6746298"><ele>47.0</ele><time>2026-04-03T17:27:18.695Z</time></trkpt><trkpt lat="45.9798152" lon="12.6746912"><ele>45.8</ele><time>2026-04-03T17:27:20.695Z</time></trkpt><trkpt lat="45.97974" lon="12.6747475"><ele>44.6</ele><time>2026-04-03T17:27:21.695Z</time></trkpt><trkpt lat="45.979667" lon="12.6748052"><ele>43.4</ele><time>2026-04-03T17:27:22.695Z</time></trkpt><trkpt lat="45.9795856" lon="12.6748777"><ele>42.199999999999996</ele><time>2026-04-03T17:27:23.695Z</time></trkpt><trkpt lat="45.9794991" lon="12.6749572"><ele>41.0</ele><time>2026-04-03T17:27:24.694Z</time></trkpt><trkpt lat="45.9794156" lon="12.6750426"><ele>41.0</ele><time>2026-04-03T17:27:25.695Z</time></trkpt><trkpt lat="45.9793287" lon="12.6751357"><ele>41.0</ele><time>2026-04-03T17:27:26.694Z</time></trkpt><trkpt lat="45.9792366" lon="12.6752456"><ele>41.0</ele><time>2026-04-03T17:27:27.695Z</time></trkpt><trkpt lat="45.9791476" lon="12.675359"><ele>41.0</ele><time>2026-04-03T17:27:28.694Z</time></trkpt><trkpt lat="45.9790613" lon="12.6754731"><ele>40.75</ele><time>2026-04-03T17:27:29.695Z</time></trkpt><trkpt lat="45.9789665" lon="12.6755934"><ele>40.5</ele><time>2026-04-03T17:27:30.694Z</time></trkpt><trkpt lat="45.9788634" lon="12.6757144"><ele>40.25</ele><time>2026-04-03T17:27:31.694Z</time></trkpt><trkpt lat="45.9787512" lon="12.6758432"><ele>40.0</ele><time>2026-04-03T17:27:32.695Z</time></trkpt><trkpt lat="45.9786353" lon="12.6759737"><ele>40.0</ele><time>2026-04-03T17:27:33.694Z</time></trkpt><trkpt lat="45.9785252" lon="12.6760969"><ele>40.0</ele><time>2026-04-03T17:27:34.695Z</time></trkpt><trkpt lat="45.9784233" lon="12.6762068"><ele>40.0</ele><time>2026-04-03T17:27:35.695Z</time></trkpt><trkpt lat="45.9783248" lon="12.6763165"><ele>40.0</ele><time>2026-04-03T17:27:36.694Z</time></trkpt><trkpt lat="45.978223" lon="12.6764298"><ele>39.75</ele><time>2026-04-03T17:27:37.694Z</time></trkpt><trkpt lat="45.9781202" lon="12.6765414"><ele>39.5</ele><time>2026-04-03T17:27:38.695Z</time></trkpt><trkpt lat="45.9780167" lon="12.6766535"><ele>39.25</ele><time>2026-04-03T17:27:39.694Z</time></trkpt><trkpt lat="45.9779196" lon="12.6767658"><ele>39.0</ele><time>2026-04-03T17:27:40.695Z</time></trkpt><trkpt lat="45.9778244" lon="12.6768821"><ele>38.75</ele><time>2026-04-03T17:27:41.694Z</time></trkpt><trkpt lat="45.9777281" lon="12.6770019"><ele>38.5</ele><time>2026-04-03T17:27:42.695Z</time></trkpt><trkpt lat="45.9776283" lon="12.6771161"><ele>38.25</ele><time>2026-04-03T17:27:43.696Z</time></trkpt><trkpt lat="45.9775289" lon="12.6772416"><ele>38.0</ele><time>2026-04-03T17:27:44.695Z</time></trkpt><trkpt lat="45.9774272" lon="12.6773676"><ele>38.0</ele><time>2026-04-03T17:27:45.695Z</time></trkpt><trkpt lat="45.9773205" lon="12.677499"><ele>38.0</ele><time>2026-04-03T17:27:46.694Z</time></trkpt><trkpt lat="45.9772105" lon="12.6776294"><ele>38.0</ele><time>2026-04-03T17:27:47.694Z</time></trkpt><trkpt lat="45.9771064" lon="12.6777442"><ele>38.0</ele><time>2026-04-03T17:27:48.696Z</time></trkpt><trkpt lat="45.9770106" lon="12.6778544"><ele>38.0</ele><time>2026-04-03T17:27:49.696Z</time></trkpt><trkpt lat="45.9769194" lon="12.6779549"><ele>38.0</ele><time>2026-04-03T17:27:50.695Z</time></trkpt><trkpt lat="45.9768347" lon="12.678051"><ele>38.0</ele><time>2026-04-03T17:27:51.695Z</time></trkpt><trkpt lat="45.9767549" lon="12.6781387"><ele>38.0</ele><time>2026-04-03T17:27:52.695Z</time></trkpt><trkpt lat="45.9766776" lon="12.6782276"><ele>38.0</ele><time>2026-04-03T17:27:53.694Z</time></trkpt><trkpt lat="45.9766071" lon="12.6783188"><ele>37.666666666666664</ele><time>2026-04-03T17:27:54.695Z</time></trkpt><trkpt lat="45.9765376" lon="12.6784028"><ele>37.33333333333333</ele><time>2026-04-03T17:27:55.694Z</time></trkpt><trkpt lat="45.9764695" lon="12.6784804"><ele>37.0</ele><time>2026-04-03T17:27:56.694Z</time></trkpt><trkpt lat="45.9764051" lon="12.6785545"><ele>36.666666666666664</ele><time>2026-04-03T17:27:57.695Z</time></trkpt><trkpt lat="45.976354" lon="12.6786219"><ele>36.333333333333336</ele><time>2026-04-03T17:27:58.695Z</time></trkpt><trkpt lat="45.9762914" lon="12.6786823"><ele>36.0</ele><time>2026-04-03T17:28:00.695Z</time></trkpt><trkpt lat="45.9762079" lon="12.6785694"><ele>36.0</ele><time>2026-04-03T17:28:03.695Z</time></trkpt><trkpt lat="45.9761695" lon="12.6784815"><ele>36.0</ele><time>2026-04-03T17:28:04.694Z</time></trkpt><trkpt lat="45.9761281" lon="12.6783809"><ele>36.0</ele><time>2026-04-03T17:28:05.694Z</time></trkpt><trkpt lat="45.9760866" lon="12.6782747"><ele>36.0</ele><time>2026-04-03T17:28:06.695Z</time></trkpt><trkpt lat="45.9760371" lon="12.6781538"><ele>36.0</ele><time>2026-04-03T17:28:07.696Z</time></trkpt><trkpt lat="45.9759843" lon="12.6780204"><ele>36.0</ele><time>2026-04-03T17:28:08.696Z</time></trkpt><trkpt lat="45.9759332" lon="12.6778917"><ele>36.0</ele><time>2026-04-03T17:28:09.695Z</time></trkpt><trkpt lat="45.9758744" lon="12.6777547"><ele>36.0</ele><time>2026-04-03T17:28:10.696Z</time></trkpt><trkpt lat="45.975815" lon="12.6776079"><ele>36.0</ele><time>2026-04-03T17:28:11.696Z</time></trkpt><trkpt lat="45.9757555" lon="12.6774611"><ele>36.0</ele><time>2026-04-03T17:28:12.695Z</time></trkpt><trkpt lat="45.9756955" lon="12.6773101"><ele>36.0</ele><time>2026-04-03T17:28:13.694Z</time></trkpt><trkpt lat="45.9756321" lon="12.6771486"><ele>36.0</ele><time>2026-04-03T17:28:14.695Z</time></trkpt><trkpt lat="45.9755659" lon="12.6769779"><ele>36.0</ele><time>2026-04-03T17:28:15.695Z</time></trkpt><trkpt lat="45.975496" lon="12.6768067"><ele>36.0</ele><time>2026-04-03T17:28:16.695Z</time></trkpt><trkpt lat="45.9754251" lon="12.6766436"><ele>35.8</ele><time>2026-04-03T17:28:17.695Z</time></trkpt><trkpt lat="45.9753603" lon="12.6764967"><ele>35.6</ele><time>2026-04-03T17:28:18.695Z</time></trkpt><trkpt lat="45.9753003" lon="12.6763745"><ele>35.4</ele><time>2026-04-03T17:28:19.695Z</time></trkpt><trkpt lat="45.9752467" lon="12.6762743"><ele>35.2</ele><time>2026-04-03T17:28:20.695Z</time></trkpt><trkpt lat="45.9752023" lon="12.6762012"><ele>35.0</ele><time>2026-04-03T17:28:21.695Z</time></trkpt><trkpt lat="45.975115" lon="12.676163"><ele>35.0</ele><time>2026-04-03T17:28:23.695Z</time></trkpt><trkpt lat="45.9750177" lon="12.6762648"><ele>35.0</ele><time>2026-04-03T17:28:25.695Z</time></trkpt><trkpt lat="45.974948" lon="12.6763442"><ele>35.0</ele><time>2026-04-03T17:28:26.694Z</time></trkpt><trkpt lat="45.9748655" lon="12.6764319"><ele>35.0</ele><time>2026-04-03T17:28:27.694Z</time></trkpt><trkpt lat="45.9747812" lon="12.6765275"><ele>35.0</ele><time>2026-04-03T17:28:28.694Z</time></trkpt><trkpt lat="45.9747018" lon="12.6766155"><ele>35.0</ele><time>2026-04-03T17:28:29.696Z</time></trkpt><trkpt lat="45.9746206" lon="12.6767007"><ele>35.0</ele><time>2026-04-03T17:28:30.695Z</time></trkpt><trkpt lat="45.9745405" lon="12.6767836"><ele>35.0</ele><time>2026-04-03T17:28:31.696Z</time></trkpt><trkpt lat="45.9744633" lon="12.676866"><ele>35.0</ele><time>2026-04-03T17:28:32.695Z</time></trkpt><trkpt lat="45.974391" lon="12.6769458"><ele>35.0</ele><time>2026-04-03T17:28:33.695Z</time></trkpt><trkpt lat="45.9743185" lon="12.6770157"><ele>35.0</ele><time>2026-04-03T17:28:34.695Z</time></trkpt><trkpt lat="45.9742546" lon="12.6770871"><ele>35.0</ele><time>2026-04-03T17:28:35.695Z</time></trkpt><trkpt lat="45.9742" lon="12.677158"><ele>35.0</ele><time>2026-04-03T17:28:36.694Z</time></trkpt><trkpt lat="45.9741487" lon="12.6772206"><ele>35.0</ele><time>2026-04-03T17:28:37.694Z</time></trkpt><trkpt lat="45.9740305" lon="12.6772455"><ele>35.0</ele><time>2026-04-03T17:28:39.695Z</time></trkpt><trkpt lat="45.9739263" lon="12.6773071"><ele>34.83333333333333</ele><time>2026-04-03T17:28:41.694Z</time></trkpt><trkpt lat="45.9738693" lon="12.677371"><ele>34.666666666666664</ele><time>2026-04-03T17:28:42.694Z</time></trkpt><trkpt lat="45.9738036" lon="12.6774474"><ele>34.5</ele><time>2026-04-03T17:28:43.694Z</time></trkpt><trkpt lat="45.9737353" lon="12.6775261"><ele>34.333333333333336</ele><time>2026-04-03T17:28:44.694Z</time></trkpt><trkpt lat="45.9736721" lon="12.6776026"><ele>34.16666666666667</ele><time>2026-04-03T17:28:45.695Z</time></trkpt><trkpt lat="45.9736158" lon="12.6776699"><ele>34.0</ele><time>2026-04-03T17:28:46.696Z</time></trkpt><trkpt lat="45.9735635" lon="12.6777335"><ele>33.8</ele><time>2026-04-03T17:28:47.695Z</time></trkpt><trkpt lat="45.9734722" lon="12.6778374"><ele>33.599999999999994</ele><time>2026-04-03T17:28:49.694Z</time></trkpt><trkpt lat="45.9733737" lon="12.677935"><ele>33.4</ele><time>2026-04-03T17:28:51.694Z</time></trkpt><trkpt lat="45.9732951" lon="12.6780054"><ele>33.199999999999996</ele><time>2026-04-03T17:28:53.694Z</time></trkpt><trkpt lat="45.9732412" lon="12.6780736"><ele>33.0</ele><time>2026-04-03T17:28:55.695Z</time></trkpt><trkpt lat="45.9731752" lon="12.6781451"><ele>32.666666666666664</ele><time>2026-04-03T17:28:58.693Z</time></trkpt><trkpt lat="45.9731246" lon="12.6782048"><ele>32.333333333333336</ele><time>2026-04-03T17:29:01.693Z</time></trkpt><trkpt lat="45.9730623" lon="12.6782799"><ele>32.0</ele><time>2026-04-03T17:29:05.693Z</time></trkpt><trkpt lat="45.9730036" lon="12.6783498"><ele>31.666666666666668</ele><time>2026-04-03T17:29:08.694Z</time></trkpt><trkpt lat="45.9729376" lon="12.6784054"><ele>31.333333333333336</ele><time>2026-04-03T17:29:12.694Z</time></trkpt><trkpt lat="45.9728814" lon="12.6784543"><ele>31.0</ele><time>2026-04-03T17:29:16.694Z</time></trkpt><trkpt lat="45.9728468" lon="12.6780435"><ele>31.0</ele><time>2026-04-03T17:31:46.309Z</time></trkpt><trkpt lat="45.9728768" lon="12.6782505"><ele>31.0</ele><time>2026-04-03T17:33:13.694Z</time></trkpt><trkpt lat="45.9728823" lon="12.6783637"><ele>31.0</ele><time>2026-04-03T17:33:21.694Z</time></trkpt><trkpt lat="45.9728542" lon="12.6779981"><ele>31.0</ele><time>2026-04-03T17:35:34.753Z</time></trkpt></trkseg></trk></gpx>